[[{"header":{"parameterUnit":"m.s-1","parameterCategory":1,"la1":30.6,"la2":29.2853,"lo1":-89.7004,"lo2":-87.6739,"dy":0.0162,"dx":0.0183,"nx":112,"ny":82,"refTime":"2023-10-09T00:00:00:Z","depth":0,"parameterNumber":2,"parameterNumberName":"U-component_of_WINDS"},"data":[0.0,0.0,0.0,0.0,0.0,0.0,0.0,0.0,0.0,0.0,0.0,0.0,0.0,0.0,0.0,0.0,0.0,0.0,0.0,0.0,0.0,0.0,0.0,0.0,0.0,0.0,0.0,0.0,0.0,0.0,0.0,0.0,0.0,0.0,0.0,0.0,0.0,0.0,0.0,0.0,0.0,0.0,0.0,0.0,0.0,0.0,0.0,0.0,0.0,0.0,0.0,0.0,0.0,0.0,0.0,0.0,0.0,0.0,0.0,0.0,0.0,0.0,0.0,0.0,0.0,0.0,0.0,0.0,0.0,0.0,0.0,0.0,0.0,0.0,0.0,0.0,0.0,0.0,0.0,0.0,0.0,0.0,0.0,0.0,0.0,0.0,0.0,0.0,0.0,0.0,-1.342,-1.4846,-1.805,-2.0273,-2.0774,-2.192,-2.1669,-1.9422,0.0,0.0,0.0,0.0,0.0,0.0,0.0,0.0,0.0,0.0,0.0,0.0,0.0,0.0,0.0,0.0,0.0,0.0,0.0,0.0,0.0,0.0,0.0,0.0,0.0,0.0,0.0,0.0,0.0,0.0,0.0,0.0,0.0,0.0,0.0,0.0,0.0,0.0,0.0,0.0,0.0,0.0,0.0,0.0,0.0,0.0,0.0,0.0,0.0,0.0,0.0,0.0,0.0,0.0,0.0,0.0,0.0,0.0,0.0,0.0,0.0,0.0,0.0,0.0,0.0,0.0,0.0,0.0,0.0,0.0,0.0,0.0,0.0,0.0,0.0,0.0,0.0,0.0,0.0,0.0,0.0,0.0,0.0,0.0,0.0,0.0,0.0,0.0,0.0,0.0,0.0,0.0,0.0,0.0,0.0,0.0,0.0,0.0,0.0,0.0,0.0,0.0,0.0,0.0,-1.3889,-1.6524,-1.7988,-1.9514,-2.1206,-2.0715,-2.0338,-2.0413,0.0,0.0,0.0,0.0,0.0,0.0,0.0,0.0,0.0,0.0,0.0,0.0,0.0,0.0,0.0,0.0,0.0,0.0,0.0,0.0,0.0,0.0,0.0,0.0,0.0,0.0,0.0,0.0,0.0,0.0,0.0,0.0,0.0,0.0,0.0,0.0,0.0,0.0,0.0,0.0,0.0,0.0,0.0,0.0,0.0,0.0,0.0,0.0,0.0,0.0,0.0,0.0,0.0,0.0,0.0,0.0,0.0,0.0,0.0,0.0,0.0,0.0,0.0,0.0,0.0,0.0,0.0,0.0,0.0,0.0,0.0,0.0,0.0,0.0,0.0,0.0,0.0,0.0,0.0,0.0,0.0,0.0,0.0,0.0,0.0,0.0,0.0,0.0,0.0,0.0,0.0,0.0,0.0,0.0,0.0,0.0,0.0,0.0,0.0,0.0,0.0,0.0,0.0,-1.3506,-1.4154,-1.6548,-1.7846,-1.8884,-1.9903,-1.9877,-1.9911,-2.0175,-1.912,0.0,0.0,0.0,0.0,0.0,0.0,0.0,0.0,0.0,0.0,0.0,0.0,0.0,0.0,0.0,0.0,0.0,0.0,0.0,0.0,0.0,0.0,0.0,0.0,0.0,0.0,0.0,0.0,0.0,0.0,0.0,0.0,0.0,0.0,0.0,0.0,0.0,0.0,0.0,0.0,0.0,0.0,0.0,0.0,0.0,0.0,0.0,0.0,0.0,0.0,0.0,0.0,0.0,0.0,0.0,0.0,0.0,0.0,0.0,0.0,0.0,0.0,0.0,0.0,0.0,0.0,0.0,0.0,0.0,0.0,0.0,0.0,0.0,0.0,0.0,0.0,0.0,0.0,0.0,0.0,0.0,0.0,0.0,0.0,0.0,0.0,0.0,0.0,0.0,0.0,0.0,0.0,0.0,0.0,0.0,0.0,0.0,0.0,0.0,0.0,0.0,0.0,-1.4064,-1.4407,-1.6189,-1.7689,-1.8571,-1.8519,-1.8953,-1.9284,-1.9409,-1.8016,0.0,0.0,0.0,0.0,0.0,0.0,0.0,0.0,0.0,0.0,0.0,0.0,0.0,0.0,0.0,0.0,0.0,0.0,0.0,0.0,0.0,0.0,0.0,0.0,0.0,0.0,0.0,0.0,0.0,0.0,0.0,0.0,0.0,0.0,0.0,0.0,0.0,0.0,0.0,0.0,0.0,0.0,0.0,0.0,0.0,0.0,0.0,0.0,0.0,0.0,0.0,0.0,0.0,0.0,0.0,0.0,0.0,0.0,0.0,0.0,0.0,0.0,0.0,0.0,0.0,0.0,0.0,0.0,0.0,0.0,0.0,0.0,0.0,0.0,0.0,0.0,0.0,0.0,0.0,0.0,0.0,0.0,0.0,0.0,0.0,0.0,0.0,0.0,0.0,0.0,0.0,0.0,0.0,0.0,0.0,0.0,0.0,0.0,0.0,0.0,0.0,0.0,-1.4124,-1.4879,-1.5827,-1.7591,-1.8507,-1.7986,-1.7724,-1.7765,-1.8279,-1.7225,0.0,0.0,0.0,0.0,0.0,0.0,0.0,0.0,0.0,0.0,0.0,0.0,0.0,0.0,0.0,0.0,0.0,0.0,0.0,0.0,0.0,0.0,0.0,0.0,0.0,0.0,0.0,0.0,0.0,0.0,0.0,0.0,0.0,0.0,0.0,0.0,0.0,0.0,0.0,0.0,0.0,0.0,0.0,0.0,0.0,0.0,0.0,0.0,0.0,0.0,0.0,0.0,0.0,0.0,0.0,0.0,0.0,0.0,0.0,0.0,0.0,0.0,0.0,0.0,0.0,0.0,0.0,0.0,0.0,0.0,0.0,0.0,0.0,0.0,0.0,0.0,0.0,0.0,0.0,0.0,0.0,0.0,0.0,0.0,0.0,0.0,0.0,0.0,0.0,0.0,0.0,0.0,0.0,0.0,0.0,0.0,0.0,0.0,0.0,0.0,0.0,0.0,-1.4001,-1.4437,0.0,-1.6458,-1.706,-1.6876,-1.6503,-1.6508,-1.7047,0.0,0.0,0.0,0.0,0.0,0.0,0.0,0.0,0.0,0.0,0.0,0.0,0.0,0.0,0.0,0.0,0.0,0.0,0.0,0.0,0.0,0.0,0.0,0.0,0.0,0.0,0.0,0.0,0.0,0.0,0.0,0.0,0.0,0.0,0.0,0.0,0.0,0.0,0.0,0.0,0.0,0.0,0.0,0.0,0.0,0.0,0.0,0.0,0.0,0.0,0.0,0.0,0.0,0.0,0.0,0.0,0.0,0.0,0.0,0.0,0.0,0.0,0.0,0.0,0.0,0.0,0.0,0.0,0.0,0.0,0.0,0.0,0.0,0.0,0.0,0.0,0.0,0.0,0.0,0.0,0.0,0.0,0.0,0.0,0.0,0.0,0.0,0.0,0.0,0.0,0.0,0.0,0.0,0.0,0.0,0.0,0.0,0.0,0.0,0.0,0.0,0.0,-1.3902,-1.3838,-1.392,0.0,-1.568,-1.6065,-1.5494,-1.5269,-1.5325,-1.5819,0.0,0.0,0.0,0.0,0.0,0.0,0.0,0.0,0.0,0.0,0.0,0.0,0.0,0.0,0.0,0.0,0.0,0.0,0.0,0.0,0.0,0.0,0.0,0.0,0.0,0.0,0.0,0.0,0.0,0.0,0.0,0.0,0.0,0.0,0.0,0.0,0.0,0.0,0.0,0.0,0.0,0.0,0.0,0.0,0.0,0.0,0.0,0.0,0.0,0.0,0.0,0.0,0.0,0.0,0.0,0.0,0.0,0.0,0.0,0.0,0.0,0.0,0.0,0.0,0.0,0.0,0.0,0.0,0.0,0.0,0.0,0.0,0.0,0.0,0.0,0.0,0.0,0.0,0.0,0.0,0.0,0.0,0.0,0.0,0.0,0.0,0.0,0.0,0.0,0.0,0.0,0.0,0.0,0.0,0.0,0.0,0.0,0.0,0.0,0.0,0.0,0.0,-1.3854,-1.3611,-1.3518,-1.4037,-1.5464,-1.5675,-1.3936,-1.3982,-1.4238,0.0,0.0,0.0,0.0,0.0,0.0,0.0,0.0,0.0,0.0,0.0,0.0,0.0,0.0,0.0,0.0,0.0,0.0,0.0,0.0,0.0,0.0,0.0,0.0,0.0,0.0,0.0,0.0,0.0,0.0,0.0,0.0,0.0,0.0,0.0,0.0,0.0,0.0,0.0,0.0,0.0,0.0,0.0,0.0,0.0,0.0,0.0,0.0,0.0,0.0,0.0,0.0,0.0,0.0,0.0,0.0,0.0,0.0,0.0,0.0,0.0,0.0,0.0,0.0,0.0,0.0,0.0,0.0,0.0,0.0,0.0,0.0,0.0,0.0,0.0,0.0,0.0,0.0,0.0,0.0,0.0,0.0,0.0,0.0,0.0,0.0,0.0,0.0,0.0,0.0,0.0,0.0,0.0,0.0,0.0,0.0,0.0,0.0,0.0,0.0,0.0,0.0,0.0,-1.3854,-1.3297,-1.3047,-1.3831,-1.4285,-1.4221,-1.3373,-1.3031,-1.2984,-1.3426,0.0,0.0,0.0,0.0,0.0,0.0,0.0,0.0,0.0,0.0,0.0,0.0,0.0,0.0,0.0,0.0,0.0,0.0,0.0,0.0,0.0,0.0,0.0,0.0,0.0,0.0,0.0,0.0,0.0,0.0,0.0,0.0,0.0,0.0,0.0,0.0,0.0,0.0,0.0,0.0,0.0,0.0,0.0,0.0,0.0,0.0,0.0,0.0,0.0,0.0,0.0,0.0,0.0,0.0,0.0,0.0,0.0,0.0,0.0,0.0,0.0,0.0,0.0,0.0,0.0,0.0,0.0,0.0,0.0,0.0,0.0,0.0,0.0,0.0,0.0,0.0,0.0,0.0,0.0,0.0,0.0,0.0,0.0,0.0,0.0,0.0,0.0,0.0,0.0,0.0,0.0,0.0,0.0,0.0,0.0,0.0,0.0,0.0,0.0,0.0,0.0,0.0,-1.3682,-1.2839,-1.2382,-1.3062,-1.3144,-1.296,-1.2546,-1.2042,-1.193,-1.2351,0.0,0.0,0.0,0.0,0.0,0.0,0.0,0.0,0.0,0.0,0.0,0.0,0.0,0.0,0.0,0.0,0.0,0.0,0.0,0.0,0.0,0.0,0.0,0.0,0.0,0.0,0.0,0.0,0.0,0.0,0.0,0.0,0.0,0.0,0.0,0.0,0.0,0.0,0.0,0.0,0.0,0.0,0.0,0.0,0.0,0.0,0.0,0.0,0.0,0.0,0.0,0.0,0.0,0.0,0.0,0.0,0.0,0.0,0.0,0.0,0.0,0.0,0.0,0.0,0.0,0.0,0.0,0.0,0.0,0.0,0.0,0.0,0.0,0.0,0.0,0.0,0.0,0.0,0.0,0.0,0.0,0.0,0.0,0.0,0.0,0.0,0.0,0.0,0.0,0.0,0.0,0.0,0.0,0.0,0.0,0.0,0.0,0.0,0.0,0.0,0.0,0.0,-1.3389,-1.2393,-1.1728,-1.2178,-1.218,-1.2031,-1.1587,-1.1133,-1.1094,-1.1577,0.0,0.0,0.0,0.0,0.0,0.0,0.0,0.0,0.0,0.0,0.0,0.0,0.0,0.0,0.0,0.0,0.0,0.0,0.0,0.0,0.0,0.0,0.0,0.0,0.0,0.0,0.0,0.0,0.0,0.0,0.0,0.0,0.0,0.0,0.0,0.0,0.0,0.0,0.0,0.0,0.0,0.0,0.0,0.0,0.0,0.0,0.0,0.0,0.0,0.0,0.0,0.0,0.0,0.0,0.0,0.0,0.0,0.0,0.0,0.0,-2.2804,0.0,0.0,0.0,0.0,0.0,0.0,0.0,0.0,0.0,0.0,0.0,0.0,0.0,0.0,0.0,0.0,0.0,0.0,0.0,0.0,0.0,0.0,0.0,0.0,0.0,0.0,0.0,0.0,0.0,0.0,0.0,0.0,0.0,0.0,0.0,0.0,0.0,0.0,0.0,0.0,0.0,-1.3789,-1.2568,-1.1728,-1.2178,-1.218,-1.1914,-1.1113,-1.0967,-1.1094,-1.1577,-1.1416,0.0,0.0,0.0,0.0,0.0,0.0,0.0,0.0,0.0,0.0,0.0,0.0,0.0,0.0,0.0,0.0,0.0,0.0,0.0,0.0,0.0,0.0,0.0,0.0,0.0,0.0,0.0,0.0,0.0,0.0,0.0,0.0,0.0,0.0,0.0,0.0,0.0,0.0,0.0,0.0,0.0,0.0,0.0,0.0,0.0,0.0,0.0,0.0,0.0,0.0,0.0,0.0,0.0,0.0,0.0,0.0,0.0,0.0,0.0,0.0,-2.3377,0.0,0.0,0.0,0.0,0.0,0.0,0.0,0.0,0.0,0.0,0.0,0.0,0.0,0.0,0.0,0.0,0.0,0.0,0.0,0.0,0.0,0.0,0.0,0.0,0.0,0.0,0.0,0.0,0.0,0.0,0.0,0.0,0.0,0.0,0.0,0.0,0.0,0.0,0.0,0.0,-1.3662,-1.25,-1.1694,-1.1885,-1.1904,-1.1641,-1.0967,-1.0723,-1.0703,-1.0969,-1.1123,0.0,0.0,0.0,0.0,0.0,0.0,0.0,0.0,0.0,0.0,0.0,0.0,0.0,0.0,0.0,0.0,0.0,0.0,0.0,0.0,0.0,0.0,0.0,0.0,0.0,0.0,0.0,0.0,0.0,0.0,0.0,0.0,0.0,0.0,0.0,0.0,0.0,0.0,0.0,0.0,0.0,0.0,0.0,0.0,0.0,0.0,0.0,0.0,0.0,0.0,0.0,0.0,0.0,-3.0801,-3.051,-3.0045,-2.9102,-2.8531,-2.8179,-2.691,-2.5605,-2.4365,-2.4961,0.0,0.0,0.0,0.0,0.0,0.0,0.0,0.0,0.0,0.0,0.0,0.0,0.0,0.0,0.0,0.0,0.0,0.0,0.0,0.0,0.0,0.0,0.0,0.0,-1.8236,-1.7438,-1.5698,0.0,0.0,0.0,0.0,0.0,0.0,0.0,0.0,0.0,0.0,0.0,-1.3408,-1.2432,-1.1724,-1.1724,-1.1645,-1.143,-1.0947,-1.0518,-1.0283,-1.0283,-1.0989,-1.1449,0.0,0.0,0.0,0.0,0.0,0.0,0.0,0.0,0.0,0.0,0.0,0.0,0.0,0.0,0.0,0.0,0.0,0.0,0.0,0.0,0.0,0.0,0.0,0.0,0.0,0.0,0.0,0.0,0.0,0.0,0.0,0.0,-2.6277,-2.6271,0.0,0.0,0.0,0.0,0.0,0.0,0.0,0.0,0.0,0.0,0.0,0.0,0.0,-3.0597,-3.1854,-3.3769,-3.3982,-3.2601,-3.3494,-3.2869,-3.0864,-2.9969,-3.0327,-3.1532,-3.0626,0.0,-2.4709,-2.4393,0.0,0.0,0.0,0.0,0.0,0.0,0.0,0.0,0.0,0.0,0.0,0.0,0.0,0.0,0.0,0.0,0.0,0.0,0.0,0.0,0.0,0.0,-1.8839,-1.8611,-1.8258,-1.7858,0.0,-1.6558,-1.5771,-1.5879,-1.509,0.0,0.0,0.0,0.0,0.0,0.0,0.0,-1.3447,-1.2705,-1.2139,-1.2139,-1.1797,-1.143,-1.0947,-1.0518,-1.0283,-1.0283,-1.043,-1.0822,-1.1577,-1.273,0.0,0.0,0.0,0.0,0.0,0.0,0.0,0.0,0.0,0.0,0.0,0.0,0.0,0.0,0.0,0.0,0.0,0.0,0.0,0.0,0.0,0.0,0.0,0.0,0.0,0.0,0.0,0.0,0.0,-2.6793,-2.8062,-2.6197,-2.755,-2.7744,0.0,0.0,0.0,0.0,0.0,0.0,0.0,0.0,0.0,-3.1779,-3.314,-3.4322,-3.525,-3.6507,-3.6945,-3.652,-3.5822,-3.4917,-3.3873,-3.2307,-3.1997,-3.268,-3.2342,-3.08,-2.8447,-2.7478,-2.5716,-2.3678,0.0,0.0,0.0,0.0,-2.2334,-2.2108,-2.2485,-2.1995,-2.1292,-2.1794,0.0,0.0,0.0,0.0,0.0,0.0,0.0,0.0,0.0,0.0,-2.0441,-2.0616,-2.0326,-1.9951,-1.9908,-1.8694,-1.7497,0.0,-1.6359,-1.585,-1.6316,0.0,0.0,0.0,0.0,-1.3125,-1.3779,-1.2861,-1.2278,-1.2568,-1.2197,-1.1758,-1.1309,-1.0879,-1.0635,-1.0635,-1.041,-1.0449,-1.0871,-1.2346,-1.315,0.0,0.0,0.0,0.0,0.0,0.0,0.0,0.0,0.0,0.0,0.0,0.0,0.0,0.0,0.0,0.0,0.0,0.0,0.0,0.0,0.0,0.0,0.0,0.0,0.0,0.0,0.0,0.0,-2.821,-2.9195,-2.6069,-2.8354,-2.9001,0.0,0.0,0.0,0.0,0.0,0.0,-3.1988,-3.3754,-3.4831,-3.4996,-3.6626,-3.7793,-3.8422,-3.8916,-3.9104,-3.9044,-3.7331,-3.6127,-3.5561,-3.3849,-3.324,-3.3471,-3.324,-3.276,-3.2102,-3.0222,-2.8081,-2.5824,-2.541,-2.4808,-2.4205,-2.4356,-2.4142,-2.3841,-2.4418,-2.3791,-2.2774,-2.2912,-2.2397,-2.1619,-2.1041,0.0,0.0,0.0,0.0,-2.1393,-2.1807,-2.1907,-2.202,-2.2422,-2.2209,-2.187,-2.1732,-2.0588,-1.9291,0.0,-1.7438,-1.6935,-1.7147,0.0,0.0,0.0,0.0,-1.3516,-1.3926,-1.3145,-1.2637,-1.2852,-1.249,-1.21,-1.1758,-1.1328,-1.1074,-1.1074,-1.0781,-1.0685,-1.0845,-1.2296,-1.2958,-1.2606,0.0,0.0,0.0,0.0,0.0,0.0,0.0,0.0,0.0,0.0,0.0,0.0,0.0,0.0,0.0,0.0,0.0,0.0,0.0,0.0,0.0,0.0,0.0,0.0,0.0,0.0,0.0,0.0,0.0,-2.6649,-2.9605,0.0,0.0,0.0,0.0,-3.1604,-3.3284,-3.4801,-3.6118,-3.7434,-3.8452,-3.9095,-3.9828,-4.0516,-4.1175,-4.1205,-4.0178,-3.8172,-3.7481,-3.6055,-3.3997,-3.3393,-3.3628,-3.4594,-3.3556,-3.3687,-3.4318,-3.1057,-2.9315,-2.8561,-2.6992,-2.6666,-2.6942,-2.59,-2.5498,-2.5335,-2.4368,-2.3979,-2.4004,-2.4519,-2.4657,-2.4506,-2.3954,-2.3401,0.0,0.0,-2.2952,-2.2965,-2.2977,-2.299,-2.3002,-2.3027,-2.3015,-2.2912,-2.2385,-2.182,-2.0697,0.0,-1.721,-1.6338,-1.6052,0.0,-1.5597,-1.4887,-1.4736,-1.4404,-1.3643,-1.3486,-1.3301,-1.292,-1.249,-1.2171,-1.2151,-1.1787,-1.1567,-1.1567,-1.1557,-1.1787,-1.2373,-1.2857,-1.3286,-1.3737,-1.4906,0.0,0.0,0.0,0.0,0.0,0.0,0.0,0.0,0.0,0.0,0.0,0.0,0.0,0.0,0.0,0.0,0.0,0.0,0.0,0.0,0.0,0.0,0.0,0.0,0.0,0.0,0.0,0.0,-3.0057,-3.289,0.0,-3.0921,-3.1984,-3.3629,-3.5381,-3.691,-3.8443,-4.0217,-4.11,-4.1683,-4.1923,-4.2162,-4.2402,-4.2626,-4.146,-4.0495,-3.964,-3.7221,-3.569,-3.4852,-3.3652,-3.3313,-3.3641,-3.324,-3.3313,-3.3577,-3.2382,-3.1348,-3.0419,-2.9503,-2.8812,-2.8298,-2.7883,-2.7519,-2.7105,-2.6377,-2.5887,-2.5435,-2.4569,-2.4042,-2.3703,-2.3502,-2.3301,-2.3153,-2.359,-2.369,-2.3766,-2.413,-2.3954,-2.369,-2.369,-2.3401,-2.2887,-2.1983,-2.1631,-2.1037,-1.9503,-1.8292,-1.7541,-1.7702,-1.6901,-1.6079,-1.5587,-1.5262,-1.4864,-1.438,-1.3848,-1.3555,-1.3672,-1.3066,-1.2646,-1.2646,-1.2246,-1.1992,-1.1992,-1.1719,-1.1693,-1.19,-1.2658,-1.2989,-1.2759,-1.3836,-1.4398,0.0,0.0,0.0,0.0,0.0,0.0,0.0,0.0,0.0,0.0,0.0,0.0,0.0,0.0,0.0,0.0,0.0,0.0,0.0,0.0,0.0,0.0,0.0,0.0,0.0,0.0,-3.3908,-3.2502,-3.4949,-3.5903,-3.3714,-3.4888,-3.6387,-3.7881,-3.9102,-4.0513,-4.2,-4.2315,-4.2432,-4.2432,-4.2242,-4.2126,-4.2126,-4.0936,-4.0125,-3.9746,-3.7124,-3.5654,-3.5223,-3.3728,-3.3081,-3.3081,-3.3081,-3.3081,-3.3081,-3.3081,-3.2629,-3.1901,-3.1373,-3.0696,-2.9993,-2.9628,-2.9264,-2.885,-2.8097,-2.7356,-2.6565,-2.546,-2.472,-2.4255,-2.4255,-2.4255,-2.4343,-2.472,-2.4833,-2.4833,-2.482,-2.4556,-2.418,-2.3803,-2.3276,-2.2661,-2.192,-2.1481,-2.0991,-2.0238,-1.9327,-1.8685,-1.8708,-1.7833,-1.6938,-1.6189,-1.5858,-1.5401,-1.467,-1.4072,-1.3721,-1.3711,-1.3213,-1.2881,-1.2881,-1.2744,-1.2598,-1.2461,-1.2305,-1.2286,-1.2353,-1.3113,-1.3362,-1.2969,-1.3042,-1.3759,-1.5057,0.0,0.0,0.0,0.0,0.0,0.0,0.0,0.0,0.0,0.0,0.0,0.0,0.0,0.0,0.0,0.0,0.0,0.0,0.0,0.0,0.0,0.0,0.0,-3.133,-3.3091,-3.4113,-3.3688,-3.5812,-3.6433,-3.4311,-3.6509,-3.8306,-3.8925,-3.9937,-4.0831,-4.1498,-4.1025,-4.0694,-4.0694,-4.0203,-3.9899,-3.9899,-3.9899,-3.9271,-3.8094,-3.6959,-3.582,-3.4688,-3.3596,-3.3093,-3.3081,-3.3081,-3.3081,-3.3081,-3.3081,-3.3068,-3.2993,-3.2428,-3.2202,-3.2064,-3.1009,-3.0595,-3.0407,-2.9289,-2.8185,-2.7281,-2.7268,-2.6892,-2.6533,-2.6533,-2.6533,-2.6533,-2.6533,-2.6533,-2.6214,-2.5121,-2.4833,-2.4544,-2.3366,-2.2736,-2.2334,-2.2297,-2.1443,-2.0731,-2.0706,-2.0188,-1.9579,-1.8886,-1.8715,-1.8221,-1.6765,-1.6549,0.0,-1.4331,-1.4107,-1.3848,-1.3027,-1.293,-1.291,-1.29,-1.3271,-1.333,-1.291,-1.3262,-1.3581,-1.3742,-1.415,-1.438,-1.439,-1.2701,-1.2811,-1.4785,0.0,0.0,0.0,0.0,0.0,0.0,0.0,0.0,0.0,0.0,0.0,0.0,0.0,0.0,0.0,0.0,0.0,0.0,0.0,0.0,0.0,0.0,-3.2145,-3.2777,-3.5012,-3.6897,-3.7375,-3.8389,-3.8919,-3.8718,-3.9032,-3.9693,-4.0781,-4.1156,-4.1787,-4.2885,-4.1998,-4.1446,-4.1446,-4.0438,-3.9899,-3.9899,-3.9006,-3.8469,-3.8107,-3.6509,-3.5363,-3.47,-3.3985,-3.3458,-3.3081,-3.3081,-3.3081,-3.3081,-3.3081,-3.283,-3.2441,-3.2277,-3.1964,-3.1537,-3.0859,-3.0093,-2.9289,-2.8574,-2.7871,-2.7218,-2.6816,-2.6647,-2.6533,-2.6533,-2.6533,-2.6533,-2.6533,-2.6533,-2.6302,-2.5573,-2.5109,-2.4644,-2.3929,-2.3326,-2.2686,-2.1882,-2.1481,-2.1029,-2.02,-1.9911,-1.9747,-1.9527,-1.9475,-1.898,-1.7523,-1.7302,0.0,-1.5259,-1.4795,-1.4512,-1.4287,-1.3975,-1.3662,-1.3359,-1.3437,-1.333,-1.291,-1.2988,-1.3096,-1.3162,-1.3262,-1.3471,-1.374,-1.3864,-1.4253,0.0,0.0,0.0,0.0,0.0,0.0,0.0,0.0,0.0,0.0,0.0,0.0,0.0,0.0,0.0,0.0,0.0,0.0,0.0,0.0,0.0,0.0,-3.2516,-3.4376,-3.5507,-3.689,-3.8133,-3.9146,-3.9496,-3.9823,-4.0136,-3.9885,-3.9981,-4.0743,-4.0844,-4.1119,-4.1887,-4.0771,-4.0133,-4.0133,-3.9003,-3.8392,-3.8392,-3.7769,-3.7415,-3.7402,-3.5923,-3.5039,-3.47,-3.3909,-3.3382,-3.3081,-3.3081,-3.3081,-3.3081,-3.3081,-3.288,0.0,0.0,0.0,0.0,0.0,-2.9905,-2.8888,-2.8561,-2.7946,-2.7231,-2.6917,-2.6653,-2.6533,-2.6533,-2.6533,-2.6533,-2.6533,-2.6533,-2.6276,-2.5473,-2.5046,-2.4619,-2.3828,-2.3201,-2.2611,-2.197,-2.1468,-2.0953,-2.0288,-1.9962,0.0,-1.9798,-1.9798,-1.9307,-1.7852,-1.7578,-1.7003,-1.5338,-1.4941,-1.4717,-1.4531,-1.4287,-1.398,-1.3789,-1.3936,0.0,0.0,0.0,-1.3682,-1.3682,-1.3682,0.0,0.0,0.0,-1.5049,-1.5049,0.0,0.0,0.0,-1.541,-1.541,0.0,0.0,0.0,0.0,0.0,0.0,0.0,0.0,0.0,0.0,0.0,0.0,0.0,0.0,0.0,0.0,-3.519,-3.7111,-3.873,-3.8517,-3.8567,-3.9572,-3.9697,-3.9697,-3.9697,-3.9697,-3.9697,-3.9697,-3.9697,-3.9697,-3.9697,0.0,0.0,0.0,0.0,-3.6358,-3.6358,-3.6358,-3.6358,-3.6358,-3.5316,-3.4776,-3.4688,-3.3646,-3.3131,-3.3081,-3.3081,-3.3081,-3.3081,-3.3081,-3.3006,-3.2842,-3.2315,-3.175,-3.1148,-3.0696,-2.9854,-2.8925,-2.885,0.0,0.0,-2.7205,-2.6854,-2.6533,-2.6533,-2.6533,-2.6508,-2.6445,-2.6433,-2.6113,-2.5008,-2.4732,-2.4456,-2.3389,-2.2711,-2.2297,-2.2234,-2.1393,-2.0706,-2.063,-2.0162,-1.9798,-1.9798,-1.9798,-1.9307,-1.7852,-1.7578,-1.6927,-1.5117,-1.4853,-1.4707,-1.4262,0.0,0.0,-1.4155,-1.4561,-1.4443,-1.3633,-1.4287,-1.4717,-1.4717,-1.4756,-1.4961,-1.5332,-1.5391,-1.541,-1.541,-1.541,-1.541,-1.541,-1.541,-1.541,0.0,0.0,0.0,0.0,0.0,0.0,0.0,0.0,0.0,0.0,0.0,0.0,0.0,0.0,0.0,-3.5353,-3.6835,-3.8115,-3.9358,-3.9433,-3.9446,-3.9672,-3.9697,-3.9697,-3.9697,-3.9697,-3.9697,-3.9697,-3.9697,-3.9697,-3.9697,-3.8617,-3.8002,-3.8002,-3.6935,-3.6358,-3.6358,-3.6358,-3.6358,-3.6358,0.0,0.0,-3.47,-3.4035,-3.3495,-3.3081,-3.3081,-3.3081,-3.3081,-3.3081,-3.2541,-3.17,-3.1587,-3.0959,-3.0093,-2.9993,-2.9515,-2.8863,-2.8411,-2.7833,-2.7205,-2.6766,-2.6553,-2.6533,-2.6533,-2.6533,0.0,-2.59,-2.5762,-2.5511,-2.4431,-2.4155,-2.3991,-2.3301,-2.2711,-2.2184,-2.1744,-2.1129,-2.058,-2.0062,-1.9874,-1.9798,-1.9798,-1.9798,-1.9307,-1.7852,-1.7578,-1.7047,-1.5466,-1.5293,-1.5254,-1.5176,-1.5166,-1.5029,-1.4687,-1.4736,-1.4561,-1.4043,-1.417,-1.4258,-1.4258,-1.46,-1.4824,-1.4902,-1.5234,-1.541,-1.541,-1.541,-1.541,-1.541,-1.541,-1.541,0.0,0.0,0.0,0.0,0.0,0.0,0.0,0.0,0.0,0.0,0.0,-3.1097,0.0,0.0,-3.5378,-3.7299,-3.8316,-3.9145,-3.9986,-3.9873,-3.9697,-3.9697,-3.9697,-3.9697,-3.9697,-3.9697,-3.9697,-3.9697,-3.9433,-3.9283,-3.9283,-3.8216,-3.76,-3.76,-3.6784,-3.6358,-3.6358,-3.6094,-3.5956,-3.5943,-3.5115,-3.4575,-3.4299,-3.3746,-3.3332,-3.3081,-3.3081,-3.3081,-3.3056,-3.2767,-3.2152,-3.1361,-3.1097,-3.0507,-2.9792,-2.9792,-2.9252,-2.8473,-2.8197,-2.7557,-2.6829,-2.6622,-2.6533,-2.6533,-2.6533,-2.6533,-2.6471,-2.6113,-2.5824,-2.541,-2.4619,-2.4205,-2.3853,-2.3215,-2.2924,-2.2648,-2.2372,-2.1882,-2.1317,-2.0752,-2.0426,-2.0137,-1.9849,-1.9798,-1.9423,-1.834,-1.7523,-1.6754,-1.6036,-1.5633,-1.541,-1.541,-1.541,-1.5322,-1.5117,-1.4902,-1.4943,-1.5265,-1.479,-1.4551,-1.4766,-1.498,-1.5098,-1.5098,-1.5303,-1.541,-1.541,-1.541,-1.541,-1.541,-1.541,-1.541,0.0,0.0,0.0,0.0,0.0,0.0,0.0,0.0,-3.1462,-3.2292,-3.2995,-3.3682,-3.4514,-3.5893,-3.7362,-3.8793,-3.9408,-3.9848,-4.0287,-3.9973,-3.9647,-3.9546,-3.9634,-3.9697,-3.9697,-3.9597,-3.9534,-3.9534,-3.9019,-3.8705,-3.8705,-3.7739,-3.7186,-3.7186,-3.6646,-3.6358,-3.6358,-3.5931,-3.5655,-3.5449,-3.4537,-3.401,-3.3884,-3.3332,-3.3081,-3.3081,-3.3081,-3.3081,-3.3031,-3.234,-3.1788,-3.1336,-3.0696,-3.0181,-2.9792,-2.9792,-2.9076,-2.8109,-2.8109,-2.7381,-2.6533,-2.6533,-2.6533,-2.6533,-2.6533,-2.6533,-2.6508,-2.6395,-2.5887,-2.5322,-2.4795,-2.4255,-2.3715,-2.3251,-2.299,-2.2915,-2.2915,-2.2535,-2.202,-2.1568,-2.1041,-2.0567,-2.0049,-1.977,-1.9359,-1.8768,-1.7688,-1.6877,-1.6708,-1.6197,-1.5853,-1.5853,-1.5853,-1.5853,-1.5853,-1.5532,-1.565,-1.6461,-1.5654,-1.5229,-1.54,-1.541,-1.541,-1.541,-1.541,-1.541,-1.541,-1.541,-1.541,-1.541,-1.541,-1.541,-2.7709,-2.8547,0.0,-3.1903,-3.1991,-3.2873,0.0,0.0,-3.5142,-3.7389,-3.724,-3.683,-3.7425,-3.8115,-3.8818,-3.9496,-3.9647,-3.9722,-3.9772,-3.9735,-3.9509,-3.9019,-3.9396,-3.9697,-3.9697,-3.9245,-3.8956,-3.8956,-3.8429,-3.8103,-3.8103,-3.7525,-3.7186,-3.7186,-3.6646,-3.6358,-3.6358,-3.6295,-3.6031,-3.5449,-3.4926,-3.4374,-3.3884,-3.3332,-3.3081,-3.3081,-3.3081,-3.3081,-3.2993,-3.1913,-3.1449,-3.1286,-3.0281,-2.9842,-2.9792,-2.9792,-2.9076,-2.8109,-2.8109,-2.7381,-2.6533,-2.6533,-2.6533,-2.6533,-2.6533,-2.6533,-2.642,-2.5837,-2.531,-2.4782,-2.423,-2.3665,-2.3153,-2.309,-2.2761,-2.2397,-2.2397,-2.197,-2.1556,-2.1493,-2.1041,-2.0706,-2.063,-1.9585,-1.8821,-1.8715,-1.8555,-1.8232,-1.7578,-1.7413,-1.7357,-1.7357,-1.7357,-1.7357,-1.7357,-1.7302,-1.7081,-1.6539,-1.6384,-1.6042,-1.541,-1.541,-1.541,-1.541,-1.541,-1.541,-1.541,-1.541,-1.541,-1.541,-1.541,-1.541,-3.1218,0.0,0.0,0.0,-3.5906,-3.7372,-4.0237,-3.9407,-3.87,-4.1165,-4.0688,-3.9938,-4.0595,-4.0534,-4.0271,0.0,-3.9697,-3.9697,-3.9697,-3.9132,-3.863,-3.8391,-3.8002,-3.8002,-3.8655,-3.8818,-3.8868,-3.8868,-3.8642,-3.8366,-3.8027,-3.7475,-3.7036,-3.6709,-3.6483,-3.6358,-3.6358,-3.5717,-3.529,-3.5052,-3.4173,-3.3646,-3.342,-3.3181,-3.3081,-3.3081,-3.3081,-3.3081,-3.2993,-3.1851,-3.1386,-3.1286,-3.0218,-2.9792,-2.9754,-2.9415,-2.8787,-2.8059,-2.7733,-2.7118,-2.6533,-2.6533,-2.6533,-2.6533,-2.6533,-2.6533,-2.6483,-2.6163,-2.5699,-2.5146,-2.4619,-2.4054,-2.3552,-2.3153,-2.2902,-2.2786,-2.2786,-2.2611,-2.2347,-2.2033,-2.1782,-2.1418,-2.0832,-2.0238,-1.974,-1.9408,-1.8608,-1.8112,-1.8232,-1.7852,-1.7578,-1.7578,-1.7578,-1.7578,-1.7578,-1.7202,-1.681,-1.6549,-1.6093,-1.57,-1.541,-1.541,-1.541,-1.541,-1.541,-1.541,-1.541,-1.541,-1.541,-1.541,-1.541,-1.541,-3.3289,0.0,0.0,-3.6009,-3.8283,-4.0274,-4.1516,-4.136,-4.1633,-4.3821,-4.3065,-4.2248,-4.2516,-4.1843,-4.0984,-4.0083,-3.9804,-3.9664,-3.9548,-3.863,-3.7889,-3.7588,-3.6709,-3.6395,-3.7036,-3.7751,-3.8241,-3.8391,-3.8266,-3.799,-3.7575,-3.7174,-3.6772,-3.637,-3.6219,-3.6132,-3.6132,-3.519,-3.465,-3.4487,-3.3684,-3.3219,-3.3081,-3.3081,-3.3081,-3.3081,-3.3081,-3.2993,-3.2767,-3.1788,-3.1298,-3.1085,-3.0156,-2.9792,-2.9729,-2.9139,-2.8586,-2.8021,-2.7469,-2.6917,-2.6533,-2.6533,-2.6533,-2.6533,-2.6533,-2.6533,-2.6533,-2.6533,-2.605,-2.5511,-2.5134,-2.4519,-2.3891,-2.3477,-2.3251,-2.3078,-2.3078,-2.3078,-2.2965,-2.2623,-2.2422,-2.2058,-2.1255,-2.0991,-2.0702,-2.0125,-1.9155,-1.8612,-1.8951,-1.8555,-1.8232,-1.8232,-1.8004,-1.7895,-1.7895,-1.7246,-1.6708,-1.6482,-1.5979,-1.5633,-1.541,-1.541,-1.541,-1.541,-1.541,-1.541,-1.541,-1.541,-1.541,-1.541,-1.541,-1.541,0.0,0.0,-3.4448,-3.5448,-3.7582,-3.9922,-4.1391,-4.2558,-4.3624,-4.4933,-4.4318,-4.3229,-4.2571,-4.1379,-4.0499,-4.0588,-3.9996,-3.9453,-3.9007,-3.8379,-3.7613,-3.6533,-3.5918,-3.5378,0.0,-3.5805,-3.6659,-3.7199,-3.6734,-3.6433,-3.6408,-3.6395,-3.6383,-3.6358,-3.5843,-3.5567,-3.5567,-3.5002,-3.4449,-3.3922,-3.3884,-3.3596,-3.3081,-3.3081,-3.3081,-3.3081,-3.3081,-3.2754,-3.219,-3.1625,-3.1097,-3.0583,-3.0018,-2.9792,-2.9729,-2.9139,-2.8586,-2.8021,-2.7469,-2.6917,-2.6533,-2.6533,-2.6533,-2.6533,-2.6533,-2.6533,-2.6533,-2.6533,-2.605,-2.5598,-2.5573,-2.4782,-2.3991,-2.3979,-2.354,-2.3078,-2.3078,-2.3078,-2.3125,-2.3053,-2.2673,-2.2297,-2.2272,-2.182,-2.128,-2.0769,-2.0639,-2.0385,-1.9822,-1.9747,-1.9747,-1.9747,-1.9097,-1.8661,-1.8661,-1.8015,-1.7246,-1.6549,-1.6492,-1.6151,-1.541,-1.541,-1.541,-1.541,-1.541,-1.541,-1.541,-1.541,-1.541,-1.541,-1.541,-1.541,-3.2901,0.0,-3.5639,-3.7975,-4.0298,-4.2651,-4.4968,-4.5313,-4.5462,-4.6388,-4.4504,-4.2386,-4.134,-3.9856,-3.8632,-3.8123,-3.8324,-3.8434,-3.8365,-3.7814,-3.7048,-3.5956,-3.5014,0.0,0.0,0.0,0.0,-3.6596,-3.681,-3.691,-3.691,-3.691,-3.6571,-3.5843,-3.5642,-3.5366,-3.5002,-3.4449,-3.4085,-3.3897,-3.3533,-3.3257,-3.3081,-3.3081,-3.3081,-3.3081,-3.3081,-3.2754,-3.2177,-3.1625,-3.1085,-3.0557,-3.0005,-2.9792,-2.9679,-2.8737,-2.826,-2.8021,-2.7469,-2.6917,-2.6533,-2.6533,-2.6533,-2.6533,-2.6533,-2.6533,-2.6533,-2.6533,-2.6314,-2.6,-2.5272,-2.4808,-2.4456,-2.4092,-2.3552,-2.3238,-2.3627,-2.3401,-2.3078,-2.3078,-2.2927,-2.2736,-2.2372,-2.2159,-2.1719,-2.0803,-2.0338,-2.0024,-1.9823,-1.9798,-1.9592,-1.915,-1.8874,-1.8286,-1.7302,-1.7034,-1.6539,-1.5806,-1.5748,-1.5642,-1.541,-1.541,-1.541,-1.541,-1.541,-1.541,-1.541,-1.541,-1.541,-1.541,-1.541,-1.541,-3.438,-3.5807,-3.693,-4.0161,-4.2145,-4.3902,-4.6121,-4.6225,-4.5747,-4.5569,-4.344,-4.1113,-3.9368,-3.7534,-3.6277,-3.6236,-3.6184,-3.6434,-3.6985,-3.6646,-3.6119,-3.5604,-3.4751,-3.4198,0.0,0.0,0.0,-3.573,-3.6471,-3.681,-3.6609,-3.6784,-3.6483,-3.5567,-3.5542,-3.519,-3.4437,-3.4073,-3.3796,-3.3608,-3.3244,-3.3081,-3.3081,-3.3081,-3.3081,-3.3068,-3.2855,-3.2441,-3.1876,-3.1336,-3.0796,-3.0281,-2.993,-2.9792,-2.9679,-2.875,-2.8273,-2.7996,-2.7256,-2.6753,-2.6533,-2.6533,-2.6533,-2.6533,-2.6533,-2.6533,-2.6533,-2.6533,-2.6533,-2.6302,-2.5586,-2.5259,-2.4958,-2.4418,-2.4004,-2.3728,-2.369,-2.3552,-2.3389,-2.3115,-2.3078,-2.2965,-2.2673,-2.2284,-2.1782,-2.1066,-2.03,-1.9695,-1.9423,-1.9423,-1.915,-1.8394,-1.807,-1.7523,-1.6595,-1.6265,-1.5921,-1.541,-1.541,-1.541,-1.541,-1.541,-1.541,-1.541,-1.541,-1.541,-1.541,-1.541,-1.541,-1.541,-1.541,-1.541,-3.6225,-3.7153,-3.8158,-4.1572,-4.2735,-4.356,-4.4933,-4.5111,-4.4399,-4.2525,-4.101,-3.926,0.0,-3.4574,-3.3636,-3.4741,-3.3896,-3.3619,-3.5256,-3.5165,-3.5052,0.0,0.0,0.0,0.0,0.0,0.0,-3.4675,0.0,-3.6069,-3.5604,-3.6056,-3.6069,-3.5516,-3.5386,-3.4951,-3.3872,-3.3859,-3.3596,-3.3081,-3.3081,-3.3081,-3.3081,-3.3043,-3.3056,-3.3043,-3.2428,-3.1876,-3.1348,-3.0834,-3.0281,-2.9869,-2.9792,-2.9869,-2.9858,-2.9101,-2.8561,-2.8019,-2.6911,-2.6533,-2.6533,-2.6533,-2.6533,-2.6533,-2.6533,-2.6533,-2.6533,-2.6533,-2.6533,-2.6521,-2.6496,-2.6013,-2.5473,-2.4971,-2.4845,-2.4531,-2.3391,-2.364,-2.3828,-2.3251,-2.3078,-2.3078,-2.3078,-2.2246,-2.1518,-2.1493,-2.0498,-1.9512,-1.8768,-1.8715,-1.8394,-1.7633,-1.6922,-1.6492,-1.6436,-1.5806,-1.541,-1.541,-1.541,-1.541,-1.541,-1.541,-1.541,-1.541,-1.541,-1.541,-1.541,-1.541,-1.541,-1.541,-1.541,-1.541,-3.698,-3.865,-3.9928,-4.0799,-4.1774,-4.2552,-4.2509,-4.1973,-4.1035,-3.903,-3.6851,-3.4592,0.0,-3.1573,-3.1598,-3.27,-3.3682,0.0,-3.5378,-3.6483,0.0,-3.5667,0.0,-3.5617,-3.4801,-3.4964,0.0,0.0,-3.4977,-3.5441,-3.6119,-3.5893,-3.5504,-3.4951,-3.4537,-3.3985,-3.3294,-3.3282,-3.3219,-3.3081,-3.3081,-3.3081,-3.3056,-3.2629,-3.2667,-3.3018,-3.2026,-3.1524,-3.1348,-3.0834,-3.0713,-3.0758,-3.0075,-3.0633,-3.1635,-2.9228,-2.8635,-2.8885,-2.7094,-2.6533,-2.6533,-2.6533,-2.6533,-2.6533,-2.6533,-2.6533,-2.6533,-2.6533,-2.6533,-2.6433,-2.5925,-2.5711,-2.5561,-2.5435,-2.5109,-2.4745,-2.4456,-2.418,-2.3828,-2.3251,-2.3078,-2.3078,-2.3078,-2.256,-2.197,-2.1556,-2.0428,-1.9396,-1.8762,-1.8715,-1.8232,-1.6922,-1.6595,-1.6265,-1.5748,-1.5526,-1.541,-1.541,-1.541,-1.541,-1.541,-1.541,-1.541,-1.541,-1.541,-1.541,-1.541,-1.541,-1.541,-1.541,-1.541,-1.541,-3.7902,-3.9609,-4.1014,-4.1943,-4.2266,-4.2127,-4.158,-4.0213,-3.8135,-3.5046,-3.2991,0.0,-2.916,-2.8667,0.0,0.0,0.0,0.0,-3.4537,-3.5617,-3.6132,0.0,-3.6169,0.0,-3.5504,-3.5504,-3.5516,0.0,-3.5441,-3.5604,-3.5981,-3.5705,-3.529,-3.4738,-3.4424,-3.3997,-3.3445,-3.3206,-3.3081,-3.3081,-3.3081,-3.3081,-3.3056,-3.2478,-3.239,-3.2641,0.0,-3.1047,-3.1009,-3.0904,-3.0981,-3.118,-3.1057,-3.1402,-3.1753,-2.9542,-2.8782,-2.8686,-2.7037,-2.6533,-2.6533,-2.6533,-2.6533,-2.6533,-2.6533,-2.6533,-2.6533,-2.6533,-2.6533,-2.6445,-2.6063,-2.5975,-2.5912,-2.5649,-2.5573,-2.541,-2.4921,-2.4569,-2.4117,-2.3228,-2.3078,-2.3078,-2.3078,-2.2673,-2.2121,-2.1568,-2.0674,-1.9728,-1.8839,-1.8447,-1.7797,-1.6595,-1.6492,-1.6208,-1.5468,-1.541,-1.541,-1.541,-1.541,-1.541,-1.541,-1.541,-1.541,-1.541,-1.541,-1.541,-1.541,-1.541,-1.541,-1.541,-1.541,-1.541,-3.8894,-4.0136,-4.1584,-4.3449,-4.2943,-4.1778,-4.0999,-3.8844,-3.5624,-3.1165,0.0,-2.8622,-2.6797,-2.6347,-2.6941,-2.9306,0.0,-2.9656,-3.3429,-3.406,-3.465,-3.6081,-3.6383,-3.6445,-3.637,-3.5868,-3.5742,-3.6219,-3.6182,-3.5968,-3.5567,-3.5386,-3.5152,-3.4525,-3.45,-3.4274,-3.3796,-3.3319,-3.3081,-3.3081,-3.3081,-3.3081,-3.3056,-3.2403,-3.2139,-3.2152,-3.1009,-3.0545,-3.0649,-3.0929,-3.1106,-3.1241,-3.196,-3.1888,-3.1256,-2.9816,-2.8841,-2.8079,-2.6911,-2.6533,-2.6533,-2.6533,-2.6533,-2.6533,-2.6533,-2.6533,-2.6533,-2.6533,-2.6533,-2.6533,-2.6533,-2.6533,-2.6395,-2.5824,-2.6101,-2.6176,-2.5146,-2.4808,-2.4406,-2.3339,-2.3078,-2.3078,-2.3078,-2.2736,-2.2234,-2.1681,-2.1074,-2.0229,-1.9107,-1.8267,-1.7413,-1.6606,-1.6492,-1.6208,-1.5468,-1.541,-1.541,-1.541,-1.541,-1.541,-1.541,-1.541,-1.541,-1.541,-1.541,-1.541,-1.541,-1.541,-1.541,-1.541,-1.541,-1.541,-3.9823,-4.0438,-4.0816,-4.1668,-4.0951,-3.9664,-3.8439,-3.6109,0.0,0.0,-2.7949,-2.6841,-2.5944,-2.601,0.0,-3.0191,0.0,0.0,0.0,0.0,-3.5366,0.0,0.0,0.0,0.0,0.0,0.0,0.0,0.0,-3.5165,-3.5437,-3.5115,-3.4399,-3.3395,-3.337,-3.3319,-3.3219,-3.3131,-3.3081,-3.3081,-3.3081,-3.3081,-3.3043,-3.2001,-3.1788,-3.2127,-3.0595,0.0,-3.057,-3.0238,-3.0482,-3.1106,-3.0495,-3.1119,-3.2027,-2.9339,-2.871,-2.9026,-2.7176,-2.6533,-2.6533,-2.6533,-2.6533,-2.6533,-2.6533,-2.6533,-2.6533,-2.6533,-2.6533,-2.6533,-2.6533,-2.6533,-2.6496,-2.6395,-2.6389,-2.6276,-2.5598,-2.477,-2.3941,-2.3263,-2.3078,-2.3078,-2.3078,-2.299,-2.2811,-2.2246,-2.1158,-2.0451,-2.0362,-1.9269,-1.8004,-1.6652,-1.6492,-1.6208,-1.5468,-1.541,-1.541,-1.541,-1.541,-1.541,-1.541,-1.541,-1.541,-1.541,-1.541,-1.541,-1.541,-1.541,-1.541,-1.541,-1.541,-1.541,-3.9785,-4.03,-4.0692,-4.1621,-3.9893,-3.7648,-3.6245,0.0,0.0,0.0,-2.6019,-2.548,-2.5151,0.0,0.0,0.0,0.0,0.0,0.0,0.0,0.0,0.0,0.0,0.0,0.0,0.0,0.0,0.0,0.0,-3.4839,-3.5102,-3.46,-3.3922,-3.3106,-3.3081,-3.3081,-3.3081,-3.3081,-3.3081,-3.3081,-3.2767,-3.2629,-3.2591,-3.1486,-3.1135,-3.1323,-3.0256,-2.9942,-3.0234,-3.0458,-3.0758,-3.118,-3.1267,-3.1476,-3.1648,-2.9954,-2.9052,-2.8595,-2.7366,-2.6703,-2.6533,-2.6533,-2.6533,-2.6533,-2.6533,-2.6533,-2.6533,-2.6533,-2.6533,-2.6533,-2.6533,-2.6533,-2.6533,-2.6533,-2.6226,-2.5862,-2.531,-2.4569,-2.3828,-2.3251,-2.3078,-2.3078,-2.3078,-2.3078,-2.2949,-2.2397,-2.1782,-2.1297,-2.1167,-2.032,-1.909,-1.7279,-1.7375,-1.6973,-1.5546,-1.541,-1.541,-1.541,-1.541,-1.541,-1.541,-1.541,-1.541,-1.541,-1.541,-1.541,-1.541,-1.541,-1.541,-1.541,-1.541,-1.541,-3.9221,-3.9735,-4.0376,-4.1355,-3.8931,-3.5926,-3.4317,-3.12,0.0,0.0,-2.4582,-2.4582,-2.4582,0.0,0.0,0.0,0.0,0.0,0.0,0.0,0.0,0.0,0.0,0.0,0.0,0.0,0.0,0.0,0.0,0.0,-3.4537,-3.4022,-3.352,-3.3093,-3.3081,-3.3081,-3.3081,-3.3081,-3.3081,-3.3068,-3.2616,-3.234,-3.2177,-3.1223,-3.0721,-3.0583,-3.003,-2.9792,-2.9869,-3.0633,-3.0895,-3.097,-3.1683,-3.1536,-3.083,-3.0281,-2.9211,-2.8021,-2.7469,-2.6917,-2.6533,-2.6533,-2.6533,-2.6533,-2.6533,-2.6533,-2.6533,-2.6533,-2.6533,-2.6533,-2.6533,-2.6533,-2.6533,-2.6533,-2.6113,-2.5598,-2.4958,-2.4481,-2.3966,-2.3215,-2.3078,-2.3078,-2.3078,-2.3078,-2.2987,-2.2548,-2.2385,-2.2121,-2.1556,-2.0994,-1.9837,-1.7799,-1.8047,-1.756,-1.5778,-1.5468,-1.541,-1.541,-1.541,-1.541,-1.541,-1.541,-1.541,-1.541,-1.541,-1.541,-1.541,-1.541,-1.541,-1.541,-1.541,-1.541,-3.8019,-3.858,-3.9032,-3.9158,-3.7431,-3.5073,-3.2677,0.0,0.0,-2.5135,-2.4582,-2.4582,-2.4582,-2.4119,-2.4611,0.0,0.0,-2.5707,0.0,0.0,0.0,0.0,0.0,0.0,0.0,0.0,0.0,0.0,0.0,0.0,-3.3947,-3.3458,-3.3131,-3.3081,-3.3081,-3.3081,-3.3081,-3.3081,-3.3081,-3.3081,-3.3018,-3.2717,-3.219,-3.1587,-3.106,-3.0583,-3.003,-2.9792,0.0,-2.9856,-2.9934,-2.9934,-2.9998,-2.9998,-2.9858,-2.929,-2.8648,-2.8021,-2.7469,-2.6917,-2.6533,-2.6533,-2.6533,-2.6533,-2.6533,-2.6533,-2.6533,-2.6533,-2.6533,-2.6533,-2.6533,-2.6533,-2.6533,-2.6533,-2.6483,-2.6101,-2.5046,-2.4782,-2.4431,-2.3278,-2.3078,-2.3078,-2.3078,-2.3078,-2.3053,-2.3002,-2.2636,-2.2121,-2.1556,-2.0856,-1.9674,-1.7789,-1.7678,-1.7357,-1.6492,-1.5806,-1.541,-1.541,-1.541,-1.541,-1.541,-1.541,-1.541,-1.541,-1.541,-1.541,-1.541,-1.541,-1.541,-1.541,-1.541,-1.541,-3.5929,-3.6866,-3.754,-3.8145,-3.5507,-3.2626,-3.1811,0.0,-2.5794,-2.4313,-2.4014,-2.4014,-2.4014,-2.3789,-2.3807,-2.4538,-2.388,0.0,0.0,0.0,0.0,0.0,0.0,0.0,0.0,0.0,0.0,0.0,0.0,0.0,-3.3395,-3.3206,-3.3081,-3.3081,-3.3081,-3.3081,-3.3081,-3.2729,-3.2729,-3.3068,-3.2064,-3.1637,-3.1687,-3.0821,-3.0319,-3.0105,-2.9892,-3.0139,0.0,-2.9998,-3.0139,-3.0558,-2.9998,-2.9792,-2.9729,-2.9139,-2.8586,-2.8072,-2.7858,-2.7205,-2.6584,-2.6854,-2.6728,-2.6533,-2.6533,-2.6533,-2.6533,-2.6533,-2.6533,-2.6533,-2.6533,-2.6533,-2.6533,-2.6533,-2.6189,-2.5824,-2.5385,-2.4782,-2.4192,-2.374,-2.3376,-2.3078,-2.3078,-2.3078,-2.3078,-2.3078,-2.2949,-2.2546,-2.1835,-2.1152,-2.0182,-1.8654,-1.7906,-1.7052,-1.5941,-1.5584,-1.541,-1.541,-1.541,-1.541,-1.541,-1.541,-1.541,-1.541,-1.541,-1.541,-1.541,-1.541,-1.541,-1.541,-1.541,-1.541,-3.4124,-3.524,-3.6103,-3.6592,-3.3759,-3.0779,0.0,0.0,-2.4388,-2.3744,-2.3595,-2.3595,-2.3595,-2.3595,-2.3421,-2.2785,-2.2543,-2.27,0.0,0.0,0.0,0.0,0.0,0.0,0.0,0.0,0.0,0.0,0.0,0.0,-3.3081,-3.3081,-3.3081,-3.3081,-3.3081,-3.3081,-3.3081,-3.2503,-3.2416,-3.2805,-3.1486,-3.0959,-3.1135,-3.0382,-2.9942,-2.9792,-2.9792,-3.0355,0.0,-3.0216,-3.0253,-3.0869,-2.9885,-2.944,-2.9252,-2.8837,-2.8335,-2.7858,-2.7858,-2.7243,-2.6596,-2.6917,-2.6848,-2.6533,-2.6533,-2.6533,-2.6533,-2.6533,-2.6533,-2.6533,-2.6533,-2.6533,-2.6533,-2.6533,-2.6151,-2.5762,-2.5435,-2.4895,-2.433,-2.3841,-2.3552,-2.3339,-2.3103,-2.3078,-2.3078,-2.3078,-2.3078,-2.2761,-2.1786,-2.1307,-2.0391,-1.8729,-1.806,-1.7207,-1.5846,-1.5526,-1.541,-1.541,-1.541,-1.541,-1.541,-1.541,-1.541,-1.541,-1.541,-1.541,-1.541,-1.541,-1.541,-1.541,-1.541,-1.541,-3.28,-3.3878,-3.4716,-3.4181,-3.2319,-2.9987,0.0,0.0,-2.4388,-2.3744,-2.3595,-2.3595,-2.3595,-2.3595,-2.3421,-2.2785,-2.2146,0.0,0.0,0.0,0.0,0.0,0.0,0.0,0.0,0.0,0.0,0.0,0.0,0.0,-3.3081,-3.3081,-3.3081,-3.3081,-3.3081,-3.3081,-3.3081,-3.2503,-3.2215,-3.2215,-3.165,-3.1122,-3.062,-3.062,-3.0306,-2.9792,-2.9792,-3.0355,0.0,-3.0216,-3.0035,-3.0303,-2.9287,-2.8599,-2.8122,-2.8109,-2.777,-2.7293,-2.7293,-2.6929,-2.6533,-2.6533,-2.6533,-2.6533,-2.6533,-2.6533,-2.6533,-2.6533,-2.6533,-2.6533,-2.6533,-2.6533,-2.6533,-2.6533,-2.6521,-2.6151,-2.5059,-2.5222,-2.5096,-2.3464,-2.3602,-2.3803,-2.3226,-2.3078,-2.3078,-2.3078,-2.3078,-2.2613,-2.12,-2.1141,-2.0203,-1.7525,-1.8002,-1.7966,-1.6581,-1.5806,-1.541,-1.541,-1.541,-1.541,-1.541,-1.541,-1.541,-1.541,-1.541,-1.541,-1.541,-1.541,-1.541,-1.541,-1.541,-1.541,-2.926,-3.0028,-3.0556,-3.1076,-2.9285,-2.7455,-2.7398,-2.5586,-2.3864,-2.364,-2.3595,-2.3595,-2.3595,-2.3275,-2.277,-2.2146,-2.1779,0.0,0.0,0.0,0.0,0.0,0.0,0.0,0.0,0.0,0.0,0.0,0.0,-3.3081,-3.3081,-3.3081,-3.3081,-3.3081,-3.3081,-3.288,-3.2491,-3.1926,-3.165,-3.1637,-3.0733,-3.0407,-3.0608,-3.0231,-2.9955,-2.9792,-2.9792,-3.0355,-3.1106,-3.0216,-3.024,-3.0842,-2.9872,-2.9164,-2.8624,-2.8247,-2.7758,-2.7281,-2.7281,-2.6917,-2.6596,-2.6904,-2.6766,-2.6533,-2.6533,-2.6533,-2.6533,-2.6533,-2.6533,-2.6533,-2.6533,-2.6533,-2.6533,-2.6533,-2.6533,-2.6319,-2.5511,-2.5197,-2.4808,-2.3904,-2.3552,-2.3351,-2.3103,-2.3078,-2.3078,-2.3078,-2.3078,-2.2761,-2.1762,-2.1295,-2.0379,-1.8658,-1.8411,-1.784,-1.6591,-1.6754,-1.6698,-1.6208,-1.6151,-1.5921,-1.541,-1.541,-1.541,-1.541,-1.541,-1.541,-1.541,-1.541,-1.541,-1.541,-1.541,-1.541,0.0,-2.7584,-2.8104,-2.828,-2.6847,0.0,0.0,-2.4612,-2.3325,-2.355,-2.3595,-2.3508,-2.329,-2.2965,-2.2406,-2.1486,-2.1336,0.0,0.0,0.0,0.0,0.0,0.0,0.0,0.0,0.0,0.0,0.0,0.0,-3.298,-3.2767,-3.2754,-3.2654,-3.2453,-3.2641,-3.2478,-3.1901,-3.1373,-3.1097,-3.1085,-2.9993,-2.9754,-3.0281,-2.9729,-2.9578,-2.9792,-2.9792,-3.024,0.0,-3.0126,-3.0099,-3.0461,-2.9503,-2.8938,-2.8524,-2.777,-2.7532,-2.7532,-2.7118,-2.6879,-2.6791,-2.6929,-2.6741,-2.6533,-2.6533,-2.6533,-2.6533,-2.6533,-2.6533,-2.6533,-2.6533,-2.6533,-2.6533,-2.6533,-2.6302,-2.6038,-2.5674,-2.5197,-2.4657,-2.4104,-2.3703,-2.3389,-2.3115,-2.3078,-2.3078,-2.3078,-2.3078,-2.2823,-2.2002,-2.1837,-2.1093,-1.9298,-1.9356,-1.8771,-1.7032,-1.709,-1.6978,-1.6549,-1.6265,-1.5864,-1.541,-1.541,-1.541,-1.541,-1.541,-1.541,-1.541,-1.541,-1.541,-1.541,-1.541,-1.541,0.0,0.0,0.0,0.0,0.0,0.0,0.0,-2.3011,0.0,-2.334,-2.3505,-2.3376,-2.2875,-2.2694,-2.2235,-2.1144,0.0,0.0,0.0,0.0,0.0,0.0,0.0,0.0,0.0,0.0,0.0,0.0,0.0,-3.2717,-3.2177,-3.2152,-3.1901,-3.1348,-3.1838,-3.1851,-3.1336,-3.0859,-3.0595,-3.0545,-2.9453,-2.9239,-2.9779,-2.9151,-2.9189,0.0,-2.9729,-2.9934,-3.027,-2.9872,-2.9602,-2.9377,-2.846,-2.8084,-2.7921,-2.6892,-2.7143,-2.7846,-2.6816,-2.6804,-2.7143,-2.6697,-2.6533,-2.6533,-2.6533,-2.6533,-2.6533,-2.6533,-2.6533,-2.6533,-2.6533,-2.6533,-2.6521,-2.6483,-2.5988,-2.5573,-2.5498,-2.5096,-2.4594,-2.4042,-2.3941,-2.3766,-2.3226,-2.3078,-2.3078,-2.3078,-2.3078,-2.2823,-2.2063,-2.2604,-2.2042,-1.957,-2.0502,-2.036,-1.7877,-1.7034,-1.6595,-1.6492,-1.5864,-1.5468,-1.5468,-1.541,-1.541,-1.5468,-1.541,-1.541,-1.541,-1.541,-1.541,-1.541,-1.541,-1.541,-2.1695,0.0,-2.2996,-2.2697,-2.2503,-2.2338,0.0,-2.2039,-2.1964,0.0,0.0,0.0,0.0,0.0,0.0,0.0,0.0,0.0,0.0,0.0,0.0,0.0,0.0,0.0,0.0,0.0,0.0,0.0,0.0,-3.1725,-3.1587,-3.1587,-3.1336,-3.0809,-3.0922,-3.0934,-3.0796,-3.067,-3.0407,-2.998,-2.9264,-2.9239,-2.9767,-2.875,-2.8599,-2.9139,-2.9139,-2.9202,-2.9225,-2.9152,-2.9113,-2.8971,-2.8333,-2.7846,-2.7444,-2.718,-2.6979,-2.6804,-2.6622,-2.6609,-2.6697,-2.6571,-2.6533,-2.6533,-2.6533,-2.6533,-2.6533,-2.6533,-2.6533,-2.6533,-2.6533,-2.6533,-2.6352,-2.59,-2.5686,-2.5372,-2.4556,-2.428,-2.4017,-2.3452,-2.3339,-2.3288,-2.3103,-2.3078,-2.3078,-2.3078,-2.3078,-2.3005,-2.2823,-2.2643,-2.206,-2.1023,-2.0414,-1.9605,-1.8548,-1.8274,-1.7688,-1.6539,-1.6322,-1.6255,-1.6255,-1.569,-1.57,-1.6208,-1.57,-1.541,-1.541,-1.541,-1.541,-1.541,-1.541,-1.541,-2.0632,-2.141,-2.1994,-2.1395,-2.1695,-2.2069,-2.1769,0.0,0.0,0.0,0.0,0.0,0.0,0.0,0.0,0.0,0.0,0.0,0.0,0.0,0.0,0.0,0.0,0.0,0.0,0.0,0.0,0.0,0.0,-3.1286,-3.1047,-3.1035,-3.067,-2.9867,-2.9842,-2.9967,-3.0231,-3.0231,-3.0093,-2.9779,-2.895,-2.885,-2.9365,-2.8235,-2.8034,-2.8549,-2.8549,-2.8411,-2.8197,-2.8448,-2.8398,-2.8147,-2.7846,-2.7708,-2.7595,-2.7092,-2.703,-2.7143,-2.6697,-2.6533,-2.6533,-2.6533,-2.6533,-2.6533,-2.6533,-2.6533,-2.6533,-2.6533,-2.6533,-2.6533,-2.6533,-2.6533,-2.6382,-2.5737,-2.541,-2.5084,-2.4506,-2.3966,-2.359,-2.354,-2.3314,-2.3078,-2.3078,-2.3078,-2.3078,-2.3078,-2.3078,-2.2977,-2.2786,-2.2498,-2.1881,-2.0736,-1.998,-1.9199,-1.8267,-1.8178,-1.7688,-1.6539,-1.6208,-1.5979,-1.5979,-1.5584,-1.5584,-1.5979,-1.5584,-1.541,-1.541,-1.541,-1.541,-1.541,-1.541,-1.541,-2.0341,-2.1515,-2.2218,-2.0795,-2.1411,-2.2215,-2.156,0.0,0.0,0.0,0.0,0.0,0.0,0.0,0.0,0.0,0.0,0.0,0.0,0.0,0.0,0.0,0.0,0.0,0.0,0.0,0.0,0.0,-3.111,-3.0821,-3.0382,-3.0281,-2.9792,-2.8837,-2.88,-2.9038,-2.9528,-2.9528,-2.9528,-2.9528,-2.8473,-2.8273,-2.8762,-2.7657,-2.7457,-2.7984,0.0,0.0,-2.7318,-2.7783,-2.7708,-2.7268,-2.7193,-2.7444,-2.7745,-2.6804,-2.7055,-2.772,-2.6848,-2.6533,-2.6533,-2.6533,-2.6533,-2.6533,-2.6533,-2.6533,-2.6533,-2.6533,-2.6533,-2.6508,-2.642,-2.6327,-2.6163,-2.5511,-2.5021,-2.4669,-2.4582,-2.3816,-2.3215,-2.3766,-2.3477,-2.3078,-2.3078,-2.3078,-2.3078,-2.3078,-2.3002,-2.2836,-2.2372,-2.2234,-2.1555,-1.992,-1.9646,-1.9077,-1.7897,-1.7677,-1.7357,-1.6708,-1.6083,-1.569,-1.5584,-1.5584,-1.5526,-1.541,-1.541,-1.541,-1.541,-1.541,-1.541,-1.541,-1.541,-1.541,-1.9588,-2.0827,-2.1436,-1.9599,-2.0121,-2.0848,-2.0295,0.0,0.0,0.0,0.0,0.0,0.0,0.0,0.0,0.0,0.0,0.0,0.0,0.0,0.0,0.0,0.0,0.0,0.0,0.0,0.0,0.0,-2.9854,-2.9264,-2.9189,-2.875,-2.8411,-2.8235,-2.8235,-2.8273,-2.836,-2.836,-2.836,-2.836,-2.7708,-2.7695,-2.8197,-2.708,-2.6892,-2.7406,0.0,-2.7369,-2.7293,-2.7369,-2.7356,-2.7231,-2.6766,-2.664,-2.676,-2.6596,-2.6634,-2.6691,-2.6584,-2.6533,-2.6533,-2.6533,-2.6533,-2.6533,-2.6533,-2.6533,-2.6533,-2.6533,-2.6533,-2.6352,-2.585,-2.5724,-2.5485,-2.4481,-2.418,-2.3991,-2.3502,-2.3203,-2.3103,-2.3251,-2.3128,-2.3078,-2.3078,-2.3078,-2.3078,-2.3078,-2.2736,-2.241,-2.2322,-2.1895,-2.1312,-2.0619,-1.9976,-1.9309,-1.859,-1.7961,-1.7523,-1.7413,-1.7302,-1.6968,-1.6379,-1.6322,-1.6036,-1.541,-1.541,-1.541,-1.541,-1.541,-1.541,-1.541,-1.541,-1.541,-1.9424,-2.0205,-2.0367,-1.8853,-2.0142,-2.1384,-1.982,0.0,0.0,0.0,0.0,0.0,0.0,0.0,0.0,0.0,0.0,0.0,0.0,0.0,0.0,0.0,0.0,0.0,0.0,0.0,0.0,-2.9289,-2.8775,-2.8486,-2.8486,-2.8247,-2.7971,-2.767,-2.7657,-2.7519,-2.7218,-2.7218,-2.7519,-2.8097,-2.7544,-2.7419,-2.7632,-2.6829,-2.6603,-2.6841,0.0,-2.6841,-2.6841,-2.6841,-2.6841,-2.6816,-2.6634,-2.6533,-2.6533,-2.6533,-2.6533,-2.6533,-2.6533,-2.6533,-2.6533,-2.6533,-2.6533,-2.6533,-2.6533,-2.6533,-2.6458,-2.6088,-2.5988,-2.6,-2.605,-2.5624,-2.5059,-2.4556,-2.4217,-2.3841,-2.3263,-2.3078,-2.3078,-2.3078,-2.3078,-2.3078,-2.3078,-2.3078,-2.3078,-2.3078,-2.2661,-2.2209,-2.1907,-2.138,-2.0707,-1.9695,-1.9312,-1.8988,-1.8738,-1.8004,-1.7413,-1.7034,-1.7034,-1.6641,-1.5921,-1.6322,-1.6151,-1.541,-1.5806,-1.5806,-1.541,-1.541,-1.5584,-1.5979,-1.5979,-1.6197,-1.922,-1.9704,-1.9566,-1.8078,0.0,-2.14,-1.9722,0.0,0.0,0.0,0.0,0.0,0.0,0.0,0.0,0.0,0.0,0.0,0.0,0.0,0.0,0.0,0.0,0.0,0.0,0.0,0.0,-2.8134,-2.7984,-2.7908,-2.7908,-2.7795,-2.7457,-2.6904,-2.6892,-2.6628,-2.6088,-2.6076,-2.6628,-2.772,-2.7293,-2.7092,-2.708,-2.6722,-2.6533,-2.6533,-2.6533,-2.6533,-2.6533,-2.6533,-2.6533,-2.6533,-2.6533,-2.6533,-2.6533,-2.6533,-2.6533,-2.6533,-2.6533,-2.6533,-2.6533,-2.6533,-2.6533,-2.6533,-2.6533,-2.6533,-2.6339,-2.5762,-2.5511,-2.5485,-2.5799,-2.5259,-2.4594,-2.4456,-2.4104,-2.3678,-2.3226,-2.3078,-2.3078,-2.3078,-2.3078,-2.3078,-2.3078,-2.3025,-2.2877,-2.2877,-2.2359,-2.1782,-2.1355,-2.0803,-2.0076,-1.9081,-1.8821,-1.8608,-1.8447,-1.7895,-1.7302,-1.6549,-1.6492,-1.6312,-1.5911,-1.6312,-1.6208,-1.57,-1.6208,-1.6151,-1.541,-1.5584,-1.5921,-1.6492,-1.6652,-1.709,-1.8636,-1.9421,-1.9373,-1.718,0.0,0.0,-1.9854,-2.0752,0.0,0.0,0.0,0.0,0.0,0.0,0.0,0.0,0.0,0.0,0.0,0.0,0.0,0.0,0.0,0.0,0.0,0.0,-2.8147,-2.8109,-2.7632,-2.7344,-2.7344,-2.6854,-2.6314,-2.5737,-2.5711,-2.546,-2.4946,-2.4946,-2.5485,-2.6647,-2.6609,-2.6584,-2.6584,-2.6546,-2.6533,-2.6533,-2.6533,-2.6533,-2.6533,-2.6533,-2.6533,-2.6533,-2.6533,-2.6533,-2.6533,-2.6533,-2.6533,-2.6533,-2.6533,-2.6533,-2.6533,-2.6533,-2.6533,-2.6533,-2.6533,-2.6533,-2.6339,-2.5762,-2.5247,-2.477,-2.4305,-2.4117,-2.3929,-2.3389,-2.3165,-2.3128,-2.3078,-2.3078,-2.3078,-2.3078,-2.3078,-2.3078,-2.3078,-2.2711,-2.2372,-2.2372,-2.1468,-2.0819,-2.0781,-2.0225,-1.9849,-1.9747,-1.9097,-1.8436,-1.7743,-1.7633,-1.7302,-1.6549,-1.6492,-1.6754,-1.7413,-1.681,-1.6492,-1.6436,-1.6492,-1.6151,-1.541,-1.6093,-1.6436,-1.6549,-1.7191,-1.7523,-1.7561,-1.7967,-1.7904,-1.6795,0.0,0.0,0.0,0.0,0.0,0.0,0.0,0.0,0.0,0.0,0.0,0.0,0.0,0.0,0.0,0.0,0.0,0.0,0.0,0.0,0.0,0.0,-2.6414,-2.6088,-2.5875,-2.5762,-2.5762,-2.5561,-2.5572,-2.5755,-2.5344,-2.5255,-2.5508,-2.5052,-2.5034,-2.5435,-2.5435,-2.5611,-2.5925,-2.5925,-2.6126,-2.6533,-2.6533,-2.6319,-2.5925,-2.5925,-2.5737,-2.5435,-2.5435,-2.5862,-2.6483,-2.605,-2.6151,-2.6533,-2.6533,-2.6533,-2.6533,-2.6533,-2.6533,-2.6533,-2.6533,-2.6533,-2.6264,-2.5372,-2.4971,-2.477,-2.4569,-2.3991,-2.3502,-2.364,-2.3389,-2.3078,-2.3078,-2.3078,-2.3078,-2.3078,-2.3078,-2.2965,-2.2686,-2.2447,-2.2196,-2.1845,-2.1154,-2.0718,-2.0718,-2.0162,-1.9798,-1.9798,-1.915,-1.8394,-1.7677,-1.7202,-1.681,-1.6549,-1.6922,-1.709,-1.6922,-1.709,-1.6978,-1.6482,-1.6492,-1.6151,-1.541,-1.6151,-1.6765,-1.7202,-1.7468,-1.7852,-1.6479,-1.6641,-1.6545,0.0,0.0,0.0,0.0,0.0,0.0,0.0,0.0,0.0,0.0,0.0,0.0,0.0,0.0,0.0,0.0,0.0,0.0,0.0,0.0,0.0,0.0,-2.5826,-2.5549,-2.5192,-2.5345,-2.5521,-2.5521,-2.5281,-2.5318,-2.5656,-2.4899,-2.4697,-2.5013,-2.4506,-2.4293,-2.4293,-2.4293,-2.4657,-2.536,-2.536,-2.5661,-2.6176,-2.6013,-2.5812,-2.5586,-2.5423,-2.5146,-2.482,-2.482,-2.5285,-2.5887,-2.5498,-2.5598,-2.5937,-2.5937,-2.605,-2.6163,-2.6,-2.605,-2.6151,-2.5988,-2.605,-2.5963,-2.487,-2.4695,-2.4745,-2.4381,-2.3654,-2.3178,-2.364,-2.3427,-2.3027,-2.2852,-2.2874,-2.2824,-2.2648,-2.2611,-2.2548,-2.2347,-2.202,-2.1719,-2.1518,-2.0865,-2.0441,-2.0441,-2.0049,-1.9695,-1.9475,-1.898,-1.8286,-1.7357,-1.6978,-1.6765,-1.6482,-1.7202,-1.7357,-1.6866,-1.7357,-1.7246,-1.6482,-1.6492,-1.6151,-1.541,-1.6368,-1.6978,-1.7246,-1.7743,-1.8112,-1.5478,-1.5597,0.0,0.0,0.0,0.0,0.0,0.0,0.0,0.0,0.0,0.0,0.0,0.0,0.0,0.0,0.0,0.0,0.0,0.0,0.0,0.0,0.0,0.0,0.0,-2.5432,-2.5893,-2.588,-2.6539,-2.6946,-2.6946,-2.6297,-2.563,-2.509,-2.4387,-2.3703,-2.3138,-2.3125,-2.3078,-2.3078,-2.3078,-2.3666,-2.4808,-2.4808,-2.5096,-2.5561,-2.5046,-2.5109,-2.5536,-2.5021,-2.4808,-2.4808,-2.4808,-2.4808,-2.482,-2.4808,-2.482,-2.482,-2.482,-2.5159,-2.5498,-2.4983,-2.5172,-2.5485,-2.4971,-2.5184,-2.5372,-2.4305,-2.4393,-2.4556,-2.3366,-2.3078,-2.3078,-2.3078,-2.3078,-2.2975,-2.2422,-2.2309,-2.2146,-2.1594,-2.1493,-2.1656,-2.2196,-2.1393,-2.0907,-2.1393,-2.0514,-1.9798,-1.9798,-1.9798,-1.9527,-1.8768,-1.8715,-1.8124,-1.6652,-1.7191,-1.7302,-1.6549,-1.7191,-1.7578,-1.7578,-1.7567,-1.7257,-1.6482,-1.6482,-1.6151,-1.541,-1.6856,-1.7246,-1.6549,-1.8004,-1.8286,-1.4916,-1.495,0.0,0.0,0.0,0.0,0.0,0.0,0.0,0.0,0.0,0.0,0.0,0.0,0.0,0.0,0.0,0.0,0.0,0.0,0.0,0.0,0.0,0.0,0.0,-2.4039,-2.397,-2.4071,-2.4718,-2.4874,-2.4446,-2.4204,-2.4081,-2.391,-2.3198,-2.2946,-2.3319,-2.3162,-2.3078,-2.3078,-2.3078,-2.3527,-2.4243,-2.4243,-2.4544,-2.5046,-2.4895,-2.4695,-2.4431,-2.3866,-2.3879,-2.4205,-2.3791,-2.4117,-2.477,-2.4393,-2.4494,-2.482,-2.482,-2.4921,-2.5021,-2.487,-2.4921,-2.5021,-2.487,-2.4921,-2.4908,-2.4205,-2.4117,-2.4067,-2.3265,-2.3078,-2.3078,-2.3078,-2.2836,-2.251,-2.2347,-2.2008,-2.1681,-2.1518,-2.1493,-2.1418,-2.1192,-2.0932,-2.0589,-2.0338,-2.0012,-1.9798,-1.9798,-1.9798,-1.9695,-1.9475,-1.898,-1.8501,-1.8058,-1.7786,-1.7523,-1.7302,-1.7468,-1.7578,-1.7578,-1.709,-1.6708,-1.6492,-1.5979,-1.5864,-1.6208,-1.7135,-1.7743,-1.807,-1.7961,-1.7797,-1.371,0.0,0.0,0.0,0.0,0.0,0.0,0.0,0.0,0.0,0.0,0.0,0.0,0.0,0.0,0.0,0.0,0.0,0.0,0.0,0.0,0.0,0.0,0.0,0.0,-2.3289,-2.3434,-2.3756,-2.4445,-2.466,-2.4218,-2.3742,-2.3487,-2.3487,-2.2523,-2.2198,-2.2609,-2.2528,-2.2485,-2.2485,-2.2485,-2.2786,-2.3339,-2.3552,-2.3966,-2.4494,-2.4494,-2.4167,-2.3627,-2.3215,-2.3339,-2.3615,-2.3215,-2.3552,-2.4117,-2.3778,-2.3866,-2.4092,-2.4092,-2.4305,-2.4456,-2.423,-2.4305,-2.4456,-2.423,-2.4305,-2.4368,-2.3816,-2.3816,-2.3866,-2.3288,-2.3078,-2.3078,-2.3078,-2.2711,-2.2246,-2.2033,-2.1556,-2.1091,-2.0865,-2.0815,-2.079,-2.0731,-2.0476,-2.0288,-2.0162,-1.9949,-1.9798,-1.9798,-1.9798,-1.9798,-1.9798,-1.9423,-1.9044,-1.8715,-1.8286,-1.7895,-1.7633,-1.7302,-1.7146,-1.7146,-1.6765,-1.6379,-1.6093,-1.5642,-1.5748,-1.6492,-1.7246,-1.7841,-1.8232,-1.7797,-1.7468,0.0,0.0,0.0,0.0,0.0,0.0,0.0,0.0,0.0,0.0,0.0,0.0,0.0,0.0,0.0,0.0,0.0,0.0,0.0,0.0,0.0,0.0,0.0,0.0,0.0,-2.3055,-2.3766,-2.4347,-2.5018,-2.5429,-2.5416,-2.4163,-2.3417,-2.3417,-2.2094,-2.1418,-2.1418,-2.1511,-2.1536,-2.1493,-2.1536,-2.1801,-2.2259,-2.2811,-2.3376,-2.3916,-2.3916,-2.3615,-2.3078,-2.3078,-2.3078,-2.3078,-2.3078,-2.3078,-2.3078,-2.3078,-2.3078,-2.3078,-2.3078,-2.3477,-2.3841,-2.3314,-2.3489,-2.3828,-2.3288,-2.3502,-2.3803,-2.3215,-2.3514,-2.3803,-2.3215,-2.3078,-2.3078,-2.3078,-2.2673,-2.2083,-2.1531,-2.0978,-2.0439,-1.9911,-1.9798,-1.9962,-2.0542,-2.015,-1.9987,-2.0567,-2.0137,-1.9798,-1.9798,-1.9798,-1.9798,-1.9798,-1.9798,-1.9475,-1.8768,-1.8715,-1.834,-1.7523,-1.6866,-1.6492,-1.6492,-1.6436,-1.6093,-1.541,-1.5468,-1.5864,-1.6595,-1.7357,-1.7731,-1.7797,-1.7677,-1.7246,0.0,0.0,0.0,0.0,0.0,0.0,0.0,0.0,0.0,0.0,0.0,0.0,0.0,0.0,0.0,0.0,0.0,0.0,0.0,0.0,0.0,0.0,0.0,0.0,-2.2309,-2.2578,-2.2956,-2.3683,-2.3915,-2.4035,-2.397,-2.2857,-2.2161,-2.2007,-2.1298,-2.084,-2.084,-2.1735,-2.1953,-2.1493,-2.1953,-2.2018,-2.1681,-2.2234,-2.2786,-2.3265,-2.3265,-2.3251,-2.3078,-2.3078,-2.3078,-2.3078,-2.3078,-2.3078,-2.3078,-2.3078,-2.3078,-2.3078,-2.3078,-2.3153,-2.3301,-2.3115,-2.3165,-2.3301,-2.3115,-2.3165,-2.3301,-2.3115,-2.3165,-2.3288,-2.3103,-2.3078,-2.3078,-2.3078,-2.2385,-2.1518,-2.0966,-2.0388,-1.9949,-1.9823,-1.9798,-1.9849,-1.9962,-1.9886,-1.9849,-1.9962,-1.9874,-1.9798,-1.9798,-1.9798,-1.9798,-1.9798,-1.9798,-1.9475,-1.8768,-1.8715,-1.8124,-1.6821,-1.6606,-1.6492,-1.6492,-1.5921,-1.5584,-1.541,-1.5979,-1.6641,-1.7357,-1.8112,-1.8768,-1.9307,-1.8124,-1.7523,0.0,0.0,0.0,0.0,0.0,0.0,0.0,0.0,0.0,0.0,0.0,0.0,0.0,0.0,0.0,0.0,0.0,0.0,0.0,0.0,0.0,0.0,0.0,0.0,-2.1974,-2.2062,-2.249,-2.3475,-2.358,-2.3435,-2.3105,-2.2256,-2.1569,-2.1244,-2.0914,-2.0759,-2.0759,-2.1355,-2.1498,-2.1144,-2.1144,-2.1125,-2.1117,-2.1669,-2.2221,-2.2736,-2.2736,-2.2736,-2.2761,-2.2965,-2.3078,-2.3078,-2.3078,-2.3078,-2.3078,-2.3078,-2.3078,-2.3027,-2.2836,-2.2912,-2.3027,-2.2824,-2.2865,-2.3078,-2.3078,-2.289,-2.2799,-2.3002,-2.2949,-2.2811,-2.3002,-2.3078,-2.294,-2.2472,-2.1907,-2.1405,-2.1117,-2.0401,-1.9798,-1.9798,-1.9798,-1.9798,-1.9798,-1.9798,-1.9798,-1.9798,-1.9798,-1.9798,-1.9798,-1.9798,-1.9798,-1.9798,-1.9475,-1.9097,-1.8715,-1.8058,-1.7468,-1.7034,-1.6708,-1.6652,-1.7034,-1.6641,-1.6461,-1.6461,-1.681,-1.7413,-1.8124,-1.8501,-1.9097,-1.9747,-1.8286,-1.7578,0.0,0.0,0.0,0.0,0.0,0.0,0.0,0.0,0.0,0.0,0.0,0.0,0.0,0.0,0.0,0.0,0.0,0.0,0.0,0.0,0.0,0.0,0.0,0.0,-2.1554,-2.1697,-2.2225,-2.3508,-2.3406,-2.3084,-2.2694,-2.1866,-2.1197,-2.0795,-2.0795,-2.0795,-2.0795,-2.0894,-2.0894,-2.0795,-2.0105,-2.0112,-2.0731,-2.1029,-2.1556,-2.2171,-2.2171,-2.2171,-2.2209,-2.2661,-2.2849,-2.2849,-2.2849,-2.2849,-2.2849,-2.2849,-2.2849,-2.2786,-2.2334,-2.2472,-2.2774,-2.2322,-2.2472,-2.2849,-2.2849,-2.2598,-2.241,-2.2862,-2.2736,-2.256,-2.2952,-2.3078,-2.2912,-2.1995,-2.1631,-2.1443,-2.1242,-2.0464,-1.9798,-1.9798,-1.9798,-1.9798,-1.9798,-1.9798,-1.9798,-1.9798,-1.9798,-1.9798,-1.9798,-1.9695,-1.9592,-1.9592,-1.8939,-1.8447,-1.834,-1.7302,-1.6922,-1.7357,-1.6978,-1.7034,-1.7731,-1.7797,-1.7852,-1.7961,-1.7841,-1.8112,-1.8715,-1.8821,-1.915,-1.9579,-1.8221,-1.7523,0.0,0.0,0.0,0.0,0.0,0.0,0.0,0.0,0.0,0.0,0.0,0.0,0.0,0.0,0.0,0.0,0.0,0.0,0.0,0.0,0.0,0.0,0.0,0.0,0.0,-2.1697,-2.2225,-2.3508,-2.2606,-2.2193,-2.2649,-2.1015,-2.0295,-2.0795,-2.0795,-2.0795,-2.0795,-2.1342,-2.1293,-2.0795,-2.0105,-2.0112,-2.0706,-2.0225,-2.0602,-2.1594,-2.1594,-2.1594,-2.1606,-2.1681,-2.1707,-2.1707,-2.1707,-2.1707,-2.1707,-2.1707,-2.1707,-2.1694,-2.1619,-2.1644,-2.1694,-2.1619,-2.1644,-2.1707,-2.1707,-2.1995,-2.2322,-2.2397,-2.2711,-2.2977,-2.3053,-2.3078,-2.3027,-2.289,-2.2184,-2.1217,-2.0238,-1.9911,-1.9798,-1.9798,-1.9798,-1.9798,-1.9798,-1.9798,-1.9798,-1.9798,-1.9798,-1.9798,-1.9798,-1.9254,-1.8874,-1.8874,-1.8167,-1.7468,-1.6877,-1.7191,-1.7191,-1.6652,-1.7135,-1.7797,-1.8501,-1.8555,-1.8874,-1.9475,-1.8874,-1.8608,-1.8715,-1.9359,-1.9371,-1.8821,-1.8015,-1.7246,0.0,0.0,0.0,0.0,0.0,0.0,0.0,0.0,0.0,0.0,0.0,0.0,0.0,0.0,0.0,0.0,0.0,0.0,0.0,0.0,0.0,0.0,0.0,0.0,0.0,-2.0688,-2.106,-2.2028,-2.1585,-2.1088,-2.0716,-2.0205,-2.0077,-2.032,-2.0987,-2.15,-2.1846,-2.1771,-2.1183,-2.0258,-1.9952,-1.9936,-2.0175,-1.9911,-2.025,-2.1029,-2.1029,-2.1029,-2.1054,-2.1368,-2.1493,-2.1493,-2.1493,-2.1493,-2.1493,-2.1493,-2.1493,-2.1443,-2.1142,-2.123,-2.1443,-2.1129,-2.1242,-2.1493,-2.1493,-2.1443,-2.1518,-2.2133,-2.2259,-2.2347,-2.2915,-2.3078,-2.3002,-2.2749,-2.2071,-2.1267,-2.0464,-2.0037,-1.9798,-1.9798,-1.9798,-1.9798,-1.9798,-1.9798,-1.9798,-1.9798,-1.9798,-1.9798,-1.9798,-1.9527,-1.9307,-1.9307,-1.8661,-1.807,-1.7731,-1.7633,-1.7633,-1.7743,-1.8058,-1.8555,-1.9307,-1.9307,-1.9475,-1.9798,-1.9475,-1.9307,-1.9307,-1.9202,-1.9044,-1.8661,-1.7523,-1.681,0.0,0.0,0.0,0.0,0.0,0.0,0.0,0.0,0.0,0.0,0.0,0.0,0.0,0.0,0.0,0.0,0.0,0.0,0.0,0.0,0.0,0.0,0.0,0.0,0.0,0.0,-2.0006,-2.0849,-2.0724,-2.0231,-1.9329,-1.9601,-1.9826,-1.9985,-2.1129,-2.2038,-2.2694,-2.2053,-2.1037,-1.9798,-1.9798,-1.9798,-1.9798,-1.9798,-2.0037,-2.0451,-2.0451,-2.0451,-2.0476,-2.0891,-2.1054,-2.1054,-2.1054,-2.1054,-2.1054,-2.1054,-2.1054,-2.1004,-2.0589,-2.0715,-2.0991,-2.0577,-2.0727,-2.1054,-2.1054,-2.0878,-2.0894,-2.1656,-2.1694,-2.1681,-2.2498,-2.2711,-2.2611,-2.2196,-2.1681,-2.1129,-2.0564,-2.0112,-1.9798,-1.9798,-1.9798,-1.9798,-1.9798,-1.9798,-1.9798,-1.9798,-1.9798,-1.9798,-1.9798,-1.9643,-1.9527,-1.9527,-1.8874,-1.8436,-1.8436,-1.807,-1.8124,-1.8661,-1.8874,-1.9202,-1.9798,-1.9798,-1.9798,-1.9798,-1.9798,-1.9695,-1.9527,-1.8768,-1.8436,-1.8394,-1.709,-1.6492,0.0,0.0,0.0,0.0,0.0,0.0,0.0,0.0,0.0,0.0,0.0,0.0,0.0,0.0,0.0,0.0,0.0,0.0,0.0,0.0,0.0,0.0,0.0,0.0,0.0,0.0,-1.9641,-2.0821,-2.0316,-1.9901,-1.9858,-1.9351,-1.9324,-1.9972,-2.1108,-2.2001,-2.2694,-2.2053,-2.1037,-1.9798,-1.9798,-1.9798,-1.9798,-1.9798,-1.9823,-1.9849,-1.9849,-1.9849,-1.9849,-1.9874,-1.9886,-1.9886,-1.9886,-1.9886,-1.9886,-1.9886,-1.9886,-1.9886,-1.9861,-1.9861,-1.9886,-1.9861,-1.9874,-1.9886,-1.9886,-2.025,-2.0731,-2.0794,-2.1104,-2.1506,-2.1556,-2.1568,-2.1568,-2.1543,-2.1104,-2.0605,-1.9974,-1.9823,-1.9798,-1.9798,-1.9798,-1.9798,-1.9798,-1.9798,-1.9798,-1.9798,-1.9798,-1.9798,-1.9798,-1.9202,-1.8768,-1.8768,-1.8124,-1.7688,-1.7688,-1.8286,-1.8661,-1.8715,-1.9371,-1.9747,-1.9798,-1.9798,-1.9798,-1.9798,-1.9798,-1.9475,-1.8768,-1.8015,-1.7688,-1.7633,-1.6866,-1.6492,0.0,0.0,0.0,0.0,0.0,0.0,0.0,0.0,0.0,0.0,0.0,0.0,0.0,0.0,0.0,0.0,0.0,0.0,0.0,0.0,0.0,0.0,0.0,0.0,0.0,0.0,0.0,-1.8889,-1.845,-1.83,-1.8727,-1.8493,-1.8821,-1.9894,-2.0656,-2.1012,-2.092,-2.1008,-2.0279,-1.8769,-1.9452,-1.9824,-1.9902,-1.9866,-2.001,-2.0396,-2.0003,-1.9798,-1.9798,-1.9798,-1.9798,-1.9798,-1.9798,-1.9798,-1.9798,-1.9798,-1.9798,-1.9798,-1.9798,-1.9798,-1.9798,-1.9798,-1.9798,-1.9798,-1.9798,-1.9949,-2.0188,-2.0618,-2.0857,-2.1041,-2.1393,-2.1493,-2.1393,-2.1041,-2.0857,-2.0501,-1.9924,-1.9798,-1.9798,-1.9798,-1.9798,-1.9798,-1.9798,-1.9798,-1.9798,-1.9798,-1.9798,-1.9798,-1.9798,-1.9579,-1.9423,-1.9423,-1.915,-1.898,-1.898,-1.9254,-1.9423,-1.9423,-1.9643,-1.9798,-1.9798,-1.9798,-1.9798,-1.9798,-1.9319,-1.9202,-1.9423,-1.8661,-1.8286,-1.8286,-1.7523,-1.7202,0.0,0.0,0.0,0.0,0.0,0.0,0.0,0.0,0.0,0.0,0.0,0.0,0.0,0.0,0.0,0.0,0.0,0.0,0.0,0.0,0.0,0.0,0.0,0.0,0.0,0.0,0.0,-1.7291,-1.716,0.0,-1.766,-1.7859,-1.8648,-2.0109,-2.0721,-2.0737,-2.016,-2.0514,-2.0045,-1.8727,-1.9293,-1.9584,-1.9661,-1.9573,-1.9775,-2.0187,-1.9927,-1.9798,-1.9798,-1.9798,-1.9798,-1.9798,-1.9798,-1.9798,-1.9798,-1.9798,-1.9798,-1.9798,-1.9798,-1.9798,-1.9798,-1.9798,-1.9798,-1.9798,-1.9798,-1.9798,-1.9874,-2.0275,-2.0376,-2.0464,-2.0828,-2.0928,-2.0828,-2.0464,-2.0376,-2.0275,-1.9886,-1.9798,-1.9798,-1.9798,-1.9798,-1.9798,-1.9798,-1.9798,-1.9798,-1.9798,-1.9798,-1.9798,-1.9798,-1.9798,-1.9798,-1.9798,-1.9798,-1.9798,-1.9798,-1.9798,-1.9798,-1.9798,-1.9798,-1.9798,-1.9798,-1.9798,-1.9798,-1.9798,-1.9307,-1.9319,-1.9798,-1.8821,-1.8447,-1.8661,-1.795,-1.7578,0.0,0.0,0.0,0.0,0.0,0.0,0.0,0.0,0.0,0.0,0.0,0.0,0.0,0.0,0.0,0.0,0.0,0.0,0.0,0.0,0.0,0.0,0.0,0.0,0.0,0.0,0.0,-1.6263,-1.6669,-1.689,-1.6904,-1.7547,-1.8739,-2.058,-2.1276,-2.1296,-2.0666,-2.0666,-2.0345,-1.9727,-1.9239,-1.8995,-1.8976,-1.9009,-1.8982,-1.902,-1.9535,-1.9761,-1.9773,-1.9798,-1.9798,-1.9798,-1.9798,-1.9798,-1.9798,-1.9798,-1.9798,-1.9798,-1.9798,-1.9798,-1.9798,-1.9798,-1.9798,-1.9798,-1.9798,-1.9798,-1.9798,-1.9798,-1.9798,-1.9798,-1.9798,-1.9798,-1.9798,-1.9798,-1.9798,-1.9798,-1.9798,-1.9798,-1.9798,-1.9798,-1.9798,-1.9798,-1.9798,-1.9798,-1.9798,-1.9798,-1.9798,-1.9798,-1.9798,-1.9798,-1.9798,-1.9798,-1.9798,-1.9798,-1.9798,-1.9798,-1.9798,-1.9798,-1.9798,-1.9798,-1.9798,-1.9798,-1.9798,-1.9798,-1.9798,-1.9798,-1.9798,-1.834,-1.8015,-1.8715,-1.8015,-1.7677,-1.3198,0.0,0.0,0.0,0.0,0.0,0.0,0.0,0.0,0.0,0.0,0.0,0.0,0.0,0.0,0.0,0.0,0.0,0.0,0.0,0.0,0.0,0.0,0.0,0.0,0.0,-1.54,0.0,-1.6362,-1.6597,-1.7408,-1.7648,-1.8204,-1.9226,-1.9435,-1.9479,-1.9411,-1.9771,-1.9489,-1.8576,-1.923,-1.9339,-1.9055,-1.8973,-1.8972,-1.9073,-1.8748,-1.8869,-1.9271,-1.9648,-1.9798,-1.9798,-1.9798,-1.9798,-1.9798,-1.9798,-1.9798,-1.9798,-1.9798,-1.9798,-1.9798,-1.9798,-1.9798,-1.9798,-1.9798,-1.9798,-1.9798,-1.9798,-1.9798,-1.9798,-1.9798,-1.9798,-1.9798,-1.9798,-1.9798,-1.9798,-1.9798,-1.9798,-1.9798,-1.9798,-1.9798,-1.9798,-1.9798,-1.9798,-1.9798,-1.9798,-1.9798,-1.9798,-1.9798,-1.9798,-1.9798,-1.9798,-1.9798,-1.9798,-1.9798,-1.9798,-1.9798,-1.9798,-1.9798,-1.9798,-1.9798,-1.9798,-1.9798,-1.9798,-1.9798,-1.9798,-1.9798,-1.9371,-1.9319,-1.9475,-1.9307,-1.9202,0.0,0.0,0.0,0.0,0.0,0.0,-0.7426,-0.7269,-0.7282,0.0,0.0,0.0,0.0,0.0,0.0,0.0,0.0,0.0,0.0,0.0,0.0,0.0,0.0,0.0,0.0,-1.4228,-1.4896,-1.5961,-1.5945,-1.6331,-1.7249,-1.7279,-1.7578,-1.8268,-1.8298,-1.8327,-1.8402,-1.898,-1.8971,-1.8355,-1.8801,-1.8927,-1.8671,-1.8405,-1.8337,-1.8364,-1.8278,-1.8392,-1.8731,-1.9258,-1.961,-1.9798,-1.9798,-1.9798,-1.9798,-1.9798,-1.9798,-1.9798,-1.9798,-1.9798,-1.9798,-1.9798,-1.9798,-1.9798,-1.9798,-1.9798,-1.9798,-1.9798,-1.9798,-1.9798,-1.9798,-1.9798,-1.9798,-1.9798,-1.9798,-1.9798,-1.9798,-1.9798,-1.9798,-1.9798,-1.9798,-1.9798,-1.9798,-1.9798,-1.9798,-1.9798,-1.9798,-1.9798,-1.9798,-1.9798,-1.9798,-1.9798,-1.9798,-1.9798,-1.9798,-1.9798,-1.9798,-1.9798,-1.9798,-1.9798,-1.9798,-1.9798,-1.9798,-1.9798,-1.9798,-1.9798,-1.9798,-1.9798,-1.9798,-1.9798,-1.9798,-1.9643,0.0,0.0,0.0,0.0,0.0,0.0,-0.6445,-0.6277,-0.6666,-0.5589,0.0,0.0,0.0,0.0,0.0,0.0,0.0,0.0,0.0,0.0,0.0,0.0,0.0,0.0,-1.2964,-1.3696,-1.4357,-1.502,-1.5536,-1.6024,-1.6577,-1.6607,-1.6906,-1.7563,-1.7578,-1.7608,-1.7697,-1.8373,-1.8702,-1.8717,-1.8351,-1.8185,-1.808,-1.7635,-1.7377,-1.7313,-1.7802,-1.8053,-1.8154,-1.8643,-1.9183,-1.9723,-1.9773,-1.9798,-1.9798,-1.9798,-1.9798,-1.9798,-1.9798,-1.9798,-1.9798,-1.9798,-1.9798,-1.9798,-1.9798,-1.9798,-1.9798,-1.9798,-1.9798,-1.9798,-1.9798,-1.9798,-1.9798,-1.9798,-1.9798,-1.9798,-1.9798,-1.9798,-1.9798,-1.9798,-1.9798,-1.9798,-1.9798,-1.9798,-1.9798,-1.9798,-1.9798,-1.9798,-1.9798,-1.9798,-1.9798,-1.9798,-1.9798,-1.9798,-1.9798,-1.9798,-1.9798,-1.9798,-1.9798,-1.9798,-1.9798,-1.9798,-1.9798,-1.9798,-1.9798,-1.9798,-1.9798,-1.9798,-1.9747,-1.9695,-1.9695,-1.9254,0.0,0.0,0.0,0.0,0.0,0.0,-0.924,-0.9102,-0.8951,0.0,0.0,0.0,0.0,0.0,0.0,0.0,0.0,0.0,0.0,0.0,0.0,0.0,0.0,0.0,-1.3108,-1.3741,-1.4326,-1.4824,-1.5442,-1.5858,-1.5978,-1.5964,-1.6263,-1.6891,-1.6906,-1.716,-1.7682,-1.8373,-1.8702,-1.8702,-1.8738,-1.8535,-1.8066,-1.7555,-1.7089,-1.6685,-1.6798,-1.7112,-1.7551,-1.7664,-1.8292,-1.9221,-1.9635,-1.9798,-1.9798,-1.9798,-1.9798,-1.9798,-1.9798,-1.9798,-1.9798,-1.9798,-1.9798,-1.9798,-1.9798,-1.9798,-1.9798,-1.9798,-1.9798,-1.9798,-1.9798,-1.9798,-1.9798,-1.9798,-1.9798,-1.9798,-1.9798,-1.9798,-1.9798,-1.9798,-1.9798,-1.9798,-1.9798,-1.9798,-1.9798,-1.9798,-1.9798,-1.9798,-1.9798,-1.9798,-1.9798,-1.9798,-1.9798,-1.9798,-1.9798,-1.9798,-1.9798,-1.9798,-1.9798,-1.9798,-1.9798,-1.9798,-1.9798,-1.9798,-1.9798,-1.9798,-1.9798,-1.9798,-1.9475,-1.8927,-1.8927,-1.8501,0.0,0.0,0.0,-1.1362,0.0,0.0,0.0,-0.9102,-0.8876,-0.8026,0.0,0.0,0.0,0.0,0.0,0.0,0.0,0.0,0.0,0.0,0.0,0.0,0.0,0.0,-1.2177,-1.3278,-1.4328,-1.5231,-1.5619,-1.5799,-1.5799,-1.5799,-1.5948,-1.6248,-1.6263,-1.6441,-1.6855,-1.7485,-1.783,-1.7921,-1.8047,-1.7947,-1.7666,-1.7146,-1.6752,-1.6522,-1.6522,-1.6685,-1.6974,-1.7262,-1.7714,-1.8292,-1.9095,-1.9409,-1.9447,-1.971,-1.9635,-1.9447,-1.971,-1.9623,-1.9459,-1.971,-1.9798,-1.9798,-1.9798,-1.9798,-1.9798,-1.9798,-1.9798,-1.9798,-1.9798,-1.9798,-1.9798,-1.9798,-1.9798,-1.9798,-1.9798,-1.9798,-1.9798,-1.9798,-1.9798,-1.9798,-1.9798,-1.9798,-1.9798,-1.9798,-1.9798,-1.9798,-1.9798,-1.9798,-1.9798,-1.9798,-1.9798,-1.9798,-1.9798,-1.9798,-1.9798,-1.9798,-1.9798,-1.9798,-1.9798,-1.9798,-1.9798,-1.9798,-1.9798,-1.9798,-1.9798,-1.9798,-1.9592,-1.9254,-1.9254,-1.8874,0.0,0.0,0.0,0.0,0.0,-1.0495,0.0,0.0,0.0,0.0,0.0,0.0,0.0,0.0,0.0,0.0,0.0,0.0,0.0,0.0,0.0,0.0,0.0,0.0,-1.1329,-1.2882,-1.4303,-1.5529,-1.5724,-1.5799,-1.5799,-1.5799,-1.5799,-1.5799,-1.5799,-1.5862,-1.5946,-1.655,-1.6872,-1.69,-1.7167,-1.7222,-1.7154,-1.6714,-1.6522,-1.6522,-1.6522,-1.6522,-1.6559,-1.7024,-1.7212,-1.7325,-1.843,-1.8869,-1.892,-1.9334,-1.9296,-1.9033,-1.951,-1.9422,-1.9256,-1.9826,-2.0093,-2.0181,-2.0181,-2.0093,-2.0003,-2.0003,-1.9901,-1.9798,-1.9798,-1.9798,-1.9798,-1.9798,-1.9798,-1.9798,-1.9798,-1.9798,-1.9798,-1.9798,-1.9798,-1.9798,-1.9798,-1.9798,-1.9798,-1.9798,-1.9798,-1.9798,-1.9798,-1.9798,-1.9798,-1.9798,-1.9798,-1.9798,-1.9798,-1.9798,-1.9798,-1.9798,-1.9798,-1.9798,-1.9798,-1.9798,-1.9798,-1.9798,-1.9798,-1.9798,-1.9798,-1.9798,-1.9747,-1.9579,-1.9579,-1.9202,0.0,0.0,0.0,0.0,-1.1487,0.0,0.0,0.0,-0.9705,-0.9642,0.0,0.0,0.0,0.0,0.0,0.0,0.0,0.0,0.0,0.0,0.0,0.0,0.0,0.0,0.0,-1.3135,-1.4109,-1.4857,-1.5469,-1.5799,-1.5799,-1.5799,-1.5799,-1.5799,-1.5799,-1.58,-1.5816,-1.6427,-1.6549,-1.6235,-1.6839,-1.6923,-1.6599,-1.6523,-1.6522,-1.6522,-1.6522,-1.6522,-1.6522,-1.6584,-1.6609,-1.6722,-1.7852,-1.8292,-1.8304,-1.8367,-1.8656,-1.8983,-1.9046,-1.9353,-1.9804,-2.0463,-2.1064,-2.1459,-2.1459,-2.1099,-2.0696,-2.0696,-2.0258,-1.9798,-1.9798,-1.9798,-1.9798,-1.9798,-1.9798,-1.9798,-1.9798,-1.9798,-1.9798,-1.9798,-1.9798,-1.9798,-1.9798,-1.9798,-1.9798,-1.9798,-1.9798,-1.9798,-1.9798,-1.9798,-1.9798,-1.9798,-1.9798,-1.9798,-1.9798,-1.9798,-1.9798,-1.9798,-1.9798,-1.9798,-1.9798,-1.9798,-1.9798,-1.9798,-1.9798,-1.9798,-1.9798,-1.9798,-1.9475,-1.8821,-1.8821,-1.8447,0.0,0.0,0.0,0.0,0.0,0.0,-1.0081,0.0,-0.9993,0.0,0.0,0.0,0.0,0.0,0.0,0.0,-1.0234,0.0,0.0,0.0,0.0,0.0,0.0,0.0,0.0,0.0,0.0,-1.2014,-1.4345,-1.5289,-1.412,-1.5169,-1.5799,-1.5799,-1.5799,-1.5699,-1.551,-1.6036,-1.6298,-1.634,-1.6548,-1.6744,-1.6956,-1.665,-1.6522,-1.6522,-1.6522,-1.6522,-1.6522,-1.6522,-1.6522,-1.6572,-1.7036,-1.7438,-1.7765,-1.8091,-1.8355,-1.8591,-1.89,-1.9136,-1.9396,-1.968,-2.0159,-2.0489,-1.9885,-1.9915,-2.013,-1.9823,-1.9762,-1.9798,-1.9798,-1.9798,-1.9723,-1.9422,-1.9359,-1.9258,-1.8945,-1.8882,-1.8882,-1.8882,-1.8882,-1.8982,-1.9296,-1.9597,-1.9798,-1.9798,-1.9798,-1.9798,-1.9798,-1.9798,-1.9798,-1.9798,-1.9798,-1.9798,-1.9798,-1.9798,-1.9798,-1.9798,-1.9798,-1.9798,-1.9798,-1.9798,-1.9798,-1.9798,-1.9798,-1.9798,-1.9798,-1.9798,-1.9643,-1.9319,-1.9319,-1.915,-1.1814,0.0,0.0,0.0,0.0,0.0,0.0,0.0,0.0,0.0,0.0,0.0,0.0,0.0,0.0,0.0,0.0,-1.0706,0.0,0.0,0.0,0.0,0.0,0.0,0.0,0.0,-1.2066,-1.0279,-1.2996,-1.415,-1.2876,-1.418,-1.5229,-1.5784,-1.5799,-1.5668,-1.5445,-1.5823,-1.6047,-1.6169,-1.6257,-1.6519,-1.6842,-1.6604,-1.6522,-1.6522,-1.6522,-1.6522,-1.6522,-1.6522,-1.6522,-1.6522,-1.6522,-1.6773,-1.7187,-1.7589,-1.784,-1.8071,-1.8585,-1.907,-1.9476,-1.9459,-1.9754,-1.9946,-1.9166,-1.9236,-1.9557,-1.9126,-1.9206,-1.9359,-1.9359,-1.9359,-1.9271,-1.8894,-1.8807,-1.8694,-1.8292,-1.8333,-1.8427,-1.8427,-1.8554,-1.8729,-1.8961,-1.9333,-1.9635,-1.9786,-1.9798,-1.9798,-1.9798,-1.9798,-1.9798,-1.9798,-1.9798,-1.985,-2.0055,-2.0042,-2.0042,-2.0042,-2.0042,-2.0003,-1.9798,-1.9798,-1.9798,-1.9798,-1.9798,-1.9798,-1.9798,-1.9798,-1.9798,-1.9798,-1.9798,-1.9798,0.0,0.0,0.0,-1.1425,0.0,0.0,0.0,0.0,-0.9905,0.0,0.0,0.0,0.0,0.0,0.0,0.0,0.0,0.0,0.0,0.0,0.0,0.0,0.0,0.0,0.0,-1.1677,-1.2224,-1.0872,-1.1491,-1.2179,-1.2771,-1.2861,-1.379,-1.5739,-1.5799,-1.5799,-1.58,-1.5939,-1.5792,-1.5346,-1.5989,-1.6124,-1.5784,-1.6271,-1.6522,-1.6522,-1.6522,-1.6522,-1.6522,-1.6522,-1.6522,-1.6522,-1.6522,-1.6522,-1.6547,-1.6572,-1.6923,-1.7491,-1.8044,-1.9275,-2.0637,-2.0646,-2.0724,-2.0851,-2.0822,-2.0,-1.9125,-1.9112,-1.8706,-1.8254,-1.8254,-1.8254,-1.8254,-1.8242,-1.8229,-1.8229,-1.8204,-1.8601,-1.8989,-1.8989,-1.9382,-1.9605,-1.9106,-1.8993,-1.9221,-1.9723,-1.9798,-1.9798,-1.9798,-1.9798,-1.9798,-1.9798,-1.9798,-2.0055,-2.0696,-2.0746,-2.0746,-2.0746,-2.0746,-2.0497,-1.985,-1.9798,-1.9798,-1.9798,-1.9798,-1.9798,-1.9798,-1.9798,-1.9798,-1.9798,-1.9798,-1.9798,0.0,0.0,-0.8176,-1.0015,0.0,0.0,0.0,0.0,0.0,0.0,0.0,0.0,0.0,0.0,0.0,0.0,0.0,0.0,0.0,0.0,0.0,0.0,0.0,0.0,0.0,0.0,0.0,-0.7691,-1.0608,-1.2006,-1.0957,-1.375,-1.5515,-1.5784,-1.6189,-1.6079,-1.5499,-1.6128,-1.6355,-1.6086,-1.6602,-1.6797,-1.6749,-1.6591,-1.6522,-1.6522,-1.6522,-1.6522,-1.6522,-1.6522,-1.671,-1.7034,-1.7034,-1.7229,-1.7504,-1.7146,-1.7411,-1.8004,-1.8484,-1.926,-1.9859,-1.8812,-1.8947,-1.9378,-1.8309,-1.8239,-1.8418,-1.808,-1.8088,-1.8204,-1.8204,-1.8204,-1.8116,-1.7739,-1.7664,-1.7551,-1.7174,-1.7207,-1.7339,-1.7339,-1.7501,-1.7704,-1.7894,-1.7941,-1.8242,-1.9158,-1.9284,-1.9409,-1.9761,-2.0207,-2.0446,-2.0446,-2.0818,-2.1135,-2.139,-2.139,-2.121,-2.0845,-2.0795,-2.0497,-1.985,-1.9798,-1.9798,-1.9798,-1.9798,-1.9798,-1.9798,-1.9798,-1.9798,-1.9798,-1.9798,-1.9798,-0.4148,-0.4553,0.0,-0.763,-0.8192,0.0,-0.9988,0.0,-1.0121,0.0,0.0,0.0,0.0,0.0,0.0,0.0,0.0,0.0,0.0,-1.2024,0.0,0.0,0.0,0.0,0.0,0.0,-0.9368,-0.7137,-1.0369,-1.1984,0.0,-1.3735,-1.547,-1.5784,-1.6189,-1.6003,-1.5245,-1.6088,-1.6361,-1.6151,-1.6639,-1.6915,-1.6993,-1.668,-1.6522,-1.6522,-1.6522,-1.6522,-1.6522,-1.6522,-1.6837,-1.7312,-1.7312,-1.7626,-1.8066,-1.7706,-1.7963,-1.8508,-1.8808,-1.9147,-1.9244,-1.8224,-1.8086,-1.8123,-1.7109,-1.7144,-1.7526,-1.7174,-1.7338,-1.7601,-1.7601,-1.7601,-1.7513,-1.7162,-1.7074,-1.6974,-1.6597,-1.6637,-1.6795,-1.6795,-1.7076,-1.7348,-1.738,-1.7519,-1.7939,-1.8868,-1.8983,-1.9221,-1.9736,-2.0396,-2.0795,-2.0795,-2.1342,-2.1697,-2.1697,-2.1899,-2.1677,-2.0845,-2.0795,-2.0497,-1.985,-1.9623,-1.9712,-2.0144,-1.9952,-2.0089,-2.0471,-2.0232,-2.0156,-2.0156,-1.9901,-1.9798]},{"header":{"parameterUnit":"m.s-1","parameterCategory":1,"la1":30.6,"la2":29.2853,"lo1":-89.7004,"lo2":-87.6739,"dy":0.0162,"dx":0.0183,"nx":112,"ny":82,"refTime":"2023-10-09T00:00:00:Z","depth":0,"parameterNumber":3,"parameterNumberName":"V-component_of_WINDS"},"data":[0.0,0.0,0.0,0.0,0.0,0.0,0.0,0.0,0.0,0.0,0.0,0.0,0.0,0.0,0.0,0.0,0.0,0.0,0.0,0.0,0.0,0.0,0.0,0.0,0.0,0.0,0.0,0.0,0.0,0.0,0.0,0.0,0.0,0.0,0.0,0.0,0.0,0.0,0.0,0.0,0.0,0.0,0.0,0.0,0.0,0.0,0.0,0.0,0.0,0.0,0.0,0.0,0.0,0.0,0.0,0.0,0.0,0.0,0.0,0.0,0.0,0.0,0.0,0.0,0.0,0.0,0.0,0.0,0.0,0.0,0.0,0.0,0.0,0.0,0.0,0.0,0.0,0.0,0.0,0.0,0.0,0.0,0.0,0.0,0.0,0.0,0.0,0.0,0.0,0.0,-2.2446,-2.2753,-2.4958,-2.5949,-2.4867,-2.6123,-2.5824,-2.3146,0.0,0.0,0.0,0.0,0.0,0.0,0.0,0.0,0.0,0.0,0.0,0.0,0.0,0.0,0.0,0.0,0.0,0.0,0.0,0.0,0.0,0.0,0.0,0.0,0.0,0.0,0.0,0.0,0.0,0.0,0.0,0.0,0.0,0.0,0.0,0.0,0.0,0.0,0.0,0.0,0.0,0.0,0.0,0.0,0.0,0.0,0.0,0.0,0.0,0.0,0.0,0.0,0.0,0.0,0.0,0.0,0.0,0.0,0.0,0.0,0.0,0.0,0.0,0.0,0.0,0.0,0.0,0.0,0.0,0.0,0.0,0.0,0.0,0.0,0.0,0.0,0.0,0.0,0.0,0.0,0.0,0.0,0.0,0.0,0.0,0.0,0.0,0.0,0.0,0.0,0.0,0.0,0.0,0.0,0.0,0.0,0.0,0.0,0.0,0.0,0.0,0.0,0.0,0.0,-2.2665,-2.3599,-2.5218,-2.6014,-2.5498,-2.4687,-2.4238,-2.4328,0.0,0.0,0.0,0.0,0.0,0.0,0.0,0.0,0.0,0.0,0.0,0.0,0.0,0.0,0.0,0.0,0.0,0.0,0.0,0.0,0.0,0.0,0.0,0.0,0.0,0.0,0.0,0.0,0.0,0.0,0.0,0.0,0.0,0.0,0.0,0.0,0.0,0.0,0.0,0.0,0.0,0.0,0.0,0.0,0.0,0.0,0.0,0.0,0.0,0.0,0.0,0.0,0.0,0.0,0.0,0.0,0.0,0.0,0.0,0.0,0.0,0.0,0.0,0.0,0.0,0.0,0.0,0.0,0.0,0.0,0.0,0.0,0.0,0.0,0.0,0.0,0.0,0.0,0.0,0.0,0.0,0.0,0.0,0.0,0.0,0.0,0.0,0.0,0.0,0.0,0.0,0.0,0.0,0.0,0.0,0.0,0.0,0.0,0.0,0.0,0.0,0.0,0.0,-2.3393,-2.3441,-2.4883,-2.5725,-2.5873,-2.5022,-2.4113,-2.3729,-2.4044,-2.2787,0.0,0.0,0.0,0.0,0.0,0.0,0.0,0.0,0.0,0.0,0.0,0.0,0.0,0.0,0.0,0.0,0.0,0.0,0.0,0.0,0.0,0.0,0.0,0.0,0.0,0.0,0.0,0.0,0.0,0.0,0.0,0.0,0.0,0.0,0.0,0.0,0.0,0.0,0.0,0.0,0.0,0.0,0.0,0.0,0.0,0.0,0.0,0.0,0.0,0.0,0.0,0.0,0.0,0.0,0.0,0.0,0.0,0.0,0.0,0.0,0.0,0.0,0.0,0.0,0.0,0.0,0.0,0.0,0.0,0.0,0.0,0.0,0.0,0.0,0.0,0.0,0.0,0.0,0.0,0.0,0.0,0.0,0.0,0.0,0.0,0.0,0.0,0.0,0.0,0.0,0.0,0.0,0.0,0.0,0.0,0.0,0.0,0.0,0.0,0.0,0.0,0.0,-2.3995,-2.3859,-2.5535,-2.5738,-2.5327,-2.4244,-2.3405,-2.2981,-2.3131,-2.147,0.0,0.0,0.0,0.0,0.0,0.0,0.0,0.0,0.0,0.0,0.0,0.0,0.0,0.0,0.0,0.0,0.0,0.0,0.0,0.0,0.0,0.0,0.0,0.0,0.0,0.0,0.0,0.0,0.0,0.0,0.0,0.0,0.0,0.0,0.0,0.0,0.0,0.0,0.0,0.0,0.0,0.0,0.0,0.0,0.0,0.0,0.0,0.0,0.0,0.0,0.0,0.0,0.0,0.0,0.0,0.0,0.0,0.0,0.0,0.0,0.0,0.0,0.0,0.0,0.0,0.0,0.0,0.0,0.0,0.0,0.0,0.0,0.0,0.0,0.0,0.0,0.0,0.0,0.0,0.0,0.0,0.0,0.0,0.0,0.0,0.0,0.0,0.0,0.0,0.0,0.0,0.0,0.0,0.0,0.0,0.0,0.0,0.0,0.0,0.0,0.0,0.0,-2.3048,-2.3243,-2.4724,-2.4662,-2.4228,-2.3545,-2.1888,-2.1171,-2.1784,-2.0528,0.0,0.0,0.0,0.0,0.0,0.0,0.0,0.0,0.0,0.0,0.0,0.0,0.0,0.0,0.0,0.0,0.0,0.0,0.0,0.0,0.0,0.0,0.0,0.0,0.0,0.0,0.0,0.0,0.0,0.0,0.0,0.0,0.0,0.0,0.0,0.0,0.0,0.0,0.0,0.0,0.0,0.0,0.0,0.0,0.0,0.0,0.0,0.0,0.0,0.0,0.0,0.0,0.0,0.0,0.0,0.0,0.0,0.0,0.0,0.0,0.0,0.0,0.0,0.0,0.0,0.0,0.0,0.0,0.0,0.0,0.0,0.0,0.0,0.0,0.0,0.0,0.0,0.0,0.0,0.0,0.0,0.0,0.0,0.0,0.0,0.0,0.0,0.0,0.0,0.0,0.0,0.0,0.0,0.0,0.0,0.0,0.0,0.0,0.0,0.0,0.0,0.0,-2.2848,-2.2552,0.0,-2.3835,-2.348,-2.3228,-2.1507,-2.1034,-2.2419,0.0,0.0,0.0,0.0,0.0,0.0,0.0,0.0,0.0,0.0,0.0,0.0,0.0,0.0,0.0,0.0,0.0,0.0,0.0,0.0,0.0,0.0,0.0,0.0,0.0,0.0,0.0,0.0,0.0,0.0,0.0,0.0,0.0,0.0,0.0,0.0,0.0,0.0,0.0,0.0,0.0,0.0,0.0,0.0,0.0,0.0,0.0,0.0,0.0,0.0,0.0,0.0,0.0,0.0,0.0,0.0,0.0,0.0,0.0,0.0,0.0,0.0,0.0,0.0,0.0,0.0,0.0,0.0,0.0,0.0,0.0,0.0,0.0,0.0,0.0,0.0,0.0,0.0,0.0,0.0,0.0,0.0,0.0,0.0,0.0,0.0,0.0,0.0,0.0,0.0,0.0,0.0,0.0,0.0,0.0,0.0,0.0,0.0,0.0,0.0,0.0,0.0,-2.4201,-2.2582,-2.1955,0.0,-2.3466,-2.2943,-2.2649,-2.1112,-2.0805,-2.228,0.0,0.0,0.0,0.0,0.0,0.0,0.0,0.0,0.0,0.0,0.0,0.0,0.0,0.0,0.0,0.0,0.0,0.0,0.0,0.0,0.0,0.0,0.0,0.0,0.0,0.0,0.0,0.0,0.0,0.0,0.0,0.0,0.0,0.0,0.0,0.0,0.0,0.0,0.0,0.0,0.0,0.0,0.0,0.0,0.0,0.0,0.0,0.0,0.0,0.0,0.0,0.0,0.0,0.0,0.0,0.0,0.0,0.0,0.0,0.0,0.0,0.0,0.0,0.0,0.0,0.0,0.0,0.0,0.0,0.0,0.0,0.0,0.0,0.0,0.0,0.0,0.0,0.0,0.0,0.0,0.0,0.0,0.0,0.0,0.0,0.0,0.0,0.0,0.0,0.0,0.0,0.0,0.0,0.0,0.0,0.0,0.0,0.0,0.0,0.0,0.0,0.0,-2.4117,-2.2102,-2.1424,-2.4191,-2.3586,-2.2595,-2.1667,-2.0536,-2.024,0.0,0.0,0.0,0.0,0.0,0.0,0.0,0.0,0.0,0.0,0.0,0.0,0.0,0.0,0.0,0.0,0.0,0.0,0.0,0.0,0.0,0.0,0.0,0.0,0.0,0.0,0.0,0.0,0.0,0.0,0.0,0.0,0.0,0.0,0.0,0.0,0.0,0.0,0.0,0.0,0.0,0.0,0.0,0.0,0.0,0.0,0.0,0.0,0.0,0.0,0.0,0.0,0.0,0.0,0.0,0.0,0.0,0.0,0.0,0.0,0.0,0.0,0.0,0.0,0.0,0.0,0.0,0.0,0.0,0.0,0.0,0.0,0.0,0.0,0.0,0.0,0.0,0.0,0.0,0.0,0.0,0.0,0.0,0.0,0.0,0.0,0.0,0.0,0.0,0.0,0.0,0.0,0.0,0.0,0.0,0.0,0.0,0.0,0.0,0.0,0.0,0.0,0.0,-2.4117,-2.1699,-2.0381,-2.2242,-2.2209,-2.1691,-2.0891,-2.0066,-2.0282,-2.1803,0.0,0.0,0.0,0.0,0.0,0.0,0.0,0.0,0.0,0.0,0.0,0.0,0.0,0.0,0.0,0.0,0.0,0.0,0.0,0.0,0.0,0.0,0.0,0.0,0.0,0.0,0.0,0.0,0.0,0.0,0.0,0.0,0.0,0.0,0.0,0.0,0.0,0.0,0.0,0.0,0.0,0.0,0.0,0.0,0.0,0.0,0.0,0.0,0.0,0.0,0.0,0.0,0.0,0.0,0.0,0.0,0.0,0.0,0.0,0.0,0.0,0.0,0.0,0.0,0.0,0.0,0.0,0.0,0.0,0.0,0.0,0.0,0.0,0.0,0.0,0.0,0.0,0.0,0.0,0.0,0.0,0.0,0.0,0.0,0.0,0.0,0.0,0.0,0.0,0.0,0.0,0.0,0.0,0.0,0.0,0.0,0.0,0.0,0.0,0.0,0.0,0.0,-2.3697,-2.1474,-2.0107,-2.1316,-2.1449,-2.1149,-2.0373,-1.9651,-1.9855,-2.1285,0.0,0.0,0.0,0.0,0.0,0.0,0.0,0.0,0.0,0.0,0.0,0.0,0.0,0.0,0.0,0.0,0.0,0.0,0.0,0.0,0.0,0.0,0.0,0.0,0.0,0.0,0.0,0.0,0.0,0.0,0.0,0.0,0.0,0.0,0.0,0.0,0.0,0.0,0.0,0.0,0.0,0.0,0.0,0.0,0.0,0.0,0.0,0.0,0.0,0.0,0.0,0.0,0.0,0.0,0.0,0.0,0.0,0.0,0.0,0.0,0.0,0.0,0.0,0.0,0.0,0.0,0.0,0.0,0.0,0.0,0.0,0.0,0.0,0.0,0.0,0.0,0.0,0.0,0.0,0.0,0.0,0.0,0.0,0.0,0.0,0.0,0.0,0.0,0.0,0.0,0.0,0.0,0.0,0.0,0.0,0.0,0.0,0.0,0.0,0.0,0.0,0.0,-2.319,-2.1465,-2.0314,-2.1092,-2.1204,-2.0839,-1.9968,-1.9283,-1.9215,-1.9951,0.0,0.0,0.0,0.0,0.0,0.0,0.0,0.0,0.0,0.0,0.0,0.0,0.0,0.0,0.0,0.0,0.0,0.0,0.0,0.0,0.0,0.0,0.0,0.0,0.0,0.0,0.0,0.0,0.0,0.0,0.0,0.0,0.0,0.0,0.0,0.0,0.0,0.0,0.0,0.0,0.0,0.0,0.0,0.0,0.0,0.0,0.0,0.0,0.0,0.0,0.0,0.0,0.0,0.0,0.0,0.0,0.0,0.0,0.0,0.0,-2.2215,0.0,0.0,0.0,0.0,0.0,0.0,0.0,0.0,0.0,0.0,0.0,0.0,0.0,0.0,0.0,0.0,0.0,0.0,0.0,0.0,0.0,0.0,0.0,0.0,0.0,0.0,0.0,0.0,0.0,0.0,0.0,0.0,0.0,0.0,0.0,0.0,0.0,0.0,0.0,0.0,0.0,-2.3883,-2.1769,-2.0314,-2.1092,-2.1204,-2.0636,-1.9249,-1.8995,-1.9215,-1.9951,-1.9773,0.0,0.0,0.0,0.0,0.0,0.0,0.0,0.0,0.0,0.0,0.0,0.0,0.0,0.0,0.0,0.0,0.0,0.0,0.0,0.0,0.0,0.0,0.0,0.0,0.0,0.0,0.0,0.0,0.0,0.0,0.0,0.0,0.0,0.0,0.0,0.0,0.0,0.0,0.0,0.0,0.0,0.0,0.0,0.0,0.0,0.0,0.0,0.0,0.0,0.0,0.0,0.0,0.0,0.0,0.0,0.0,0.0,0.0,0.0,0.0,-2.3275,0.0,0.0,0.0,0.0,0.0,0.0,0.0,0.0,0.0,0.0,0.0,0.0,0.0,0.0,0.0,0.0,0.0,0.0,0.0,0.0,0.0,0.0,0.0,0.0,0.0,0.0,0.0,0.0,0.0,0.0,0.0,0.0,0.0,0.0,0.0,0.0,0.0,0.0,0.0,0.0,-2.3663,-2.1651,-2.0154,-2.0585,-2.0619,-2.0162,-1.8995,-1.8572,-1.8538,-1.8903,-1.9266,0.0,0.0,0.0,0.0,0.0,0.0,0.0,0.0,0.0,0.0,0.0,0.0,0.0,0.0,0.0,0.0,0.0,0.0,0.0,0.0,0.0,0.0,0.0,0.0,0.0,0.0,0.0,0.0,0.0,0.0,0.0,0.0,0.0,0.0,0.0,0.0,0.0,0.0,0.0,0.0,0.0,0.0,0.0,0.0,0.0,0.0,0.0,0.0,0.0,0.0,0.0,0.0,0.0,-2.8224,-2.908,-2.9141,-3.0136,-3.0864,-3.1159,-2.8234,-2.64,-2.5452,-2.4423,0.0,0.0,0.0,0.0,0.0,0.0,0.0,0.0,0.0,0.0,0.0,0.0,0.0,0.0,0.0,0.0,0.0,0.0,0.0,0.0,0.0,0.0,0.0,0.0,-2.4871,-2.4002,-2.5244,0.0,0.0,0.0,0.0,0.0,0.0,0.0,0.0,0.0,0.0,0.0,-2.3224,-2.1532,-2.0204,-2.0204,-2.0069,-1.9697,-1.8961,-1.8217,-1.7811,-1.7811,-1.8937,-1.9731,0.0,0.0,0.0,0.0,0.0,0.0,0.0,0.0,0.0,0.0,0.0,0.0,0.0,0.0,0.0,0.0,0.0,0.0,0.0,0.0,0.0,0.0,0.0,0.0,0.0,0.0,0.0,0.0,0.0,0.0,0.0,0.0,-2.2344,-2.3655,0.0,0.0,0.0,0.0,0.0,0.0,0.0,0.0,0.0,0.0,0.0,0.0,0.0,-2.5674,-2.6728,-2.8335,-2.941,-2.9874,-3.2345,-3.3447,-3.3389,-3.4324,-3.4582,-3.4261,-3.3422,0.0,-2.8803,-2.6973,0.0,0.0,0.0,0.0,0.0,0.0,0.0,0.0,0.0,0.0,0.0,0.0,0.0,0.0,0.0,0.0,0.0,0.0,0.0,0.0,0.0,0.0,-2.4441,-2.5733,-2.5362,-2.4807,0.0,-2.5017,-2.4875,-2.4806,-2.4746,0.0,0.0,0.0,0.0,0.0,0.0,0.0,-2.3291,-2.2006,-2.1025,-2.1025,-2.0433,-1.9697,-1.8961,-1.8217,-1.7811,-1.7811,-1.7974,-1.865,-1.9951,-2.0373,0.0,0.0,0.0,0.0,0.0,0.0,0.0,0.0,0.0,0.0,0.0,0.0,0.0,0.0,0.0,0.0,0.0,0.0,0.0,0.0,0.0,0.0,0.0,0.0,0.0,0.0,0.0,0.0,0.0,-2.2185,-2.4073,-2.3795,-2.4481,-2.4438,0.0,0.0,0.0,0.0,0.0,0.0,0.0,0.0,0.0,-2.6666,-2.7808,-2.88,-2.9578,-3.0633,-3.1415,-3.2027,-3.4292,-3.5377,-3.5384,-3.7002,-3.763,-3.7428,-3.7205,-3.5904,-3.3752,-3.0922,-2.9195,-2.8218,0.0,0.0,0.0,0.0,-2.6617,-2.6348,-2.6797,-2.6213,-2.5375,-2.5974,0.0,0.0,0.0,0.0,0.0,0.0,0.0,0.0,0.0,0.0,-2.5242,-2.6152,-2.5783,-2.5308,-2.5367,-2.492,-2.4417,0.0,-2.4139,-2.4523,-2.5245,0.0,0.0,0.0,0.0,-2.2733,-2.3866,-2.2389,-2.1373,-2.1769,-2.1126,-2.0365,-1.9587,-1.8843,-1.842,-1.842,-1.8031,-1.8099,-1.8735,-1.9853,-2.1147,0.0,0.0,0.0,0.0,0.0,0.0,0.0,0.0,0.0,0.0,0.0,0.0,0.0,0.0,0.0,0.0,0.0,0.0,0.0,0.0,0.0,0.0,0.0,0.0,0.0,0.0,0.0,0.0,-2.42,-2.5716,-2.4309,-2.6096,-2.6691,0.0,0.0,0.0,0.0,0.0,0.0,-2.6841,-2.8323,-2.9227,-2.9365,-3.0733,-3.1712,-3.224,-3.2654,-3.3398,-3.4392,-3.5737,-3.6763,-3.731,-3.8767,-3.9265,-3.9017,-3.9265,-3.8698,-3.7257,-3.431,-3.2161,-3.0776,-3.0283,-2.9564,-2.8846,-2.9026,-2.8771,-2.8412,-2.9101,-2.8353,-2.7141,-2.7305,-2.6692,-2.5764,-2.5076,0.0,0.0,0.0,0.0,-2.5495,-2.5989,-2.6108,-2.6243,-2.6722,-2.6467,-2.6063,-2.5899,-2.5198,-2.4361,0.0,-2.3566,-2.4074,-2.4949,0.0,0.0,0.0,0.0,-2.341,-2.412,-2.2767,-2.1887,-2.226,-2.1634,-2.0957,-2.0365,-1.9621,-1.9181,-1.9181,-1.8674,-1.8323,-1.8229,-1.9677,-2.0737,-2.1294,0.0,0.0,0.0,0.0,0.0,0.0,0.0,0.0,0.0,0.0,0.0,0.0,0.0,0.0,0.0,0.0,0.0,0.0,0.0,0.0,0.0,0.0,0.0,0.0,0.0,0.0,0.0,0.0,0.0,-2.6188,-3.1061,0.0,0.0,0.0,0.0,-2.9342,-2.8933,-2.9202,-3.0306,-3.1411,-3.2265,-3.2805,-3.342,-3.3997,-3.455,-3.4575,-3.5703,-3.7841,-3.7318,-3.8161,-4.0159,-3.9621,-3.8855,-3.7919,-3.8943,-3.8752,-3.7616,-3.6043,-3.4936,-3.4038,-3.2168,-3.1779,-3.2108,-3.0866,-3.0387,-3.0193,-2.9041,-2.8577,-2.8607,-2.922,-2.9385,-2.9205,-2.8547,-2.7889,0.0,0.0,-2.7475,-2.749,-2.7505,-2.752,-2.7535,-2.7565,-2.755,-2.7305,-2.6677,-2.6004,-2.5108,0.0,-2.3152,-2.3442,-2.4601,0.0,-2.4961,-2.5527,-2.5524,-2.4949,-2.363,-2.3359,-2.3038,-2.2378,-2.1634,-2.1187,-2.1153,-2.0416,-1.9934,-1.9934,-1.9917,-1.9714,-1.9328,-2.0085,-2.0854,-2.1562,-2.1892,0.0,0.0,0.0,0.0,0.0,0.0,0.0,0.0,0.0,0.0,0.0,0.0,0.0,0.0,0.0,0.0,0.0,0.0,0.0,0.0,0.0,0.0,0.0,0.0,0.0,0.0,0.0,0.0,-3.1952,-3.481,0.0,-3.4341,-3.4,-3.3629,-3.3138,-3.3526,-3.3862,-3.3746,-3.4487,-3.4977,-3.5177,-3.5378,-3.5579,-3.5768,-3.6199,-3.6783,-3.7617,-3.8042,-3.8609,-3.9393,-3.9401,-3.9177,-3.887,-3.9265,-3.9177,-3.8796,-3.8251,-3.736,-3.6252,-3.516,-3.4337,-3.3724,-3.323,-3.2796,-3.2302,-3.1435,-3.0851,-3.0313,-2.928,-2.8652,-2.8248,-2.8008,-2.7769,-2.7715,-2.8113,-2.8233,-2.8323,-2.8757,-2.8547,-2.8233,-2.8233,-2.7889,-2.7275,-2.6198,-2.5779,-2.5182,-2.3764,-2.3308,-2.349,-2.4365,-2.4026,-2.3951,-2.4944,-2.4663,-2.4495,-2.4782,-2.3985,-2.3477,-2.368,-2.2632,-2.1904,-2.1904,-2.1211,-2.0771,-2.0771,-2.0297,-1.9951,-1.9805,-2.0257,-2.0787,-2.134,-2.1615,-2.1856,0.0,0.0,0.0,0.0,0.0,0.0,0.0,0.0,0.0,0.0,0.0,0.0,0.0,0.0,0.0,0.0,0.0,0.0,0.0,0.0,0.0,0.0,0.0,0.0,0.0,0.0,-3.4808,-3.5782,-3.8308,-3.9526,-3.8444,-3.8073,-3.7845,-3.7552,-3.7925,-3.7945,-3.7652,-3.7768,-3.7872,-3.7872,-3.7703,-3.7599,-3.7599,-3.8007,-3.8411,-3.8719,-3.895,-3.9252,-3.9638,-3.9491,-3.9424,-3.9424,-3.9424,-3.9424,-3.9424,-3.9424,-3.8886,-3.8018,-3.7389,-3.6582,-3.5744,-3.531,-3.4876,-3.4382,-3.3484,-3.2602,-3.1659,-3.0342,-2.946,-2.8906,-2.8906,-2.8906,-2.9011,-2.946,-2.9594,-2.9594,-2.9579,-2.9265,-2.8816,-2.8368,-2.7739,-2.7006,-2.6123,-2.56,-2.5016,-2.4118,-2.3655,-2.3595,-2.4271,-2.3881,-2.3856,-2.5048,-2.4773,-2.4646,-2.5156,-2.4374,-2.3765,-2.3748,-2.2885,-2.231,-2.231,-2.2073,-2.182,-2.1583,-2.1312,-2.0962,-2.0559,-2.0986,-2.1383,-2.1692,-2.1283,-2.2126,-2.4331,0.0,0.0,0.0,0.0,0.0,0.0,0.0,0.0,0.0,0.0,0.0,0.0,0.0,0.0,0.0,0.0,0.0,0.0,0.0,0.0,0.0,0.0,0.0,-3.2302,-3.5798,-3.8221,-3.7579,-4.1562,-4.3419,-4.0891,-4.1448,-4.2172,-4.2666,-4.1719,-4.1369,-4.1862,-4.1204,-4.0872,-4.0872,-4.0203,-3.9899,-3.9899,-3.9899,-4.049,-4.1573,-4.0334,-4.031,-4.1339,-4.0038,-3.9439,-3.9424,-3.9424,-3.9424,-3.9424,-3.9424,-3.9409,-3.932,-3.8646,-3.8377,-3.8212,-3.6956,-3.6462,-3.6237,-3.4906,-3.3589,-3.2512,-3.2497,-3.2048,-3.1482,-3.1482,-3.1482,-3.1482,-3.1482,-3.1482,-3.124,-2.9939,-2.9594,-2.925,-2.797,-2.7096,-2.6617,-2.6572,-2.5555,-2.4597,-2.4567,-2.4059,-2.3752,-2.4282,-2.4389,-2.4736,-2.5815,-2.5977,0.0,-2.4698,-2.4557,-2.3985,-2.2564,-2.2395,-2.2361,-2.2344,-2.2987,-2.3088,-2.2361,-2.297,-2.2828,-2.1675,-2.2318,-2.2681,-2.2698,-2.1033,-2.1967,-2.5609,0.0,0.0,0.0,0.0,0.0,0.0,0.0,0.0,0.0,0.0,0.0,0.0,0.0,0.0,0.0,0.0,0.0,0.0,0.0,0.0,0.0,0.0,-3.6494,-3.5927,-3.8884,-4.1704,-4.3568,-4.5347,-4.6381,-4.6142,-4.5903,-4.5461,-4.47,-4.4328,-4.3842,-4.3072,-4.1998,-4.1446,-4.1446,-4.0438,-3.9899,-3.9899,-4.0746,-4.1253,-4.1587,-4.163,-4.1588,-4.1354,-4.0502,-3.9873,-3.9424,-3.9424,-3.9424,-3.9424,-3.9424,-3.9125,-3.8661,-3.8467,-3.8093,-3.7584,-3.6776,-3.5863,-3.4906,-3.4053,-3.3215,-3.2437,-3.1958,-3.1616,-3.1482,-3.1482,-3.1482,-3.1482,-3.1482,-3.1482,-3.1345,-3.0477,-2.9924,-2.937,-2.8517,-2.7799,-2.7036,-2.6078,-2.56,-2.5061,-2.4073,-2.3729,-2.3638,-2.3794,-2.3837,-2.4184,-2.5259,-2.5411,0.0,-2.6034,-2.5625,-2.5135,-2.4746,-2.4205,-2.3663,-2.3139,-2.3274,-2.3088,-2.2361,-2.2496,-2.2456,-2.2123,-2.2291,-2.2643,-2.321,-2.3772,-2.4563,0.0,0.0,0.0,0.0,0.0,0.0,0.0,0.0,0.0,0.0,0.0,0.0,0.0,0.0,0.0,0.0,0.0,0.0,0.0,0.0,0.0,0.0,-3.8751,-4.0606,-4.1026,-4.2438,-4.4255,-4.6446,-4.707,-4.7459,-4.7833,-4.7534,-4.7019,-4.6255,-4.6166,-4.5869,-4.5115,-4.3913,-4.3226,-4.3226,-4.2009,-4.1351,-4.1351,-4.1947,-4.229,-4.2275,-4.206,-4.1758,-4.1354,-4.0412,-3.9783,-3.9424,-3.9424,-3.9424,-3.9424,-3.9424,-3.9185,0.0,0.0,0.0,0.0,0.0,-3.5639,-3.4427,-3.4038,-3.3305,-3.2452,-3.2078,-3.1764,-3.1482,-3.1482,-3.1482,-3.1482,-3.1482,-3.1482,-3.1315,-3.0357,-2.9849,-2.934,-2.8397,-2.7649,-2.6946,-2.6183,-2.5585,-2.4971,-2.4178,-2.3789,0.0,-2.3595,-2.3595,-2.3948,-2.5028,-2.5221,-2.5447,-2.6168,-2.5879,-2.549,-2.5169,-2.4746,-2.4337,-2.3883,-2.4137,0.0,0.0,0.0,-2.3697,-2.3697,-2.3697,0.0,0.0,0.0,-2.6065,-2.6065,0.0,0.0,0.0,-2.6691,-2.6691,0.0,0.0,0.0,0.0,0.0,0.0,0.0,0.0,0.0,0.0,0.0,0.0,0.0,0.0,0.0,0.0,-4.1938,-4.4227,-4.6157,-4.5903,-4.5963,-4.716,-4.7309,-4.7309,-4.7309,-4.7309,-4.7309,-4.7309,-4.7309,-4.7309,-4.7309,0.0,0.0,0.0,0.0,-4.3329,-4.3329,-4.3329,-4.3329,-4.3329,-4.2087,-4.1444,-4.1339,-4.0098,-3.9484,-3.9424,-3.9424,-3.9424,-3.9424,-3.9424,-3.9334,-3.914,-3.8512,-3.7838,-3.712,-3.6582,-3.5579,-3.4472,-3.4382,0.0,0.0,-3.2422,-3.2003,-3.1482,-3.1482,-3.1482,-3.1452,-3.1377,-3.1362,-3.112,-2.9804,-2.9475,-2.9146,-2.7874,-2.7066,-2.6572,-2.6497,-2.5495,-2.4567,-2.4477,-2.4029,-2.3595,-2.3595,-2.3595,-2.3948,-2.5028,-2.5221,-2.5334,-2.5664,-2.5727,-2.5473,-2.4828,0.0,0.0,-2.4642,-2.522,-2.5017,-2.3613,-2.4746,-2.549,-2.549,-2.5558,-2.5913,-2.6556,-2.6657,-2.6691,-2.6691,-2.6691,-2.6691,-2.6691,-2.6691,-2.6691,0.0,0.0,0.0,0.0,0.0,0.0,0.0,0.0,0.0,0.0,0.0,0.0,0.0,0.0,0.0,-4.2132,-4.3898,-4.5424,-4.6905,-4.6995,-4.701,-4.7279,-4.7309,-4.7309,-4.7309,-4.7309,-4.7309,-4.7309,-4.7309,-4.7309,-4.7309,-4.6022,-4.5289,-4.5289,-4.4018,-4.3329,-4.3329,-4.3329,-4.3329,-4.3329,0.0,0.0,-4.1354,-4.0561,-3.9918,-3.9424,-3.9424,-3.9424,-3.9424,-3.9424,-3.8781,-3.7778,-3.7644,-3.6896,-3.5863,-3.5744,-3.5175,-3.4397,-3.3858,-3.317,-3.2422,-3.1898,-3.1644,-3.1482,-3.1482,-3.1482,0.0,-3.0866,-3.0702,-3.0402,-2.9116,-2.8786,-2.8592,-2.7769,-2.7066,-2.6437,-2.5914,-2.5181,-2.4418,-2.3909,-2.3684,-2.3595,-2.3595,-2.3595,-2.3948,-2.5028,-2.5221,-2.5512,-2.6387,-2.6488,-2.642,-2.6285,-2.6268,-2.6031,-2.5439,-2.5524,-2.522,-2.4323,-2.4543,-2.4695,-2.4695,-2.5287,-2.5676,-2.5812,-2.6387,-2.6691,-2.6691,-2.6691,-2.6691,-2.6691,-2.6691,-2.6691,0.0,0.0,0.0,0.0,0.0,0.0,0.0,0.0,0.0,0.0,0.0,-3.5931,0.0,0.0,-4.2162,-4.4451,-4.5663,-4.6651,-4.7653,-4.7519,-4.7309,-4.7309,-4.7309,-4.7309,-4.7309,-4.7309,-4.7309,-4.7309,-4.6995,-4.6815,-4.6815,-4.5544,-4.4811,-4.4811,-4.3838,-4.3329,-4.3329,-4.3015,-4.2851,-4.2836,-4.1848,-4.1205,-4.0876,-4.0217,-3.9723,-3.9424,-3.9424,-3.9424,-3.9394,-3.905,-3.8317,-3.7375,-3.706,-3.6357,-3.5504,-3.5504,-3.4861,-3.3933,-3.3604,-3.2841,-3.1973,-3.1586,-3.1482,-3.1482,-3.1482,-3.1482,-3.1407,-3.112,-3.0776,-3.0283,-2.934,-2.8846,-2.8427,-2.779,-2.732,-2.6991,-2.6662,-2.6078,-2.5405,-2.4732,-2.4343,-2.3999,-2.3655,-2.3595,-2.3879,-2.4672,-2.5259,-2.5799,-2.6297,-2.6539,-2.6691,-2.6691,-2.6691,-2.6539,-2.6184,-2.5812,-2.5494,-2.528,-2.5108,-2.5203,-2.5575,-2.5947,-2.615,-2.615,-2.6505,-2.6691,-2.6691,-2.6691,-2.6691,-2.6691,-2.6691,-2.6691,0.0,0.0,0.0,0.0,0.0,0.0,0.0,0.0,-3.3445,-3.5551,-3.6968,-3.8576,-4.095,-4.2776,-4.4526,-4.6232,-4.6965,-4.7489,-4.8012,-4.7638,-4.7249,-4.713,-4.7234,-4.7309,-4.7309,-4.7189,-4.7115,-4.7115,-4.6501,-4.6127,-4.6127,-4.4975,-4.4317,-4.4317,-4.3673,-4.3329,-4.3329,-4.2821,-4.2491,-4.2434,-4.116,-4.0531,-4.0382,-3.9723,-3.9424,-3.9424,-3.9424,-3.9424,-3.9364,-3.8542,-3.7883,-3.7345,-3.6582,-3.5968,-3.5504,-3.5504,-3.4651,-3.3499,-3.3499,-3.2632,-3.1482,-3.1482,-3.1482,-3.1482,-3.1482,-3.1482,-3.1452,-3.1317,-3.0851,-3.0178,-2.9549,-2.8906,-2.8263,-2.7709,-2.752,-2.743,-2.743,-2.6856,-2.6243,-2.5704,-2.5076,-2.4403,-2.3894,-2.3771,-2.3906,-2.4348,-2.5144,-2.5742,-2.5852,-2.6175,-2.6385,-2.6385,-2.6385,-2.6385,-2.6385,-2.5849,-2.5663,-2.5964,-2.5798,-2.5983,-2.6674,-2.6691,-2.6691,-2.6691,-2.6691,-2.6691,-2.6691,-2.6691,-2.6691,-2.6691,-2.6691,-2.6691,-2.3251,-2.3954,0.0,-3.0674,-3.0893,-3.1469,0.0,0.0,-3.903,-4.1343,-4.2651,-4.3698,-4.4601,-4.5424,-4.6262,-4.707,-4.7249,-4.7339,-4.7399,-4.7354,-4.7085,-4.6501,-4.695,-4.7309,-4.7309,-4.677,-4.6426,-4.6426,-4.5798,-4.5409,-4.5409,-4.4721,-4.4317,-4.4317,-4.3673,-4.3329,-4.3329,-4.3254,-4.294,-4.2434,-4.1624,-4.0965,-4.0382,-3.9723,-3.9424,-3.9424,-3.9424,-3.9424,-3.932,-3.8033,-3.7479,-3.7285,-3.6088,-3.5564,-3.5504,-3.5504,-3.4651,-3.3499,-3.3499,-3.2632,-3.1482,-3.1482,-3.1482,-3.1482,-3.1482,-3.1482,-3.1347,-3.0791,-3.0163,-2.9535,-2.8876,-2.8203,-2.7715,-2.764,-2.7126,-2.6692,-2.6692,-2.6183,-2.5689,-2.5615,-2.5076,-2.4567,-2.4477,-2.4402,-2.4307,-2.4389,-2.4511,-2.4752,-2.5221,-2.5335,-2.5373,-2.5373,-2.5373,-2.5373,-2.5373,-2.5293,-2.5443,-2.5961,-2.5966,-2.6179,-2.6691,-2.6691,-2.6691,-2.6691,-2.6691,-2.6691,-2.6691,-2.6691,-2.6691,-2.6691,-2.6691,-2.6691,-2.7498,0.0,0.0,0.0,-3.4373,-3.609,-3.8351,-4.0276,-4.1865,-4.2815,-4.4016,-4.5142,-4.5683,-4.5815,-4.6123,0.0,-4.7309,-4.7309,-4.7309,-4.6636,-4.6037,-4.5753,-4.5289,-4.5289,-4.6067,-4.6262,-4.6322,-4.6322,-4.6052,-4.5723,-4.5319,-4.4661,-4.4137,-4.3748,-4.3479,-4.3329,-4.3329,-4.2566,-4.2058,-4.1773,-4.0726,-4.0098,-3.9828,-3.9544,-3.9424,-3.9424,-3.9424,-3.9424,-3.932,-3.7958,-3.7404,-3.7285,-3.6013,-3.5504,-3.5459,-3.5055,-3.4307,-3.344,-3.3051,-3.2317,-3.1482,-3.1482,-3.1482,-3.1482,-3.1482,-3.1482,-3.1422,-3.118,-3.0627,-2.9968,-2.934,-2.8667,-2.8068,-2.7715,-2.7415,-2.7156,-2.7156,-2.6946,-2.6632,-2.6258,-2.5959,-2.5525,-2.4716,-2.455,-2.4377,-2.3967,-2.4471,-2.4816,-2.4752,-2.5028,-2.5221,-2.5221,-2.5221,-2.5221,-2.5221,-2.5503,-2.5762,-2.5977,-2.6262,-2.6521,-2.6691,-2.6691,-2.6691,-2.6691,-2.6691,-2.6691,-2.6691,-2.6691,-2.6691,-2.6691,-2.6691,-2.6691,-3.0105,0.0,0.0,-3.4774,-3.7951,-4.0628,-4.0092,-4.2272,-4.4257,-4.3821,-4.4401,-4.4911,-4.5196,-4.4676,-4.4726,-4.6313,-4.6399,-4.6441,-4.6924,-4.6037,-4.5155,-4.4796,-4.3748,-4.3374,-4.4137,-4.499,-4.5574,-4.5753,-4.5603,-4.5274,-4.4781,-4.4302,-4.3823,-4.3344,-4.3165,-4.306,-4.306,-4.1938,-4.1294,-4.11,-4.0142,-3.9589,-3.9424,-3.9424,-3.9424,-3.9424,-3.9424,-3.932,-3.905,-3.7883,-3.73,-3.7045,-3.5938,-3.5504,-3.5429,-3.4726,-3.4068,-3.3395,-3.2736,-3.2078,-3.1482,-3.1482,-3.1482,-3.1482,-3.1482,-3.1482,-3.1482,-3.1482,-3.1046,-3.0402,-2.9953,-2.922,-2.8472,-2.7979,-2.7709,-2.7625,-2.7625,-2.7625,-2.749,-2.6961,-2.6722,-2.6288,-2.533,-2.5016,-2.4672,-2.3984,-2.4518,-2.4811,-2.4256,-2.4511,-2.4752,-2.4752,-2.4894,-2.4973,-2.4973,-2.5449,-2.5852,-2.5997,-2.6332,-2.6539,-2.6691,-2.6691,-2.6691,-2.6691,-2.6691,-2.6691,-2.6691,-2.6691,-2.6691,-2.6691,-2.6691,-2.6691,0.0,0.0,-3.5208,-3.7847,-4.1194,-4.395,-4.4776,-4.6038,-4.6781,-4.5525,-4.4318,-4.3418,-4.2944,-4.1925,-4.1938,-4.4294,-4.4226,-4.4398,-4.6077,-4.5738,-4.4825,-4.3539,-4.2806,-4.2162,0.0,-4.2671,-4.3688,-4.4332,-4.3778,-4.3419,-4.3389,-4.3374,-4.3359,-4.3329,-4.2716,-4.2387,-4.2387,-4.1713,-4.1055,-4.0427,-4.0382,-4.0038,-3.9424,-3.9424,-3.9424,-3.9424,-3.9424,-3.9035,-3.8362,-3.7689,-3.706,-3.6447,-3.5774,-3.5504,-3.5429,-3.4726,-3.4068,-3.3395,-3.2736,-3.2078,-3.1482,-3.1482,-3.1482,-3.1482,-3.1482,-3.1482,-3.1482,-3.1482,-3.1046,-3.0507,-3.0477,-2.9535,-2.8592,-2.8577,-2.8053,-2.7625,-2.7625,-2.7625,-2.756,-2.7595,-2.7021,-2.6572,-2.6542,-2.6004,-2.536,-2.4642,-2.4597,-2.4402,-2.3728,-2.3638,-2.3638,-2.3638,-2.4116,-2.443,-2.443,-2.491,-2.5449,-2.5977,-2.6013,-2.6227,-2.6691,-2.6691,-2.6691,-2.6691,-2.6691,-2.6691,-2.6691,-2.6691,-2.6691,-2.6691,-2.6691,-2.6691,-3.407,0.0,-4.0105,-4.1443,-4.3977,-4.5738,-4.419,-4.5313,-4.5661,-4.2321,-4.1139,-4.0399,-3.9402,-3.9166,-3.9831,-4.197,-4.3701,-4.5,-4.552,-4.5065,-4.4152,-4.2851,-4.1728,0.0,0.0,0.0,0.0,-4.3614,-4.3868,-4.3988,-4.3988,-4.3988,-4.3584,-4.2716,-4.2476,-4.2147,-4.1713,-4.1055,-4.0621,-4.0397,-3.9963,-3.9634,-3.9424,-3.9424,-3.9424,-3.9424,-3.9424,-3.9035,-3.8347,-3.7689,-3.7045,-3.6417,-3.5759,-3.5504,-3.537,-3.4247,-3.3679,-3.3395,-3.2736,-3.2078,-3.1482,-3.1482,-3.1482,-3.1482,-3.1482,-3.1482,-3.1482,-3.1482,-3.136,-3.0986,-3.0118,-2.9564,-2.9146,-2.8712,-2.8068,-2.7694,-2.8158,-2.7889,-2.7625,-2.7625,-2.7445,-2.7096,-2.6662,-2.6408,-2.5884,-2.4792,-2.4238,-2.3864,-2.3625,-2.3595,-2.3767,-2.4074,-2.4266,-2.4712,-2.5411,-2.5615,-2.5961,-2.6436,-2.647,-2.6556,-2.6691,-2.6691,-2.6691,-2.6691,-2.6691,-2.6691,-2.6691,-2.6691,-2.6691,-2.6691,-2.6691,-2.6691,-3.6707,-4.0295,-4.3049,-4.3067,-4.5195,-4.6466,-4.3386,-4.3674,-4.3412,-3.9092,-3.7762,-3.6856,-3.5292,-3.5154,-3.6119,-3.8688,-4.0719,-4.2471,-4.4077,-4.3673,-4.3045,-4.2432,-4.1414,-4.0756,0.0,0.0,0.0,-4.2581,-4.3464,-4.3868,-4.3629,-4.3838,-4.3479,-4.2387,-4.2357,-4.1938,-4.104,-4.0606,-4.0277,-4.0053,-3.9619,-3.9424,-3.9424,-3.9424,-3.9424,-3.9409,-3.9155,-3.8661,-3.7988,-3.7345,-3.6701,-3.6088,-3.5669,-3.5504,-3.537,-3.4262,-3.3694,-3.3365,-3.2482,-3.1884,-3.1482,-3.1482,-3.1482,-3.1482,-3.1482,-3.1482,-3.1482,-3.1482,-3.1482,-3.1345,-3.0492,-3.0103,-2.9744,-2.9101,-2.8607,-2.8278,-2.8233,-2.8068,-2.7874,-2.767,-2.7625,-2.749,-2.7021,-2.6557,-2.5959,-2.5106,-2.4193,-2.3681,-2.3879,-2.3879,-2.4074,-2.4632,-2.4871,-2.5259,-2.5924,-2.6156,-2.6367,-2.6691,-2.6691,-2.6691,-2.6691,-2.6691,-2.6691,-2.6691,-2.6691,-2.6691,-2.6691,-2.6691,-2.6691,-2.6691,-2.6691,-2.6691,-3.7512,-4.1082,-4.4285,-4.3237,-4.5231,-4.6306,-4.2454,-4.1518,-4.0329,-3.616,-3.4412,-3.2943,0.0,-3.0188,-3.1229,-3.4893,-3.5875,-3.7667,-4.1831,-4.1908,-4.1773,0.0,0.0,0.0,0.0,0.0,0.0,-4.1324,0.0,-4.2985,-4.2432,-4.297,-4.2985,-4.2327,-4.2359,-4.1654,-4.0367,-4.0352,-4.0038,-3.9424,-3.9424,-3.9424,-3.9424,-3.9379,-3.9394,-3.9379,-3.8646,-3.7988,-3.736,-3.6746,-3.6088,-3.5439,-3.5504,-3.5439,-3.527,-3.4681,-3.4038,-3.3244,-3.193,-3.1482,-3.1482,-3.1482,-3.1482,-3.1482,-3.1482,-3.1482,-3.1482,-3.1482,-3.1482,-3.1467,-3.1437,-3.1001,-3.0357,-2.9759,-2.9609,-2.9235,-2.8,-2.8173,-2.8397,-2.7709,-2.7625,-2.7625,-2.7625,-2.6512,-2.5644,-2.5615,-2.4537,-2.3882,-2.4348,-2.4389,-2.4632,-2.5182,-2.5689,-2.6013,-2.6049,-2.6436,-2.6691,-2.6691,-2.6691,-2.6691,-2.6691,-2.6691,-2.6691,-2.6691,-2.6691,-2.6691,-2.6691,-2.6691,-2.6691,-2.6691,-2.6691,-2.6691,-4.2541,-4.5253,-4.7165,-4.6933,-4.6803,-4.5831,-4.2509,-4.0181,-3.7437,-3.3335,-3.0922,-2.9026,0.0,-2.9059,-3.1461,-3.3421,-3.7243,0.0,-4.2162,-4.3479,0.0,-4.2506,0.0,-4.2447,-4.1474,-4.1669,0.0,0.0,-4.1683,-4.2237,-4.3045,-4.2776,-4.2312,-4.1654,-4.116,-4.0502,-3.9679,-3.9664,-3.9589,-3.9424,-3.9424,-3.9424,-3.9394,-3.8886,-3.8931,-3.9349,-3.8167,-3.7569,-3.736,-3.6746,-3.5644,-3.4461,-3.5213,-3.4624,-3.3336,-3.3623,-3.3232,-3.2363,-3.1723,-3.1482,-3.1482,-3.1482,-3.1482,-3.1482,-3.1482,-3.1482,-3.1482,-3.1482,-3.1482,-3.1362,-3.0896,-3.0642,-3.0462,-3.0313,-2.9924,-2.949,-2.9146,-2.8816,-2.8397,-2.7709,-2.7625,-2.7625,-2.7625,-2.6886,-2.6183,-2.5689,-2.5227,-2.4825,-2.4451,-2.4389,-2.4752,-2.5689,-2.5924,-2.6156,-2.647,-2.6624,-2.6691,-2.6691,-2.6691,-2.6691,-2.6691,-2.6691,-2.6691,-2.6691,-2.6691,-2.6691,-2.6691,-2.6691,-2.6691,-2.6691,-2.6691,-2.6691,-4.517,-4.7204,-4.8447,-4.6993,-4.5723,-4.3814,-3.9631,-3.6687,-3.3739,-2.9669,-2.7682,0.0,-2.4469,-2.685,0.0,0.0,0.0,0.0,-4.116,-4.2447,-4.306,0.0,-4.3105,0.0,-4.2312,-4.2312,-4.2327,0.0,-4.2237,-4.2432,-4.288,-4.2551,-4.2058,-4.1399,-4.1025,-4.0516,-3.9858,-3.9574,-3.9424,-3.9424,-3.9424,-3.9424,-3.9394,-3.8706,-3.8601,-3.8901,0.0,-3.7,-3.6956,-3.5866,-3.4864,-3.4027,-3.4192,-3.3822,-3.3169,-3.2954,-3.2819,-3.2566,-3.1797,-3.1482,-3.1482,-3.1482,-3.1482,-3.1482,-3.1482,-3.1482,-3.1482,-3.1482,-3.1482,-3.1377,-3.1061,-3.0956,-3.0881,-3.0567,-3.0477,-3.0283,-2.9699,-2.928,-2.8742,-2.7805,-2.7625,-2.7625,-2.7625,-2.7021,-2.6363,-2.5704,-2.5304,-2.4912,-2.4441,-2.4592,-2.5067,-2.5924,-2.6013,-2.6191,-2.6657,-2.6691,-2.6691,-2.6691,-2.6691,-2.6691,-2.6691,-2.6691,-2.6691,-2.6691,-2.6691,-2.6691,-2.6691,-2.6691,-2.6691,-2.6691,-2.6691,-2.6691,-4.6352,-4.7833,-4.8474,-4.5387,-4.3509,-4.1055,-3.5955,-3.2739,-2.9892,-2.6151,0.0,-2.4017,-2.2485,-2.4355,-2.7059,-2.9692,0.0,-3.5031,-3.9488,-4.0412,-4.1294,-4.3,-4.3359,-4.3434,-4.3344,-4.2746,-4.2596,-4.3165,-4.312,-4.2865,-4.2387,-4.2359,-4.1893,-4.1145,-4.1115,-4.0846,-4.0277,-3.9709,-3.9424,-3.9424,-3.9424,-3.9424,-3.9394,-3.8616,-3.8302,-3.8317,-3.6956,-3.6402,-3.6365,-3.4806,-3.4095,-3.3945,-3.3241,-3.331,-3.3665,-3.2681,-3.2742,-3.3168,-3.193,-3.1482,-3.1482,-3.1482,-3.1482,-3.1482,-3.1482,-3.1482,-3.1482,-3.1482,-3.1482,-3.1482,-3.1482,-3.1482,-3.1317,-3.0776,-3.1106,-3.1195,-2.9968,-2.9564,-2.9086,-2.7814,-2.7625,-2.7625,-2.7625,-2.7096,-2.6497,-2.5839,-2.5227,-2.4759,-2.4456,-2.4799,-2.5335,-2.5941,-2.6013,-2.6191,-2.6657,-2.6691,-2.6691,-2.6691,-2.6691,-2.6691,-2.6691,-2.6691,-2.6691,-2.6691,-2.6691,-2.6691,-2.6691,-2.6691,-2.6691,-2.6691,-2.6691,-2.6691,-4.7459,-4.8192,-4.8001,-4.5873,-4.2966,-3.9664,-3.5845,-3.1667,0.0,0.0,-2.3452,-2.2523,-2.1769,-2.342,0.0,-2.865,0.0,0.0,0.0,0.0,-4.2147,0.0,0.0,0.0,0.0,0.0,0.0,0.0,0.0,-4.1908,-4.2419,-4.1848,-4.0995,-3.9798,-3.9768,-3.9709,-3.9589,-3.9484,-3.9424,-3.9424,-3.9424,-3.9424,-3.9379,-3.8138,-3.7883,-3.8287,-3.6462,0.0,-3.6432,-3.5561,-3.4758,-3.4095,-3.4773,-3.4109,-3.2877,-3.3162,-3.2882,-3.2237,-3.1679,-3.1482,-3.1482,-3.1482,-3.1482,-3.1482,-3.1482,-3.1482,-3.1482,-3.1482,-3.1482,-3.1482,-3.1482,-3.1482,-3.1437,-3.1317,-3.145,-3.1315,-3.0507,-2.952,-2.8532,-2.7724,-2.7625,-2.7625,-2.7625,-2.752,-2.7186,-2.6512,-2.6244,-2.571,-2.4701,-2.4553,-2.4894,-2.5888,-2.6013,-2.6191,-2.6657,-2.6691,-2.6691,-2.6691,-2.6691,-2.6691,-2.6691,-2.6691,-2.6691,-2.6691,-2.6691,-2.6691,-2.6691,-2.6691,-2.6691,-2.6691,-2.6691,-2.6691,-4.7414,-4.8027,-4.7644,-4.4829,-4.1491,-3.7648,-3.2922,0.0,0.0,0.0,-2.1832,-2.138,-2.1104,0.0,0.0,0.0,0.0,0.0,0.0,0.0,0.0,0.0,0.0,0.0,0.0,0.0,0.0,0.0,0.0,-4.1519,-4.1833,-4.1235,-4.0427,-3.9454,-3.9424,-3.9424,-3.9424,-3.9424,-3.9424,-3.9424,-3.905,-3.8886,-3.8841,-3.7524,-3.7105,-3.733,-3.6058,-3.5684,-3.5872,-3.5038,-3.4461,-3.4027,-3.3973,-3.3754,-3.335,-3.3267,-3.3128,-3.275,-3.2184,-3.1824,-3.1482,-3.1482,-3.1482,-3.1482,-3.1482,-3.1482,-3.1482,-3.1482,-3.1482,-3.1482,-3.1482,-3.1482,-3.1482,-3.1482,-3.1255,-3.0821,-3.0163,-2.928,-2.8397,-2.7709,-2.7625,-2.7625,-2.7625,-2.7625,-2.735,-2.6692,-2.6542,-2.6182,-2.5226,-2.476,-2.4766,-2.5497,-2.5881,-2.6262,-2.6657,-2.6691,-2.6691,-2.6691,-2.6691,-2.6691,-2.6691,-2.6691,-2.6691,-2.6691,-2.6691,-2.6691,-2.6691,-2.6691,-2.6691,-2.6691,-2.6691,-2.6691,-4.6535,-4.7354,-4.7066,-4.3579,-4.0139,-3.6083,-3.0361,-2.6413,0.0,0.0,-2.0718,-2.0718,-2.0718,0.0,0.0,0.0,0.0,0.0,0.0,0.0,0.0,0.0,0.0,0.0,0.0,0.0,0.0,0.0,0.0,0.0,-4.116,-4.0546,-3.9948,-3.9439,-3.9424,-3.9424,-3.9424,-3.9424,-3.9424,-3.9409,-3.8871,-3.8542,-3.8347,-3.721,-3.6611,-3.6447,-3.5789,-3.5504,-3.5439,-3.4624,-3.4312,-3.4245,-3.3533,-3.3671,-3.424,-3.363,-3.3456,-3.3395,-3.2736,-3.2078,-3.1482,-3.1482,-3.1482,-3.1482,-3.1482,-3.1482,-3.1482,-3.1482,-3.1482,-3.1482,-3.1482,-3.1482,-3.1482,-3.1482,-3.112,-3.0507,-2.9744,-2.9175,-2.8562,-2.779,-2.7625,-2.7625,-2.7625,-2.7625,-2.7395,-2.6871,-2.6677,-2.6363,-2.5689,-2.5243,-2.505,-2.5185,-2.5655,-2.6156,-2.6521,-2.6657,-2.6691,-2.6691,-2.6691,-2.6691,-2.6691,-2.6691,-2.6691,-2.6691,-2.6691,-2.6691,-2.6691,-2.6691,-2.6691,-2.6691,-2.6691,-2.6691,-4.4712,-4.5978,-4.5903,-4.3299,-3.979,-3.569,-3.0739,0.0,0.0,-2.1184,-2.0718,-2.0718,-2.0718,-2.0418,-2.0835,0.0,0.0,-2.6274,0.0,0.0,0.0,0.0,0.0,0.0,0.0,0.0,0.0,0.0,0.0,0.0,-4.0457,-3.9873,-3.9484,-3.9424,-3.9424,-3.9424,-3.9424,-3.9424,-3.9424,-3.9424,-3.9349,-3.899,-3.8362,-3.7644,-3.7015,-3.6447,-3.5789,-3.5504,0.0,-3.5424,-3.5359,-3.5359,-3.5279,-3.5279,-3.527,-3.4599,-3.3991,-3.3395,-3.2736,-3.2078,-3.1482,-3.1482,-3.1482,-3.1482,-3.1482,-3.1482,-3.1482,-3.1482,-3.1482,-3.1482,-3.1482,-3.1482,-3.1482,-3.1482,-3.1422,-3.1106,-2.9849,-2.9535,-2.9116,-2.7865,-2.7625,-2.7625,-2.7625,-2.7625,-2.7595,-2.7535,-2.6976,-2.6363,-2.5689,-2.5986,-2.5991,-2.5288,-2.5246,-2.5492,-2.6013,-2.6436,-2.6691,-2.6691,-2.6691,-2.6691,-2.6691,-2.6691,-2.6691,-2.6691,-2.6691,-2.6691,-2.6691,-2.6691,-2.6691,-2.6691,-2.6691,-2.6691,-4.0969,-4.2975,-4.376,-4.0727,-3.7092,-3.3056,-2.8769,0.0,-2.1644,-2.0401,-2.015,-2.015,-2.015,-1.9962,-2.0243,-2.1519,-2.2074,0.0,0.0,0.0,0.0,0.0,0.0,0.0,0.0,0.0,0.0,0.0,0.0,0.0,-3.9798,-3.9574,-3.9424,-3.9424,-3.9424,-3.9424,-3.9424,-3.9005,-3.9005,-3.9409,-3.8212,-3.7704,-3.7764,-3.6731,-3.6133,-3.5878,-3.5624,-3.5133,0.0,-3.5279,-3.5133,-3.4691,-3.5279,-3.5504,-3.5429,-3.4726,-3.4068,-3.3455,-3.32,-3.2422,-3.1541,-3.2003,-3.1854,-3.1482,-3.1482,-3.1482,-3.1482,-3.1482,-3.1482,-3.1482,-3.1482,-3.1482,-3.1482,-3.1482,-3.121,-3.0776,-3.0253,-2.9535,-2.8831,-2.8293,-2.7859,-2.7625,-2.7625,-2.7625,-2.7625,-2.7625,-2.735,-2.7229,-2.7328,-2.7196,-2.6904,-2.6518,-2.6299,-2.6258,-2.64,-2.659,-2.6691,-2.6691,-2.6691,-2.6691,-2.6691,-2.6691,-2.6691,-2.6691,-2.6691,-2.6691,-2.6691,-2.6691,-2.6691,-2.6691,-2.6691,-2.6691,-3.7077,-3.931,-4.045,-3.7892,-3.4353,-3.0512,0.0,0.0,-2.0555,-1.9924,-1.9798,-1.9798,-1.9798,-1.9798,-2.0003,-2.0696,-2.093,-2.221,0.0,0.0,0.0,0.0,0.0,0.0,0.0,0.0,0.0,0.0,0.0,0.0,-3.9424,-3.9424,-3.9424,-3.9424,-3.9424,-3.9424,-3.9424,-3.8736,-3.8631,-3.9095,-3.7524,-3.6896,-3.7105,-3.6207,-3.5684,-3.5504,-3.5504,-3.492,0.0,-3.5067,-3.4802,-3.3835,-3.4836,-3.5085,-3.4861,-3.4367,-3.3769,-3.32,-3.32,-3.2467,-3.1556,-3.2078,-3.1855,-3.1482,-3.1482,-3.1482,-3.1482,-3.1482,-3.1482,-3.1482,-3.1482,-3.1482,-3.1482,-3.1482,-3.1165,-3.0702,-3.0313,-2.9669,-2.8996,-2.8412,-2.8068,-2.7814,-2.7655,-2.7625,-2.7625,-2.7625,-2.7625,-2.7735,-2.8137,-2.7767,-2.7431,-2.7251,-2.6902,-2.6623,-2.6503,-2.6624,-2.6691,-2.6691,-2.6691,-2.6691,-2.6691,-2.6691,-2.6691,-2.6691,-2.6691,-2.6691,-2.6691,-2.6691,-2.6691,-2.6691,-2.6691,-2.6691,-3.3378,-3.5082,-3.5793,-3.5088,-3.2038,-2.8581,0.0,0.0,-2.0555,-1.9924,-1.9798,-1.9798,-1.9798,-1.9798,-2.0003,-2.0696,-2.1293,0.0,0.0,0.0,0.0,0.0,0.0,0.0,0.0,0.0,0.0,0.0,0.0,0.0,-3.9424,-3.9424,-3.9424,-3.9424,-3.9424,-3.9424,-3.9424,-3.8736,-3.8392,-3.8392,-3.7719,-3.709,-3.6492,-3.6492,-3.6118,-3.5504,-3.5504,-3.492,0.0,-3.5067,-3.4551,-3.3215,-3.414,-3.4083,-3.3514,-3.3499,-3.3095,-3.2527,-3.2527,-3.2093,-3.1482,-3.1482,-3.1482,-3.1482,-3.1482,-3.1482,-3.1482,-3.1482,-3.1482,-3.1482,-3.1482,-3.1482,-3.1482,-3.1482,-3.1467,-3.1165,-2.9864,-3.0058,-2.9909,-2.7964,-2.8128,-2.8368,-2.7679,-2.7625,-2.7625,-2.7625,-2.7625,-2.7554,-2.7504,-2.7427,-2.7303,-2.7115,-2.6564,-2.614,-2.6026,-2.6436,-2.6691,-2.6691,-2.6691,-2.6691,-2.6691,-2.6691,-2.6691,-2.6691,-2.6691,-2.6691,-2.6691,-2.6691,-2.6691,-2.6691,-2.6691,-2.6691,-2.8379,-3.0159,-3.1366,-3.0405,-2.8157,-2.5715,-2.424,-2.1949,-2.0024,-1.9836,-1.9798,-1.9798,-1.9798,-2.0144,-2.0683,-2.1293,-2.2356,0.0,0.0,0.0,0.0,0.0,0.0,0.0,0.0,0.0,0.0,0.0,0.0,-3.9424,-3.9424,-3.9424,-3.9424,-3.9424,-3.9424,-3.9185,-3.8721,-3.8048,-3.7719,-3.7704,-3.6626,-3.6237,-3.6477,-3.6028,-3.5699,-3.5504,-3.5504,-3.492,-3.4095,-3.5067,-3.4787,-3.3806,-3.4821,-3.4756,-3.4113,-3.3664,-3.308,-3.2512,-3.2512,-3.2078,-3.1556,-3.2063,-3.1898,-3.1482,-3.1482,-3.1482,-3.1482,-3.1482,-3.1482,-3.1482,-3.1482,-3.1482,-3.1482,-3.1482,-3.1482,-3.1228,-3.0402,-3.0028,-2.9564,-2.8487,-2.8068,-2.7829,-2.7655,-2.7625,-2.7625,-2.7625,-2.7625,-2.7735,-2.8106,-2.7752,-2.7415,-2.7276,-2.6663,-2.6202,-2.6043,-2.5799,-2.5835,-2.6191,-2.6227,-2.6367,-2.6691,-2.6691,-2.6691,-2.6691,-2.6691,-2.6691,-2.6691,-2.6691,-2.6691,-2.6691,-2.6691,-2.6691,0.0,-2.5835,-2.6904,-2.5801,-2.4386,0.0,0.0,-2.0652,-1.9572,-1.9761,-1.9798,-1.9901,-2.0156,-2.0497,-2.1077,-2.196,-2.278,0.0,0.0,0.0,0.0,0.0,0.0,0.0,0.0,0.0,0.0,0.0,0.0,-3.9305,-3.905,-3.9035,-3.8916,-3.8676,-3.8901,-3.8706,-3.8018,-3.7389,-3.706,-3.7045,-3.5744,-3.5459,-3.6088,-3.5429,-3.525,-3.5504,-3.5504,-3.4787,0.0,-3.4963,-3.4625,-3.3388,-3.4392,-3.4487,-3.3993,-3.3095,-3.2811,-3.2811,-3.2317,-3.2033,-3.1928,-3.2093,-3.1869,-3.1482,-3.1482,-3.1482,-3.1482,-3.1482,-3.1482,-3.1482,-3.1482,-3.1482,-3.1482,-3.1482,-3.1345,-3.1031,-3.0597,-3.0028,-2.9385,-2.8727,-2.8248,-2.7874,-2.767,-2.7625,-2.7625,-2.7625,-2.7625,-2.781,-2.8415,-2.795,-2.7488,-2.7306,-2.6519,-2.5955,-2.5733,-2.5577,-2.5652,-2.5977,-2.6156,-2.6401,-2.6691,-2.6691,-2.6691,-2.6691,-2.6691,-2.6691,-2.6691,-2.6691,-2.6691,-2.6691,-2.6691,-2.6691,0.0,0.0,0.0,0.0,0.0,0.0,0.0,-1.9309,0.0,-1.9585,-1.9723,-1.9965,-2.0597,-2.0795,-2.1286,-2.2477,0.0,0.0,0.0,0.0,0.0,0.0,0.0,0.0,0.0,0.0,0.0,0.0,0.0,-3.899,-3.8347,-3.8317,-3.8018,-3.736,-3.7943,-3.7958,-3.7345,-3.6776,-3.6462,-3.6402,-3.51,-3.4846,-3.5489,-3.4741,-3.4786,0.0,-3.5429,-3.4587,-3.3324,-3.4821,-3.4203,-3.2341,-3.3176,-3.3469,-3.3275,-3.2048,-3.2347,-3.3185,-3.1958,-3.1943,-3.2347,-3.1676,-3.1482,-3.1482,-3.1482,-3.1482,-3.1482,-3.1482,-3.1482,-3.1482,-3.1482,-3.1482,-3.1467,-3.1422,-3.0971,-3.0477,-3.0387,-2.9909,-2.931,-2.8652,-2.8532,-2.8323,-2.7679,-2.7625,-2.7625,-2.7625,-2.7625,-2.781,-2.8367,-2.7913,-2.7463,-2.7184,-2.6241,-2.5482,-2.5178,-2.5615,-2.5924,-2.6013,-2.6401,-2.6657,-2.6657,-2.6691,-2.6691,-2.6657,-2.6691,-2.6691,-2.6691,-2.6691,-2.6691,-2.6691,-2.6691,-2.6691,-1.8204,0.0,-1.9296,-1.9045,-1.8882,-1.8744,0.0,-1.8493,-1.843,0.0,0.0,0.0,0.0,0.0,0.0,0.0,0.0,0.0,0.0,0.0,0.0,0.0,0.0,0.0,0.0,0.0,0.0,0.0,0.0,-3.7808,-3.7644,-3.7644,-3.7345,-3.6716,-3.6851,-3.6866,-3.6701,-3.6552,-3.6237,-3.5729,-3.4876,-3.4846,-3.5474,-3.4262,-3.4083,-3.4726,-3.4726,-3.4494,-3.4218,-3.4588,-3.439,-3.3921,-3.3617,-3.3185,-3.2706,-3.2392,-3.2153,-3.1943,-3.1586,-3.1571,-3.1676,-3.1526,-3.1482,-3.1482,-3.1482,-3.1482,-3.1482,-3.1482,-3.1482,-3.1482,-3.1482,-3.1482,-3.1405,-3.0866,-3.0612,-3.0238,-2.9265,-2.8936,-2.8622,-2.7949,-2.7814,-2.7754,-2.7655,-2.7625,-2.7625,-2.7625,-2.7625,-2.766,-2.781,-2.7225,-2.6642,-2.6077,-2.5664,-2.5207,-2.4614,-2.4697,-2.5144,-2.5961,-2.612,-2.6139,-2.6139,-2.6505,-2.6521,-2.6191,-2.6521,-2.6691,-2.6691,-2.6691,-2.6691,-2.6691,-2.6691,-2.6691,-1.7313,-1.7965,-1.8455,-1.7953,-1.8204,-1.8518,-1.8267,0.0,0.0,0.0,0.0,0.0,0.0,0.0,0.0,0.0,0.0,0.0,0.0,0.0,0.0,0.0,0.0,0.0,0.0,0.0,0.0,0.0,0.0,-3.7285,-3.7,-3.6985,-3.6552,-3.5594,-3.5564,-3.5714,-3.6028,-3.6028,-3.5863,-3.5489,-3.4502,-3.4382,-3.4996,-3.3649,-3.341,-3.4023,-3.4023,-3.3858,-3.3604,-3.3903,-3.3844,-3.3544,-3.3185,-3.3021,-3.2886,-3.2287,-3.2213,-3.2347,-3.1676,-3.1482,-3.1482,-3.1482,-3.1482,-3.1482,-3.1482,-3.1482,-3.1482,-3.1482,-3.1482,-3.1482,-3.1482,-3.1482,-3.1302,-3.0672,-3.0283,-2.9894,-2.9205,-2.8562,-2.8113,-2.8053,-2.7784,-2.7625,-2.7625,-2.7625,-2.7625,-2.7625,-2.7625,-2.7505,-2.7156,-2.6811,-2.6309,-2.5606,-2.5459,-2.5248,-2.4799,-2.4792,-2.5144,-2.5961,-2.6191,-2.6332,-2.6332,-2.659,-2.659,-2.6332,-2.659,-2.6691,-2.6691,-2.6691,-2.6691,-2.6691,-2.6691,-2.6691,-1.7144,-1.8053,-1.8643,-1.7604,-1.8206,-1.889,-1.8333,0.0,0.0,0.0,0.0,0.0,0.0,0.0,0.0,0.0,0.0,0.0,0.0,0.0,0.0,0.0,0.0,0.0,0.0,0.0,0.0,0.0,-3.7075,-3.6731,-3.6207,-3.6088,-3.5504,-3.4367,-3.4322,-3.4607,-3.519,-3.519,-3.519,-3.519,-3.3933,-3.3694,-3.4277,-3.2961,-3.2721,-3.335,0.0,0.0,-3.2557,-3.311,-3.3021,-3.2497,-3.2407,-3.2706,-3.3066,-3.1943,-3.2243,-3.3036,-3.1855,-3.1482,-3.1482,-3.1482,-3.1482,-3.1482,-3.1482,-3.1482,-3.1482,-3.1482,-3.1482,-3.1452,-3.1347,-3.1375,-3.118,-3.0402,-2.9819,-2.94,-2.9295,-2.8382,-2.779,-2.8323,-2.7979,-2.7625,-2.7625,-2.7625,-2.7625,-2.7625,-2.7535,-2.7215,-2.6662,-2.6497,-2.6148,-2.5382,-2.5373,-2.5316,-2.5091,-2.5128,-2.5373,-2.5852,-2.6245,-2.6505,-2.659,-2.659,-2.6624,-2.6691,-2.6691,-2.6691,-2.6691,-2.6691,-2.6691,-2.6691,-2.6691,-2.6691,-1.6582,-1.7476,-1.8147,-1.7492,-1.8197,-1.8937,-1.8354,0.0,0.0,0.0,0.0,0.0,0.0,0.0,0.0,0.0,0.0,0.0,0.0,0.0,0.0,0.0,0.0,0.0,0.0,0.0,0.0,0.0,-3.5579,-3.4876,-3.4786,-3.4262,-3.3858,-3.3649,-3.3649,-3.3694,-3.3799,-3.3799,-3.3799,-3.3799,-3.3021,-3.3006,-3.3604,-3.2273,-3.2048,-3.2662,0.0,-3.2617,-3.2527,-3.2617,-3.2602,-3.2452,-3.1898,-3.1749,-3.175,-3.1556,-3.1601,-3.1809,-3.1541,-3.1482,-3.1482,-3.1482,-3.1482,-3.1482,-3.1482,-3.1482,-3.1482,-3.1482,-3.1482,-3.1405,-3.0806,-3.0657,-3.0372,-2.9175,-2.8816,-2.8592,-2.8008,-2.7775,-2.7655,-2.7709,-2.7685,-2.7625,-2.7625,-2.7625,-2.7625,-2.7625,-2.7096,-2.6707,-2.6602,-2.6093,-2.5511,-2.4792,-2.5114,-2.5164,-2.4558,-2.495,-2.5259,-2.5335,-2.5411,-2.5635,-2.6085,-2.612,-2.6297,-2.6691,-2.6691,-2.6691,-2.6691,-2.6691,-2.6691,-2.6691,-2.6691,-2.6691,-1.6443,-1.7333,-1.8098,-1.7813,-1.8866,-1.9767,-1.8809,0.0,0.0,0.0,0.0,0.0,0.0,0.0,0.0,0.0,0.0,0.0,0.0,0.0,0.0,0.0,0.0,0.0,0.0,0.0,0.0,-3.4906,-3.4292,-3.3948,-3.3948,-3.3664,-3.3335,-3.2976,-3.2961,-3.2796,-3.2437,-3.2437,-3.2796,-3.3484,-3.2826,-3.2677,-3.2931,-3.1973,-3.1704,-3.1988,0.0,-3.1988,-3.1988,-3.1988,-3.1988,-3.1958,-3.1601,-3.1482,-3.1482,-3.1482,-3.1482,-3.1482,-3.1482,-3.1482,-3.1482,-3.1482,-3.1482,-3.1482,-3.1482,-3.1482,-3.1392,-3.1091,-3.0971,-3.0986,-3.1046,-3.0537,-2.9864,-2.9265,-2.8861,-2.8412,-2.7724,-2.7625,-2.7625,-2.7625,-2.7625,-2.7625,-2.7625,-2.7625,-2.7625,-2.7625,-2.7006,-2.6467,-2.6108,-2.548,-2.4897,-2.4539,-2.4718,-2.4746,-2.442,-2.4894,-2.5335,-2.5615,-2.5615,-2.5872,-2.6367,-2.612,-2.6227,-2.6691,-2.6436,-2.6436,-2.6691,-2.6691,-2.659,-2.6332,-2.6332,-2.6175,-1.6561,-1.7433,-1.8166,-1.8078,0.0,-2.0576,-1.9722,0.0,0.0,0.0,0.0,0.0,0.0,0.0,0.0,0.0,0.0,0.0,0.0,0.0,0.0,0.0,0.0,0.0,0.0,0.0,0.0,-3.3529,-3.335,-3.326,-3.326,-3.3125,-3.2721,-3.2063,-3.2048,-3.1734,-3.1091,-3.1076,-3.1734,-3.3036,-3.2527,-3.2287,-3.2273,-3.1706,-3.1482,-3.1482,-3.1482,-3.1482,-3.1482,-3.1482,-3.1482,-3.1482,-3.1482,-3.1482,-3.1482,-3.1482,-3.1482,-3.1482,-3.1482,-3.1482,-3.1482,-3.1482,-3.1482,-3.1482,-3.1482,-3.1482,-3.139,-3.0702,-3.0402,-3.0372,-3.0746,-3.0103,-2.931,-2.9146,-2.8727,-2.8218,-2.7679,-2.7625,-2.7625,-2.7625,-2.7625,-2.7625,-2.7625,-2.744,-2.7385,-2.7385,-2.6647,-2.5959,-2.545,-2.4792,-2.4354,-2.4204,-2.4307,-2.4471,-2.4592,-2.4973,-2.5411,-2.5977,-2.6013,-2.6104,-2.635,-2.6104,-2.6191,-2.6521,-2.6191,-2.6227,-2.6691,-2.659,-2.6367,-2.6013,-2.5888,-2.5577,-1.6927,-1.7718,-1.8145,-1.7946,0.0,0.0,-2.1384,-2.2548,0.0,0.0,0.0,0.0,0.0,0.0,0.0,0.0,0.0,0.0,0.0,0.0,0.0,0.0,0.0,0.0,0.0,0.0,-3.3544,-3.3499,-3.2931,-3.2587,-3.2587,-3.2003,-3.136,-3.0672,-3.0642,-3.0342,-2.9729,-2.9729,-3.0372,-3.1616,-3.1571,-3.1541,-3.1541,-3.1497,-3.1482,-3.1482,-3.1482,-3.1482,-3.1482,-3.1482,-3.1482,-3.1482,-3.1482,-3.1482,-3.1482,-3.1482,-3.1482,-3.1482,-3.1482,-3.1482,-3.1482,-3.1482,-3.1482,-3.1482,-3.1482,-3.1482,-3.139,-3.0702,-3.0088,-2.952,-2.8966,-2.8742,-2.8517,-2.7874,-2.773,-2.7685,-2.7625,-2.7625,-2.7625,-2.7625,-2.7625,-2.7625,-2.7625,-2.7066,-2.6662,-2.6662,-2.5585,-2.4701,-2.4657,-2.4103,-2.3655,-2.3638,-2.4116,-2.4576,-2.5105,-2.5182,-2.5411,-2.5977,-2.6013,-2.5799,-2.5335,-2.5762,-2.6013,-2.6049,-2.6013,-2.6227,-2.6691,-2.6262,-2.6049,-2.5977,-2.5486,-2.5259,-1.6163,-1.6902,-1.7671,-1.7854,0.0,0.0,0.0,0.0,0.0,0.0,0.0,0.0,0.0,0.0,0.0,0.0,0.0,0.0,0.0,0.0,0.0,0.0,0.0,0.0,0.0,0.0,-3.148,-3.1091,-3.0836,-3.0702,-3.0702,-3.0462,-2.9941,-2.9239,-2.9674,-2.957,-2.8832,-2.9332,-2.9834,-3.0313,-3.0313,-3.0522,-3.0896,-3.0896,-3.1135,-3.1482,-3.1482,-3.1228,-3.0896,-3.0896,-3.0672,-3.0313,-3.0313,-3.0821,-3.1422,-3.1046,-3.1165,-3.1482,-3.1482,-3.1482,-3.1482,-3.1482,-3.1482,-3.1482,-3.1482,-3.1482,-3.13,-3.0238,-2.9759,-2.952,-2.928,-2.8592,-2.8008,-2.8173,-2.7874,-2.7625,-2.7625,-2.7625,-2.7625,-2.7625,-2.7625,-2.749,-2.7036,-2.6752,-2.6452,-2.6033,-2.5211,-2.4582,-2.4582,-2.4029,-2.3595,-2.3595,-2.4074,-2.4632,-2.5128,-2.5503,-2.5762,-2.5977,-2.5689,-2.5577,-2.5689,-2.5577,-2.5652,-2.5997,-2.6013,-2.6227,-2.6691,-2.6227,-2.5815,-2.5503,-2.5297,-2.5028,-1.5434,-1.6282,-1.7283,0.0,0.0,0.0,0.0,0.0,0.0,0.0,0.0,0.0,0.0,0.0,0.0,0.0,0.0,0.0,0.0,0.0,0.0,0.0,0.0,0.0,0.0,-3.0238,-2.9651,-2.9237,-2.9028,-2.8846,-2.8846,-2.9083,-2.8869,-2.8121,-2.8897,-2.8916,-2.8148,-2.8693,-2.8951,-2.8951,-2.8951,-2.9385,-3.0223,-3.0223,-3.0582,-3.1195,-3.1001,-3.0761,-3.0492,-3.0298,-2.9968,-2.9579,-2.9579,-3.0133,-3.0851,-3.0387,-3.0507,-3.0911,-3.0911,-3.1046,-3.118,-3.0986,-3.1046,-3.1165,-3.0971,-3.1046,-3.0941,-2.9639,-2.943,-2.949,-2.9056,-2.8314,-2.7745,-2.8173,-2.7919,-2.7565,-2.7355,-2.726,-2.72,-2.6991,-2.6946,-2.6871,-2.6632,-2.6243,-2.5884,-2.5644,-2.4866,-2.4253,-2.4253,-2.3894,-2.3681,-2.3837,-2.4184,-2.4712,-2.5373,-2.5652,-2.5815,-2.5997,-2.5503,-2.5373,-2.5726,-2.5373,-2.5449,-2.5997,-2.6013,-2.6227,-2.6691,-2.6068,-2.5652,-2.5449,-2.5105,-2.4816,-1.5012,-1.6081,0.0,0.0,0.0,0.0,0.0,0.0,0.0,0.0,0.0,0.0,0.0,0.0,0.0,0.0,0.0,0.0,0.0,0.0,0.0,0.0,0.0,0.0,0.0,-2.8873,-2.8381,-2.8367,-2.7723,-2.7301,-2.7301,-2.7954,-2.8093,-2.7501,-2.8178,-2.8248,-2.7575,-2.756,-2.7625,-2.7625,-2.7625,-2.8329,-2.9564,-2.9564,-2.9909,-3.0462,-2.9849,-2.9924,-3.0432,-2.9819,-2.9564,-2.9564,-2.9564,-2.9564,-2.9579,-2.9564,-2.9579,-2.9579,-2.9579,-2.9983,-3.0387,-2.9774,-2.9998,-3.0372,-2.9759,-3.0013,-3.0238,-2.8966,-2.9071,-2.9265,-2.797,-2.7625,-2.7625,-2.7625,-2.7625,-2.738,-2.6722,-2.6587,-2.6393,-2.5734,-2.5615,-2.5809,-2.6452,-2.5495,-2.4806,-2.5495,-2.4448,-2.3595,-2.3595,-2.3595,-2.3794,-2.4348,-2.4389,-2.4831,-2.5888,-2.5486,-2.5411,-2.5977,-2.5486,-2.5221,-2.5221,-2.5205,-2.5465,-2.5997,-2.5997,-2.6227,-2.6691,-2.5709,-2.5449,-2.5977,-2.4894,-2.4712,-1.5787,-1.6102,0.0,0.0,0.0,0.0,0.0,0.0,0.0,0.0,0.0,0.0,0.0,0.0,0.0,0.0,0.0,0.0,0.0,0.0,0.0,0.0,0.0,0.0,0.0,-2.8271,-2.7453,-2.65,-2.6623,-2.6557,-2.6101,-2.6299,-2.628,-2.6093,-2.6804,-2.6867,-2.6127,-2.7119,-2.7625,-2.7625,-2.7625,-2.8038,-2.8891,-2.8891,-2.925,-2.9849,-2.9669,-2.943,-2.9116,-2.8442,-2.8457,-2.8846,-2.8353,-2.8742,-2.952,-2.9071,-2.919,-2.9579,-2.9579,-2.9699,-2.9819,-2.9639,-2.9699,-2.9819,-2.9639,-2.9699,-2.9684,-2.8846,-2.8742,-2.8682,-2.785,-2.7625,-2.7625,-2.7625,-2.7215,-2.6826,-2.6632,-2.6228,-2.5839,-2.5644,-2.5615,-2.5525,-2.5255,-2.4836,-2.4537,-2.4238,-2.3849,-2.3595,-2.3595,-2.3595,-2.3681,-2.3837,-2.4184,-2.4552,-2.4855,-2.5051,-2.5259,-2.5411,-2.5297,-2.5221,-2.5221,-2.5577,-2.5852,-2.6013,-2.6332,-2.6401,-2.6191,-2.5524,-2.5105,-2.4871,-2.495,-2.5067,-1.4962,0.0,0.0,0.0,0.0,0.0,0.0,0.0,0.0,0.0,0.0,0.0,0.0,0.0,0.0,0.0,0.0,0.0,0.0,0.0,0.0,0.0,0.0,0.0,0.0,-2.644,-2.5574,-2.4493,-2.4445,-2.4339,-2.4008,-2.4479,-2.4751,-2.4751,-2.5683,-2.599,-2.5555,-2.6377,-2.6797,-2.6797,-2.6797,-2.7156,-2.7814,-2.8068,-2.8562,-2.919,-2.919,-2.8801,-2.8158,-2.779,-2.7814,-2.8143,-2.779,-2.8068,-2.8742,-2.8338,-2.8442,-2.8839,-2.8839,-2.8966,-2.9146,-2.8876,-2.8966,-2.9146,-2.8876,-2.8966,-2.9041,-2.8382,-2.8382,-2.8442,-2.7754,-2.7625,-2.7625,-2.7625,-2.7066,-2.6512,-2.6258,-2.5689,-2.5136,-2.4866,-2.4807,-2.4777,-2.4597,-2.4403,-2.4178,-2.4029,-2.3774,-2.3595,-2.3595,-2.3595,-2.3595,-2.3595,-2.3879,-2.4158,-2.4389,-2.4712,-2.4973,-2.5182,-2.5411,-2.554,-2.554,-2.5815,-2.6085,-2.6262,-2.6556,-2.647,-2.6013,-2.5449,-2.5012,-2.4752,-2.5067,-2.5297,0.0,0.0,0.0,0.0,0.0,0.0,0.0,0.0,0.0,0.0,0.0,0.0,0.0,0.0,0.0,0.0,0.0,0.0,0.0,0.0,0.0,0.0,0.0,0.0,0.0,-2.4083,-2.3354,-2.2605,-2.2037,-2.1622,-2.1516,-2.283,-2.3622,-2.3622,-2.4863,-2.5525,-2.5525,-2.5523,-2.5553,-2.5615,-2.5553,-2.5866,-2.6527,-2.7186,-2.7859,-2.8502,-2.8502,-2.8143,-2.7625,-2.7625,-2.7625,-2.7625,-2.7625,-2.7625,-2.7625,-2.7625,-2.7625,-2.7625,-2.7625,-2.7979,-2.8412,-2.7784,-2.7993,-2.8397,-2.7754,-2.8008,-2.8368,-2.779,-2.8023,-2.8368,-2.779,-2.7625,-2.7625,-2.7625,-2.7021,-2.6318,-2.5659,-2.5001,-2.4358,-2.3729,-2.3595,-2.3789,-2.4373,-2.4014,-2.3819,-2.4403,-2.3999,-2.3595,-2.3595,-2.3595,-2.3595,-2.3595,-2.3595,-2.3837,-2.4348,-2.4389,-2.4672,-2.5259,-2.5726,-2.6013,-2.6013,-2.6049,-2.6262,-2.6691,-2.6657,-2.6401,-2.5924,-2.5373,-2.5089,-2.5067,-2.5128,-2.5449,0.0,0.0,0.0,0.0,0.0,0.0,0.0,0.0,0.0,0.0,0.0,0.0,0.0,0.0,0.0,0.0,0.0,0.0,0.0,0.0,0.0,0.0,0.0,0.0,-2.4776,-2.4531,-2.3772,-2.2085,-2.2694,-2.2709,-2.1773,-2.2857,-2.3558,-2.3703,-2.4393,-2.4837,-2.4837,-2.4893,-2.5143,-2.5615,-2.5143,-2.5217,-2.5839,-2.6497,-2.7156,-2.785,-2.785,-2.7709,-2.7625,-2.7625,-2.7625,-2.7625,-2.7625,-2.7625,-2.7625,-2.7625,-2.7625,-2.7625,-2.7625,-2.7715,-2.7769,-2.767,-2.773,-2.7769,-2.767,-2.773,-2.7769,-2.767,-2.773,-2.7754,-2.7655,-2.7625,-2.7625,-2.7625,-2.6677,-2.5644,-2.4986,-2.4298,-2.3774,-2.3625,-2.3595,-2.3655,-2.3789,-2.3699,-2.3655,-2.3789,-2.3684,-2.3595,-2.3595,-2.3595,-2.3595,-2.3595,-2.3595,-2.3837,-2.4348,-2.4389,-2.4831,-2.5779,-2.5941,-2.6013,-2.6013,-2.6367,-2.659,-2.6691,-2.6332,-2.5872,-2.5373,-2.4816,-2.4348,-2.3948,-2.4831,-2.5259,0.0,0.0,0.0,0.0,0.0,0.0,0.0,0.0,0.0,0.0,0.0,0.0,0.0,0.0,0.0,0.0,0.0,0.0,0.0,0.0,0.0,0.0,0.0,0.0,-2.3359,-2.3249,-2.2588,-2.0952,-2.1419,-2.1663,-2.1358,-2.2159,-2.2828,-2.3184,-2.3535,-2.3671,-2.3671,-2.3717,-2.3876,-2.4217,-2.4217,-2.4517,-2.5166,-2.5824,-2.6482,-2.7096,-2.7096,-2.7096,-2.7126,-2.749,-2.7625,-2.7625,-2.7625,-2.7625,-2.7625,-2.7625,-2.7625,-2.7565,-2.7215,-2.7305,-2.7565,-2.72,-2.737,-2.7625,-2.7625,-2.74,-2.7171,-2.7535,-2.735,-2.7186,-2.7535,-2.7625,-2.746,-2.6782,-2.6108,-2.551,-2.5166,-2.4313,-2.3595,-2.3595,-2.3595,-2.3595,-2.3595,-2.3595,-2.3595,-2.3595,-2.3595,-2.3595,-2.3595,-2.3595,-2.3595,-2.3595,-2.3837,-2.4116,-2.4389,-2.4855,-2.5297,-2.5615,-2.5852,-2.5888,-2.5615,-2.5872,-2.5964,-2.5964,-2.5762,-2.5335,-2.4831,-2.4552,-2.4116,-2.3638,-2.4712,-2.5221,0.0,0.0,0.0,0.0,0.0,0.0,0.0,0.0,0.0,0.0,0.0,0.0,0.0,0.0,0.0,0.0,0.0,0.0,0.0,0.0,0.0,0.0,0.0,0.0,-2.1838,-2.1697,-2.1183,-1.9901,-1.9991,-2.0333,-2.0795,-2.1582,-2.2239,-2.2694,-2.2694,-2.2694,-2.2694,-2.2603,-2.2603,-2.2694,-2.3334,-2.3969,-2.4597,-2.5061,-2.5689,-2.6422,-2.6422,-2.6422,-2.6467,-2.7006,-2.723,-2.723,-2.723,-2.723,-2.723,-2.723,-2.723,-2.7156,-2.6617,-2.6782,-2.7141,-2.6602,-2.6782,-2.723,-2.723,-2.6931,-2.6707,-2.7245,-2.7096,-2.6886,-2.7475,-2.7625,-2.7305,-2.6213,-2.5779,-2.5555,-2.5315,-2.4388,-2.3595,-2.3595,-2.3595,-2.3595,-2.3595,-2.3595,-2.3595,-2.3595,-2.3595,-2.3595,-2.3595,-2.3681,-2.3767,-2.3767,-2.4241,-2.4592,-2.4672,-2.5411,-2.5689,-2.5373,-2.5652,-2.5615,-2.5089,-2.5067,-2.5028,-2.495,-2.5012,-2.4816,-2.4389,-2.4307,-2.4074,-2.3752,-2.4736,-2.5259,0.0,0.0,0.0,0.0,0.0,0.0,0.0,0.0,0.0,0.0,0.0,0.0,0.0,0.0,0.0,0.0,0.0,0.0,0.0,0.0,0.0,0.0,0.0,0.0,0.0,-2.1697,-2.1183,-1.9901,-2.0805,-2.1245,-2.0845,-2.2438,-2.3143,-2.2694,-2.2694,-2.2694,-2.2694,-2.21,-2.2146,-2.2694,-2.3334,-2.3969,-2.4567,-2.4103,-2.4552,-2.5734,-2.5734,-2.5734,-2.5749,-2.5839,-2.5869,-2.5869,-2.5869,-2.5869,-2.5869,-2.5869,-2.5869,-2.5854,-2.5764,-2.5794,-2.5854,-2.5764,-2.5794,-2.5869,-2.5869,-2.6213,-2.6602,-2.6692,-2.7066,-2.7505,-2.7595,-2.7625,-2.7565,-2.74,-2.6437,-2.5285,-2.4118,-2.3729,-2.3595,-2.3595,-2.3595,-2.3595,-2.3595,-2.3595,-2.3595,-2.3595,-2.3595,-2.3595,-2.3595,-2.3991,-2.4266,-2.4266,-2.4776,-2.5297,-2.5742,-2.5486,-2.5486,-2.5888,-2.5524,-2.5067,-2.4552,-2.4511,-2.4266,-2.3837,-2.4266,-2.4471,-2.4389,-2.3906,-2.3921,-2.4307,-2.491,-2.5449,0.0,0.0,0.0,0.0,0.0,0.0,0.0,0.0,0.0,0.0,0.0,0.0,0.0,0.0,0.0,0.0,0.0,0.0,0.0,0.0,0.0,0.0,0.0,0.0,0.0,-2.0688,-2.0338,-1.9403,-1.9866,-2.0365,-2.0716,-2.1858,-2.2396,-2.2176,-2.2115,-2.1974,-2.1657,-2.1677,-2.2225,-2.3201,-2.3465,-2.3759,-2.4044,-2.3729,-2.4133,-2.5061,-2.5061,-2.5061,-2.5091,-2.5465,-2.5615,-2.5615,-2.5615,-2.5615,-2.5615,-2.5615,-2.5615,-2.5555,-2.5196,-2.53,-2.5555,-2.5181,-2.5315,-2.5615,-2.5615,-2.5555,-2.5644,-2.6378,-2.6527,-2.6632,-2.743,-2.7625,-2.7535,-2.7111,-2.6303,-2.5345,-2.4388,-2.3879,-2.3595,-2.3595,-2.3595,-2.3595,-2.3595,-2.3595,-2.3595,-2.3595,-2.3595,-2.3595,-2.3595,-2.3794,-2.3948,-2.3948,-2.443,-2.4871,-2.5089,-2.5182,-2.5182,-2.5105,-2.4855,-2.4511,-2.3948,-2.3948,-2.3837,-2.3595,-2.3837,-2.3948,-2.3948,-2.4032,-2.4158,-2.443,-2.5259,-2.5762,0.0,0.0,0.0,0.0,0.0,0.0,0.0,0.0,0.0,0.0,0.0,0.0,0.0,0.0,0.0,0.0,0.0,0.0,0.0,0.0,0.0,0.0,0.0,0.0,0.0,0.0,-1.9489,-1.9021,-1.9158,-1.9622,-2.0457,-2.1112,-2.1542,-2.1715,-2.1407,-2.1097,-2.0795,-2.139,-2.2363,-2.3595,-2.3595,-2.3595,-2.3595,-2.3595,-2.3879,-2.4373,-2.4373,-2.4373,-2.4403,-2.4896,-2.5091,-2.5091,-2.5091,-2.5091,-2.5091,-2.5091,-2.5091,-2.5031,-2.4537,-2.4687,-2.5016,-2.4522,-2.4702,-2.5091,-2.5091,-2.4881,-2.4791,-2.5809,-2.5854,-2.5839,-2.6811,-2.7066,-2.6946,-2.6452,-2.5839,-2.5181,-2.4507,-2.3969,-2.3595,-2.3595,-2.3595,-2.3595,-2.3595,-2.3595,-2.3595,-2.3595,-2.3595,-2.3595,-2.3595,-2.3724,-2.3794,-2.3794,-2.4266,-2.4576,-2.4576,-2.4871,-2.4831,-2.443,-2.4266,-2.4032,-2.3595,-2.3595,-2.3595,-2.3595,-2.3595,-2.3681,-2.3794,-2.4348,-2.4576,-2.4632,-2.5577,-2.6013,0.0,0.0,0.0,0.0,0.0,0.0,0.0,0.0,0.0,0.0,0.0,0.0,0.0,0.0,0.0,0.0,0.0,0.0,0.0,0.0,0.0,0.0,0.0,0.0,0.0,0.0,-1.8967,-1.8995,-1.9534,-1.9901,-1.9945,-2.0571,-2.1181,-2.17,-2.0653,-2.0337,-2.0795,-2.139,-2.2363,-2.3595,-2.3595,-2.3595,-2.3595,-2.3595,-2.3625,-2.3655,-2.3655,-2.3655,-2.3655,-2.3684,-2.3699,-2.3699,-2.3699,-2.3699,-2.3699,-2.3699,-2.3699,-2.3699,-2.367,-2.367,-2.3699,-2.367,-2.3684,-2.3699,-2.3699,-2.4133,-2.4597,-2.4672,-2.5151,-2.563,-2.5689,-2.5704,-2.5704,-2.5674,-2.5151,-2.4448,-2.3804,-2.3625,-2.3595,-2.3595,-2.3595,-2.3595,-2.3595,-2.3595,-2.3595,-2.3595,-2.3595,-2.3595,-2.3595,-2.4032,-2.4348,-2.4348,-2.4831,-2.5144,-2.5144,-2.4712,-2.443,-2.4389,-2.3921,-2.3638,-2.3595,-2.3595,-2.3595,-2.3595,-2.3595,-2.3837,-2.4348,-2.491,-2.5144,-2.5182,-2.5726,-2.6013,0.0,0.0,0.0,0.0,0.0,0.0,0.0,0.0,0.0,0.0,0.0,0.0,0.0,0.0,0.0,0.0,0.0,0.0,0.0,0.0,0.0,0.0,0.0,0.0,0.0,0.0,0.0,-1.7461,-1.7895,-1.8381,-1.8727,-1.9067,-1.9321,-1.9464,-1.9431,-1.968,-2.0202,-2.0111,-2.0817,-2.2368,-2.1698,-2.173,-2.2396,-2.2454,-2.2717,-2.3054,-2.3421,-2.3595,-2.3595,-2.3595,-2.3595,-2.3595,-2.3595,-2.3595,-2.3595,-2.3595,-2.3595,-2.3595,-2.3595,-2.3595,-2.3595,-2.3595,-2.3595,-2.3595,-2.3595,-2.3774,-2.4059,-2.4462,-2.4746,-2.5076,-2.5495,-2.5615,-2.5495,-2.5076,-2.4746,-2.4433,-2.3744,-2.3595,-2.3595,-2.3595,-2.3595,-2.3595,-2.3595,-2.3595,-2.3595,-2.3595,-2.3595,-2.3595,-2.3595,-2.3752,-2.3879,-2.3879,-2.4074,-2.4184,-2.4184,-2.3991,-2.3879,-2.3879,-2.3724,-2.3595,-2.3595,-2.3595,-2.3595,-2.3595,-2.3964,-2.4032,-2.3879,-2.443,-2.4712,-2.4712,-2.5259,-2.5503,0.0,0.0,0.0,0.0,0.0,0.0,0.0,0.0,0.0,0.0,0.0,0.0,0.0,0.0,0.0,0.0,0.0,0.0,0.0,0.0,0.0,0.0,0.0,0.0,0.0,0.0,0.0,-1.648,-1.6644,0.0,-1.7279,-1.755,-1.7774,-1.7948,-1.8494,-1.9086,-1.9639,-1.9297,-1.9784,-2.1167,-2.0599,-2.0727,-2.1456,-2.193,-2.2352,-2.2717,-2.3332,-2.3595,-2.3595,-2.3595,-2.3595,-2.3595,-2.3595,-2.3595,-2.3595,-2.3595,-2.3595,-2.3595,-2.3595,-2.3595,-2.3595,-2.3595,-2.3595,-2.3595,-2.3595,-2.3595,-2.3684,-2.4163,-2.4283,-2.4388,-2.4822,-2.4941,-2.4822,-2.4388,-2.4283,-2.4163,-2.3699,-2.3595,-2.3595,-2.3595,-2.3595,-2.3595,-2.3595,-2.3595,-2.3595,-2.3595,-2.3595,-2.3595,-2.3595,-2.3595,-2.3595,-2.3595,-2.3595,-2.3595,-2.3595,-2.3595,-2.3595,-2.3595,-2.3595,-2.3595,-2.3595,-2.3595,-2.3595,-2.3595,-2.3948,-2.3964,-2.3595,-2.4307,-2.4592,-2.443,-2.4934,-2.5221,0.0,0.0,0.0,0.0,0.0,0.0,0.0,0.0,0.0,0.0,0.0,0.0,0.0,0.0,0.0,0.0,0.0,0.0,0.0,0.0,0.0,0.0,0.0,0.0,0.0,0.0,0.0,-1.6192,-1.5887,-1.5681,-1.5694,-1.615,-1.6725,-1.7345,-1.7852,-1.8431,-1.902,-1.902,-1.9391,-2.0074,-2.0542,-2.0821,-2.0891,-2.2061,-2.2622,-2.2667,-2.3281,-2.355,-2.3565,-2.3595,-2.3595,-2.3595,-2.3595,-2.3595,-2.3595,-2.3595,-2.3595,-2.3595,-2.3595,-2.3595,-2.3595,-2.3595,-2.3595,-2.3595,-2.3595,-2.3595,-2.3595,-2.3595,-2.3595,-2.3595,-2.3595,-2.3595,-2.3595,-2.3595,-2.3595,-2.3595,-2.3595,-2.3595,-2.3595,-2.3595,-2.3595,-2.3595,-2.3595,-2.3595,-2.3595,-2.3595,-2.3595,-2.3595,-2.3595,-2.3595,-2.3595,-2.3595,-2.3595,-2.3595,-2.3595,-2.3595,-2.3595,-2.3595,-2.3595,-2.3595,-2.3595,-2.3595,-2.3595,-2.3595,-2.3595,-2.3595,-2.3595,-2.4672,-2.491,-2.4389,-2.491,-2.5128,-1.5799,0.0,0.0,0.0,0.0,0.0,0.0,0.0,0.0,0.0,0.0,0.0,0.0,0.0,0.0,0.0,0.0,0.0,0.0,0.0,0.0,0.0,0.0,0.0,0.0,0.0,-1.5535,0.0,-1.4928,-1.5076,-1.5133,-1.5274,-1.5616,-1.6132,-1.6308,-1.6859,-1.7787,-1.7415,-1.7702,-1.8657,-1.8011,-1.8352,-1.9475,-1.9906,-2.0524,-2.1276,-2.1951,-2.2488,-2.2966,-2.3415,-2.3595,-2.3595,-2.3595,-2.3595,-2.3595,-2.3595,-2.3595,-2.3595,-2.3595,-2.3595,-2.3595,-2.3595,-2.3595,-2.3595,-2.3595,-2.3595,-2.3595,-2.3595,-2.3595,-2.3595,-2.3595,-2.3595,-2.3595,-2.3595,-2.3595,-2.3595,-2.3595,-2.3595,-2.3595,-2.3595,-2.3595,-2.3595,-2.3595,-2.3595,-2.3595,-2.3595,-2.3595,-2.3595,-2.3595,-2.3595,-2.3595,-2.3595,-2.3595,-2.3595,-2.3595,-2.3595,-2.3595,-2.3595,-2.3595,-2.3595,-2.3595,-2.3595,-2.3595,-2.3595,-2.3595,-2.3595,-2.3595,-2.3921,-2.3964,-2.3837,-2.3948,-2.4032,0.0,0.0,0.0,0.0,0.0,0.0,-0.8811,-0.8663,-0.8678,0.0,0.0,0.0,0.0,0.0,0.0,0.0,0.0,0.0,0.0,0.0,0.0,0.0,0.0,0.0,0.0,-1.4606,-1.4574,-1.4059,-1.4107,-1.4259,-1.4538,-1.4563,-1.4815,-1.5329,-1.5354,-1.5653,-1.6281,-1.6211,-1.6491,-1.7117,-1.7152,-1.7649,-1.859,-1.9395,-2.0099,-2.0757,-2.1401,-2.1919,-2.2323,-2.2951,-2.337,-2.3595,-2.3595,-2.3595,-2.3595,-2.3595,-2.3595,-2.3595,-2.3595,-2.3595,-2.3595,-2.3595,-2.3595,-2.3595,-2.3595,-2.3595,-2.3595,-2.3595,-2.3595,-2.3595,-2.3595,-2.3595,-2.3595,-2.3595,-2.3595,-2.3595,-2.3595,-2.3595,-2.3595,-2.3595,-2.3595,-2.3595,-2.3595,-2.3595,-2.3595,-2.3595,-2.3595,-2.3595,-2.3595,-2.3595,-2.3595,-2.3595,-2.3595,-2.3595,-2.3595,-2.3595,-2.3595,-2.3595,-2.3595,-2.3595,-2.3595,-2.3595,-2.3595,-2.3595,-2.3595,-2.3595,-2.3595,-2.3595,-2.3595,-2.3595,-2.3595,-2.3724,0.0,0.0,0.0,0.0,0.0,0.0,-0.7646,-0.7481,-0.7945,-0.6631,0.0,0.0,0.0,0.0,0.0,0.0,0.0,0.0,0.0,0.0,0.0,0.0,0.0,0.0,-1.3842,-1.3342,-1.3213,-1.3703,-1.3387,-1.3446,-1.3972,-1.3997,-1.4249,-1.4802,-1.4815,-1.484,-1.4916,-1.5417,-1.5693,-1.5706,-1.7263,-1.8027,-1.8159,-1.9759,-2.0527,-2.0632,-2.1216,-2.1515,-2.1635,-2.2218,-2.2862,-2.3505,-2.3565,-2.3595,-2.3595,-2.3595,-2.3595,-2.3595,-2.3595,-2.3595,-2.3595,-2.3595,-2.3595,-2.3595,-2.3595,-2.3595,-2.3595,-2.3595,-2.3595,-2.3595,-2.3595,-2.3595,-2.3595,-2.3595,-2.3595,-2.3595,-2.3595,-2.3595,-2.3595,-2.3595,-2.3595,-2.3595,-2.3595,-2.3595,-2.3595,-2.3595,-2.3595,-2.3595,-2.3595,-2.3595,-2.3595,-2.3595,-2.3595,-2.3595,-2.3595,-2.3595,-2.3595,-2.3595,-2.3595,-2.3595,-2.3595,-2.3595,-2.3595,-2.3595,-2.3595,-2.3595,-2.3595,-2.3595,-2.3638,-2.3681,-2.3681,-2.3991,0.0,0.0,0.0,0.0,0.0,0.0,-1.1012,-1.0847,-1.0668,0.0,0.0,0.0,0.0,0.0,0.0,0.0,0.0,0.0,0.0,0.0,0.0,0.0,0.0,0.0,-1.2603,-1.2814,-1.2899,-1.2717,-1.3015,-1.3248,-1.3348,-1.3396,-1.3647,-1.4236,-1.4249,-1.4462,-1.4903,-1.5417,-1.5693,-1.5693,-1.6872,-1.7666,-1.8145,-1.8908,-1.9486,-1.9884,-2.0019,-2.0393,-2.0917,-2.1051,-2.1799,-2.2906,-2.34,-2.3595,-2.3595,-2.3595,-2.3595,-2.3595,-2.3595,-2.3595,-2.3595,-2.3595,-2.3595,-2.3595,-2.3595,-2.3595,-2.3595,-2.3595,-2.3595,-2.3595,-2.3595,-2.3595,-2.3595,-2.3595,-2.3595,-2.3595,-2.3595,-2.3595,-2.3595,-2.3595,-2.3595,-2.3595,-2.3595,-2.3595,-2.3595,-2.3595,-2.3595,-2.3595,-2.3595,-2.3595,-2.3595,-2.3595,-2.3595,-2.3595,-2.3595,-2.3595,-2.3595,-2.3595,-2.3595,-2.3595,-2.3595,-2.3595,-2.3595,-2.3595,-2.3595,-2.3595,-2.3595,-2.3595,-2.3837,-2.4225,-2.4225,-2.4552,0.0,0.0,0.0,-1.354,0.0,0.0,0.0,-1.0847,-1.0578,-0.9608,0.0,0.0,0.0,0.0,0.0,0.0,0.0,0.0,0.0,0.0,0.0,0.0,0.0,0.0,-1.1256,-1.1903,-1.2455,-1.278,-1.3048,-1.3198,-1.3198,-1.3198,-1.3323,-1.3634,-1.3647,-1.4042,-1.4846,-1.5401,-1.5984,-1.6493,-1.7581,-1.8263,-1.8535,-1.9043,-1.9442,-1.969,-1.969,-1.9884,-2.0228,-2.0572,-2.1111,-2.1799,-2.2757,-2.3131,-2.3176,-2.349,-2.34,-2.3176,-2.349,-2.3385,-2.3191,-2.349,-2.3595,-2.3595,-2.3595,-2.3595,-2.3595,-2.3595,-2.3595,-2.3595,-2.3595,-2.3595,-2.3595,-2.3595,-2.3595,-2.3595,-2.3595,-2.3595,-2.3595,-2.3595,-2.3595,-2.3595,-2.3595,-2.3595,-2.3595,-2.3595,-2.3595,-2.3595,-2.3595,-2.3595,-2.3595,-2.3595,-2.3595,-2.3595,-2.3595,-2.3595,-2.3595,-2.3595,-2.3595,-2.3595,-2.3595,-2.3595,-2.3595,-2.3595,-2.3595,-2.3595,-2.3595,-2.3595,-2.3767,-2.3991,-2.3991,-2.4266,0.0,0.0,0.0,0.0,0.0,-1.2508,0.0,0.0,0.0,0.0,0.0,0.0,0.0,0.0,0.0,0.0,0.0,0.0,0.0,0.0,0.0,0.0,0.0,0.0,-1.0068,-1.1051,-1.2002,-1.2973,-1.3135,-1.3198,-1.3198,-1.3198,-1.3198,-1.3198,-1.3198,-1.3607,-1.4485,-1.5099,-1.5872,-1.6826,-1.8012,-1.8631,-1.872,-1.9398,-1.969,-1.969,-1.969,-1.969,-1.9735,-2.0288,-2.0513,-2.0647,-2.1964,-2.2488,-2.2547,-2.3041,-2.2996,-2.2783,-2.3251,-2.3044,-2.2646,-2.3213,-2.3319,-2.3216,-2.3216,-2.3319,-2.3421,-2.3421,-2.3508,-2.3595,-2.3595,-2.3595,-2.3595,-2.3595,-2.3595,-2.3595,-2.3595,-2.3595,-2.3595,-2.3595,-2.3595,-2.3595,-2.3595,-2.3595,-2.3595,-2.3595,-2.3595,-2.3595,-2.3595,-2.3595,-2.3595,-2.3595,-2.3595,-2.3595,-2.3595,-2.3595,-2.3595,-2.3595,-2.3595,-2.3595,-2.3595,-2.3595,-2.3595,-2.3595,-2.3595,-2.3595,-2.3595,-2.3595,-2.3638,-2.3752,-2.3752,-2.4032,0.0,0.0,0.0,0.0,-1.369,0.0,0.0,0.0,-1.1565,-1.1491,0.0,0.0,0.0,0.0,0.0,0.0,0.0,0.0,0.0,0.0,0.0,0.0,0.0,0.0,0.0,-1.078,-1.1839,-1.2467,-1.2922,-1.3198,-1.3198,-1.3198,-1.3198,-1.3198,-1.3198,-1.3257,-1.3389,-1.3968,-1.4513,-1.5008,-1.6693,-1.7678,-1.8036,-1.9176,-1.969,-1.969,-1.969,-1.969,-1.969,-1.9765,-1.9794,-1.9929,-2.1276,-2.1799,-2.1814,-2.1889,-2.2233,-2.2724,-2.2798,-2.2461,-2.2091,-2.2627,-2.2392,-2.1932,-2.1932,-2.2331,-2.2785,-2.2785,-2.3201,-2.3595,-2.3595,-2.3595,-2.3595,-2.3595,-2.3595,-2.3595,-2.3595,-2.3595,-2.3595,-2.3595,-2.3595,-2.3595,-2.3595,-2.3595,-2.3595,-2.3595,-2.3595,-2.3595,-2.3595,-2.3595,-2.3595,-2.3595,-2.3595,-2.3595,-2.3595,-2.3595,-2.3595,-2.3595,-2.3595,-2.3595,-2.3595,-2.3595,-2.3595,-2.3595,-2.3595,-2.3595,-2.3595,-2.3595,-2.3837,-2.4307,-2.4307,-2.4592,0.0,0.0,0.0,0.0,0.0,0.0,-1.2014,0.0,-1.191,0.0,0.0,0.0,0.0,0.0,0.0,0.0,-1.0832,0.0,0.0,0.0,0.0,0.0,0.0,0.0,0.0,0.0,0.0,-1.0081,-1.1983,-1.2772,-1.1795,-1.2672,-1.3198,-1.3198,-1.3198,-1.3647,-1.4526,-1.4502,-1.5198,-1.6556,-1.7362,-1.8035,-1.8504,-1.9324,-1.969,-1.969,-1.969,-1.969,-1.969,-1.969,-1.969,-1.975,-2.0303,-2.0782,-2.1171,-2.156,-2.1874,-2.2058,-2.1742,-2.1535,-2.1354,-2.1571,-2.1713,-2.178,-2.1701,-2.2411,-2.3157,-2.2803,-2.3139,-2.3595,-2.3595,-2.3595,-2.3505,-2.3146,-2.3071,-2.2951,-2.2577,-2.2503,-2.2503,-2.2503,-2.2503,-2.2622,-2.2996,-2.3355,-2.3595,-2.3595,-2.3595,-2.3595,-2.3595,-2.3595,-2.3595,-2.3595,-2.3595,-2.3595,-2.3595,-2.3595,-2.3595,-2.3595,-2.3595,-2.3595,-2.3595,-2.3595,-2.3595,-2.3595,-2.3595,-2.3595,-2.3595,-2.3595,-2.3724,-2.3964,-2.3964,-2.4074,-1.4079,0.0,0.0,0.0,0.0,0.0,0.0,0.0,0.0,0.0,0.0,0.0,0.0,0.0,0.0,0.0,0.0,-0.994,0.0,0.0,0.0,0.0,0.0,0.0,0.0,0.0,-1.008,-0.8625,-1.0856,-1.1821,-1.0756,-1.1846,-1.2722,-1.3185,-1.3198,-1.3741,-1.485,-1.482,-1.5632,-1.7263,-1.7819,-1.8346,-1.887,-1.9441,-1.969,-1.969,-1.969,-1.969,-1.969,-1.969,-1.969,-1.969,-1.969,-1.9989,-2.0483,-2.0961,-2.1261,-2.1347,-2.0823,-2.054,-2.0345,-2.0063,-2.0456,-2.1111,-2.1008,-2.1838,-2.2697,-2.2295,-2.2587,-2.3071,-2.3071,-2.3071,-2.2966,-2.2517,-2.2413,-2.2278,-2.1799,-2.156,-2.148,-2.148,-2.1344,-2.1451,-2.2102,-2.2837,-2.34,-2.358,-2.3595,-2.3595,-2.3595,-2.3595,-2.3595,-2.3595,-2.3595,-2.3551,-2.3377,-2.3363,-2.3363,-2.3363,-2.3363,-2.3421,-2.3595,-2.3595,-2.3595,-2.3595,-2.3595,-2.3595,-2.3595,-2.3595,-2.3595,-2.3595,-2.3595,-2.3595,0.0,0.0,0.0,-1.3615,0.0,0.0,0.0,0.0,-1.1805,0.0,0.0,0.0,0.0,0.0,0.0,0.0,0.0,0.0,0.0,0.0,0.0,0.0,0.0,0.0,0.0,-0.9754,-1.0257,-0.9163,-0.9642,-1.0219,-1.0669,-1.0744,-1.152,-1.3148,-1.3198,-1.3198,-1.3257,-1.4289,-1.5052,-1.5616,-1.7297,-1.8306,-1.8728,-1.939,-1.969,-1.969,-1.969,-1.969,-1.969,-1.969,-1.969,-1.969,-1.969,-1.969,-1.972,-1.975,-2.0168,-2.0661,-2.0127,-1.9614,-1.8993,-1.7868,-1.8254,-1.9106,-1.908,-1.9913,-2.0781,-2.0766,-2.1237,-2.1754,-2.1754,-2.1754,-2.1754,-2.1739,-2.1724,-2.1724,-2.1695,-2.1304,-2.0905,-2.0905,-2.0514,-2.0302,-2.0851,-2.1946,-2.2906,-2.3505,-2.3595,-2.3595,-2.3595,-2.3595,-2.3595,-2.3595,-2.3595,-2.3377,-2.2785,-2.274,-2.274,-2.274,-2.274,-2.2965,-2.3551,-2.3595,-2.3595,-2.3595,-2.3595,-2.3595,-2.3595,-2.3595,-2.3595,-2.3595,-2.3595,-2.3595,0.0,0.0,-1.2178,-1.2423,0.0,0.0,0.0,0.0,0.0,0.0,0.0,0.0,0.0,0.0,0.0,0.0,0.0,0.0,0.0,0.0,0.0,0.0,0.0,0.0,0.0,0.0,0.0,-0.6482,-0.8901,-1.003,-0.9153,-1.1538,-1.3019,-1.3185,-1.3584,-1.4101,-1.4708,-1.4458,-1.5252,-1.71,-1.7418,-1.8012,-1.8848,-1.9426,-1.969,-1.969,-1.969,-1.969,-1.969,-1.969,-1.9479,-1.9169,-1.9169,-1.8968,-1.8688,-1.9043,-1.9593,-2.0084,-1.9563,-1.8518,-1.7493,-1.8167,-1.87,-1.9126,-1.9379,-2.0346,-2.1281,-2.0799,-2.1178,-2.1695,-2.1695,-2.1695,-2.159,-2.1141,-2.1051,-2.0917,-2.0468,-2.0236,-2.0123,-2.0123,-1.9956,-2.0011,-2.0676,-2.1099,-2.1739,-2.2832,-2.2981,-2.3131,-2.355,-2.3246,-2.3009,-2.3009,-2.262,-2.2271,-2.2053,-2.2053,-2.2253,-2.2649,-2.2694,-2.2965,-2.3551,-2.3595,-2.3595,-2.3595,-2.3595,-2.3595,-2.3595,-2.3595,-2.3595,-2.3595,-2.3595,-2.3595,-0.6036,-0.7358,0.0,-1.0171,-1.0627,0.0,-1.1191,0.0,-1.0345,0.0,0.0,0.0,0.0,0.0,0.0,0.0,0.0,0.0,0.0,-0.9607,0.0,0.0,0.0,0.0,0.0,0.0,-0.7826,-0.5988,-0.87,-1.0056,0.0,-1.1525,-1.2981,-1.3185,-1.3584,-1.4158,-1.4916,-1.4937,-1.5869,-1.7625,-1.7999,-1.8541,-1.9207,-1.953,-1.969,-1.969,-1.969,-1.969,-1.969,-1.969,-1.9369,-1.8893,-1.8893,-1.8574,-1.8145,-1.8496,-1.8764,-1.8916,-1.8563,-1.7699,-1.6951,-1.7987,-1.8647,-1.9098,-1.9338,-2.0161,-2.0887,-2.0468,-2.0662,-2.0976,-2.0976,-2.0976,-2.0872,-2.0453,-2.0348,-2.0228,-1.9779,-1.9566,-1.9406,-1.9406,-1.9132,-1.9098,-1.9906,-1.9888,-2.0455,-2.2387,-2.2724,-2.2906,-2.352,-2.3054,-2.2694,-2.2694,-2.21,-2.1697,-2.1697,-2.152,-2.1771,-2.2649,-2.2694,-2.2965,-2.3551,-2.3385,-2.3284,-2.3275,-2.3053,-2.2908,-2.2935,-2.3172,-2.329,-2.329,-2.3508,-2.3595]}]]